<?xml version="1.0" encoding="UTF-8" standalone="no" ?>
<gpx xmlns="http://www.topografix.com/GPX/1/1" xmlns:xsi="http://www.w3.org/2001/XMLSchema-instance" xsi:schemaLocation="http://www.topografix.com/GPX/1/1 http://www.topografix.com/GPX/1/1/gpx.xsd" version="1.1" creator="VisuGPX - https://www.visugpx.com">
  <metadata>
    <name>Rochers du Parquet</name>
    <desc><![CDATA[Boucle des Rochers du Parquet, par le Pas des Bachassons
Mauvais temps, descente directe par le pas de la Selle]]></desc>
  </metadata>
  <trk>
    <name><![CDATA[Trk005]]></name>
    <trkseg>
      <trkpt lat="44.85946" lon="5.55863">
        <ele>1108</ele>
        <time>2013-02-09T07:58:51Z</time>
      </trkpt>
      <trkpt lat="44.85949" lon="5.55858">
        <ele>1109</ele>
        <time>2013-02-09T07:58:56Z</time>
      </trkpt>
      <trkpt lat="44.85953" lon="5.55855">
        <ele>1109</ele>
        <time>2013-02-09T07:59:01Z</time>
      </trkpt>
      <trkpt lat="44.85955" lon="5.55854">
        <ele>1109</ele>
        <time>2013-02-09T07:59:06Z</time>
      </trkpt>
      <trkpt lat="44.85956" lon="5.55851">
        <ele>1109</ele>
        <time>2013-02-09T07:59:11Z</time>
      </trkpt>
      <trkpt lat="44.85956" lon="5.55843">
        <ele>1110</ele>
        <time>2013-02-09T07:59:16Z</time>
      </trkpt>
      <trkpt lat="44.85953" lon="5.5584">
        <ele>1110</ele>
        <time>2013-02-09T07:59:21Z</time>
      </trkpt>
      <trkpt lat="44.85949" lon="5.55835">
        <ele>1111</ele>
        <time>2013-02-09T07:59:26Z</time>
      </trkpt>
      <trkpt lat="44.85948" lon="5.55834">
        <ele>1111</ele>
        <time>2013-02-09T07:59:31Z</time>
      </trkpt>
      <trkpt lat="44.85948" lon="5.55834">
        <ele>1111</ele>
        <time>2013-02-09T07:59:36Z</time>
      </trkpt>
      <trkpt lat="44.85948" lon="5.55834">
        <ele>1111</ele>
        <time>2013-02-09T07:59:41Z</time>
      </trkpt>
      <trkpt lat="44.85948" lon="5.55834">
        <ele>1111</ele>
        <time>2013-02-09T07:59:46Z</time>
      </trkpt>
      <trkpt lat="44.85949" lon="5.55835">
        <ele>1110</ele>
        <time>2013-02-09T08:02:01Z</time>
      </trkpt>
      <trkpt lat="44.85948" lon="5.55834">
        <ele>1110</ele>
        <time>2013-02-09T08:02:06Z</time>
      </trkpt>
      <trkpt lat="44.85946" lon="5.55833">
        <ele>1110</ele>
        <time>2013-02-09T08:02:11Z</time>
      </trkpt>
      <trkpt lat="44.85944" lon="5.55829">
        <ele>1111</ele>
        <time>2013-02-09T08:02:16Z</time>
      </trkpt>
      <trkpt lat="44.85943" lon="5.55828">
        <ele>1111</ele>
        <time>2013-02-09T08:02:21Z</time>
      </trkpt>
      <trkpt lat="44.85943" lon="5.55828">
        <ele>1111</ele>
        <time>2013-02-09T08:02:26Z</time>
      </trkpt>
      <trkpt lat="44.85943" lon="5.55828">
        <ele>1111</ele>
        <time>2013-02-09T08:02:31Z</time>
      </trkpt>
      <trkpt lat="44.85943" lon="5.55828">
        <ele>1111</ele>
        <time>2013-02-09T08:02:36Z</time>
      </trkpt>
      <trkpt lat="44.85943" lon="5.55828">
        <ele>1111</ele>
        <time>2013-02-09T08:02:41Z</time>
      </trkpt>
      <trkpt lat="44.85943" lon="5.55828">
        <ele>1111</ele>
        <time>2013-02-09T08:02:46Z</time>
      </trkpt>
      <trkpt lat="44.85943" lon="5.55827">
        <ele>1112</ele>
        <time>2013-02-09T08:02:51Z</time>
      </trkpt>
      <trkpt lat="44.85944" lon="5.55828">
        <ele>1112</ele>
        <time>2013-02-09T08:02:56Z</time>
      </trkpt>
      <trkpt lat="44.85944" lon="5.55828">
        <ele>1112</ele>
        <time>2013-02-09T08:03:01Z</time>
      </trkpt>
      <trkpt lat="44.85943" lon="5.55827">
        <ele>1112</ele>
        <time>2013-02-09T08:03:06Z</time>
      </trkpt>
      <trkpt lat="44.85944" lon="5.55827">
        <ele>1112</ele>
        <time>2013-02-09T08:03:11Z</time>
      </trkpt>
      <trkpt lat="44.85944" lon="5.55827">
        <ele>1112</ele>
        <time>2013-02-09T08:03:16Z</time>
      </trkpt>
      <trkpt lat="44.85944" lon="5.55827">
        <ele>1112</ele>
        <time>2013-02-09T08:03:21Z</time>
      </trkpt>
      <trkpt lat="44.85944" lon="5.55827">
        <ele>1112</ele>
        <time>2013-02-09T08:03:26Z</time>
      </trkpt>
      <trkpt lat="44.85944" lon="5.55827">
        <ele>1112</ele>
        <time>2013-02-09T08:03:31Z</time>
      </trkpt>
      <trkpt lat="44.85944" lon="5.55828">
        <ele>1112</ele>
        <time>2013-02-09T08:03:36Z</time>
      </trkpt>
      <trkpt lat="44.85944" lon="5.55827">
        <ele>1112</ele>
        <time>2013-02-09T08:03:41Z</time>
      </trkpt>
      <trkpt lat="44.85944" lon="5.55827">
        <ele>1112</ele>
        <time>2013-02-09T08:03:46Z</time>
      </trkpt>
      <trkpt lat="44.85944" lon="5.55827">
        <ele>1112</ele>
        <time>2013-02-09T08:03:51Z</time>
      </trkpt>
      <trkpt lat="44.85944" lon="5.55827">
        <ele>1112</ele>
        <time>2013-02-09T08:03:56Z</time>
      </trkpt>
      <trkpt lat="44.85944" lon="5.55827">
        <ele>1112</ele>
        <time>2013-02-09T08:04:01Z</time>
      </trkpt>
      <trkpt lat="44.85942" lon="5.55826">
        <ele>1112</ele>
        <time>2013-02-09T08:04:06Z</time>
      </trkpt>
      <trkpt lat="44.8594" lon="5.55824">
        <ele>1112</ele>
        <time>2013-02-09T08:04:11Z</time>
      </trkpt>
      <trkpt lat="44.8594" lon="5.55824">
        <ele>1112</ele>
        <time>2013-02-09T08:04:16Z</time>
      </trkpt>
      <trkpt lat="44.8594" lon="5.55824">
        <ele>1112</ele>
        <time>2013-02-09T08:04:21Z</time>
      </trkpt>
      <trkpt lat="44.8594" lon="5.55824">
        <ele>1112</ele>
        <time>2013-02-09T08:04:26Z</time>
      </trkpt>
      <trkpt lat="44.8594" lon="5.55824">
        <ele>1112</ele>
        <time>2013-02-09T08:04:31Z</time>
      </trkpt>
      <trkpt lat="44.85939" lon="5.55823">
        <ele>1112</ele>
        <time>2013-02-09T08:04:36Z</time>
      </trkpt>
      <trkpt lat="44.85937" lon="5.55819">
        <ele>1113</ele>
        <time>2013-02-09T08:04:41Z</time>
      </trkpt>
      <trkpt lat="44.85934" lon="5.55813">
        <ele>1113</ele>
        <time>2013-02-09T08:04:46Z</time>
      </trkpt>
      <trkpt lat="44.8593" lon="5.55806">
        <ele>1114</ele>
        <time>2013-02-09T08:04:51Z</time>
      </trkpt>
      <trkpt lat="44.85928" lon="5.558">
        <ele>1114</ele>
        <time>2013-02-09T08:04:56Z</time>
      </trkpt>
      <trkpt lat="44.85927" lon="5.55797">
        <ele>1114</ele>
        <time>2013-02-09T08:05:01Z</time>
      </trkpt>
      <trkpt lat="44.85927" lon="5.55797">
        <ele>1114</ele>
        <time>2013-02-09T08:05:06Z</time>
      </trkpt>
      <trkpt lat="44.85927" lon="5.55794">
        <ele>1115</ele>
        <time>2013-02-09T08:05:11Z</time>
      </trkpt>
      <trkpt lat="44.85926" lon="5.55786">
        <ele>1117</ele>
        <time>2013-02-09T08:05:16Z</time>
      </trkpt>
      <trkpt lat="44.85925" lon="5.55777">
        <ele>1118</ele>
        <time>2013-02-09T08:05:21Z</time>
      </trkpt>
      <trkpt lat="44.85923" lon="5.5577">
        <ele>1118</ele>
        <time>2013-02-09T08:05:26Z</time>
      </trkpt>
      <trkpt lat="44.85923" lon="5.55769">
        <ele>1118</ele>
        <time>2013-02-09T08:05:31Z</time>
      </trkpt>
      <trkpt lat="44.85923" lon="5.55769">
        <ele>1118</ele>
        <time>2013-02-09T08:05:36Z</time>
      </trkpt>
      <trkpt lat="44.85923" lon="5.55768">
        <ele>1118</ele>
        <time>2013-02-09T08:05:41Z</time>
      </trkpt>
      <trkpt lat="44.8592" lon="5.5576">
        <ele>1118</ele>
        <time>2013-02-09T08:05:46Z</time>
      </trkpt>
      <trkpt lat="44.85917" lon="5.55752">
        <ele>1119</ele>
        <time>2013-02-09T08:05:51Z</time>
      </trkpt>
      <trkpt lat="44.85914" lon="5.55744">
        <ele>1119</ele>
        <time>2013-02-09T08:05:56Z</time>
      </trkpt>
      <trkpt lat="44.85911" lon="5.55737">
        <ele>1120</ele>
        <time>2013-02-09T08:06:01Z</time>
      </trkpt>
      <trkpt lat="44.85909" lon="5.55728">
        <ele>1121</ele>
        <time>2013-02-09T08:06:06Z</time>
      </trkpt>
      <trkpt lat="44.85907" lon="5.5572">
        <ele>1121</ele>
        <time>2013-02-09T08:06:11Z</time>
      </trkpt>
      <trkpt lat="44.85907" lon="5.5571">
        <ele>1122</ele>
        <time>2013-02-09T08:06:16Z</time>
      </trkpt>
      <trkpt lat="44.85908" lon="5.55702">
        <ele>1123</ele>
        <time>2013-02-09T08:06:21Z</time>
      </trkpt>
      <trkpt lat="44.8591" lon="5.55694">
        <ele>1123</ele>
        <time>2013-02-09T08:06:26Z</time>
      </trkpt>
      <trkpt lat="44.8591" lon="5.55687">
        <ele>1124</ele>
        <time>2013-02-09T08:06:31Z</time>
      </trkpt>
      <trkpt lat="44.85908" lon="5.55681">
        <ele>1125</ele>
        <time>2013-02-09T08:06:36Z</time>
      </trkpt>
      <trkpt lat="44.85905" lon="5.55676">
        <ele>1127</ele>
        <time>2013-02-09T08:06:41Z</time>
      </trkpt>
      <trkpt lat="44.85901" lon="5.55674">
        <ele>1128</ele>
        <time>2013-02-09T08:06:46Z</time>
      </trkpt>
      <trkpt lat="44.85899" lon="5.55673">
        <ele>1128</ele>
        <time>2013-02-09T08:06:51Z</time>
      </trkpt>
      <trkpt lat="44.85898" lon="5.55672">
        <ele>1128</ele>
        <time>2013-02-09T08:06:56Z</time>
      </trkpt>
      <trkpt lat="44.85894" lon="5.55672">
        <ele>1128</ele>
        <time>2013-02-09T08:07:01Z</time>
      </trkpt>
      <trkpt lat="44.8589" lon="5.55673">
        <ele>1129</ele>
        <time>2013-02-09T08:07:06Z</time>
      </trkpt>
      <trkpt lat="44.85886" lon="5.55676">
        <ele>1129</ele>
        <time>2013-02-09T08:07:11Z</time>
      </trkpt>
      <trkpt lat="44.85882" lon="5.55678">
        <ele>1130</ele>
        <time>2013-02-09T08:07:16Z</time>
      </trkpt>
      <trkpt lat="44.85878" lon="5.55681">
        <ele>1130</ele>
        <time>2013-02-09T08:07:21Z</time>
      </trkpt>
      <trkpt lat="44.85876" lon="5.55684">
        <ele>1131</ele>
        <time>2013-02-09T08:07:26Z</time>
      </trkpt>
      <trkpt lat="44.85873" lon="5.55687">
        <ele>1132</ele>
        <time>2013-02-09T08:07:31Z</time>
      </trkpt>
      <trkpt lat="44.85869" lon="5.55691">
        <ele>1133</ele>
        <time>2013-02-09T08:07:36Z</time>
      </trkpt>
      <trkpt lat="44.85865" lon="5.55696">
        <ele>1135</ele>
        <time>2013-02-09T08:07:41Z</time>
      </trkpt>
      <trkpt lat="44.85863" lon="5.55701">
        <ele>1135</ele>
        <time>2013-02-09T08:07:46Z</time>
      </trkpt>
      <trkpt lat="44.85861" lon="5.55707">
        <ele>1136</ele>
        <time>2013-02-09T08:07:51Z</time>
      </trkpt>
      <trkpt lat="44.85859" lon="5.55714">
        <ele>1137</ele>
        <time>2013-02-09T08:07:56Z</time>
      </trkpt>
      <trkpt lat="44.85857" lon="5.55719">
        <ele>1137</ele>
        <time>2013-02-09T08:08:01Z</time>
      </trkpt>
      <trkpt lat="44.85854" lon="5.55725">
        <ele>1138</ele>
        <time>2013-02-09T08:08:06Z</time>
      </trkpt>
      <trkpt lat="44.85853" lon="5.55732">
        <ele>1137</ele>
        <time>2013-02-09T08:08:11Z</time>
      </trkpt>
      <trkpt lat="44.85851" lon="5.55737">
        <ele>1138</ele>
        <time>2013-02-09T08:08:16Z</time>
      </trkpt>
      <trkpt lat="44.85848" lon="5.55743">
        <ele>1137</ele>
        <time>2013-02-09T08:08:21Z</time>
      </trkpt>
      <trkpt lat="44.85846" lon="5.55749">
        <ele>1137</ele>
        <time>2013-02-09T08:08:26Z</time>
      </trkpt>
      <trkpt lat="44.85843" lon="5.55754">
        <ele>1137</ele>
        <time>2013-02-09T08:08:31Z</time>
      </trkpt>
      <trkpt lat="44.85839" lon="5.55758">
        <ele>1137</ele>
        <time>2013-02-09T08:08:36Z</time>
      </trkpt>
      <trkpt lat="44.85835" lon="5.5576">
        <ele>1136</ele>
        <time>2013-02-09T08:08:41Z</time>
      </trkpt>
      <trkpt lat="44.85831" lon="5.55762">
        <ele>1136</ele>
        <time>2013-02-09T08:08:46Z</time>
      </trkpt>
      <trkpt lat="44.85827" lon="5.55762">
        <ele>1136</ele>
        <time>2013-02-09T08:08:51Z</time>
      </trkpt>
      <trkpt lat="44.85823" lon="5.55762">
        <ele>1137</ele>
        <time>2013-02-09T08:08:56Z</time>
      </trkpt>
      <trkpt lat="44.85821" lon="5.55761">
        <ele>1137</ele>
        <time>2013-02-09T08:09:01Z</time>
      </trkpt>
      <trkpt lat="44.85816" lon="5.5576">
        <ele>1137</ele>
        <time>2013-02-09T08:09:06Z</time>
      </trkpt>
      <trkpt lat="44.85812" lon="5.55757">
        <ele>1138</ele>
        <time>2013-02-09T08:09:11Z</time>
      </trkpt>
      <trkpt lat="44.85808" lon="5.55754">
        <ele>1138</ele>
        <time>2013-02-09T08:09:16Z</time>
      </trkpt>
      <trkpt lat="44.85805" lon="5.5575">
        <ele>1138</ele>
        <time>2013-02-09T08:09:21Z</time>
      </trkpt>
      <trkpt lat="44.85801" lon="5.55746">
        <ele>1139</ele>
        <time>2013-02-09T08:09:26Z</time>
      </trkpt>
      <trkpt lat="44.85799" lon="5.55742">
        <ele>1139</ele>
        <time>2013-02-09T08:09:31Z</time>
      </trkpt>
      <trkpt lat="44.85798" lon="5.55737">
        <ele>1139</ele>
        <time>2013-02-09T08:09:36Z</time>
      </trkpt>
      <trkpt lat="44.85796" lon="5.55731">
        <ele>1140</ele>
        <time>2013-02-09T08:09:41Z</time>
      </trkpt>
      <trkpt lat="44.85796" lon="5.55726">
        <ele>1140</ele>
        <time>2013-02-09T08:09:46Z</time>
      </trkpt>
      <trkpt lat="44.85795" lon="5.5572">
        <ele>1140</ele>
        <time>2013-02-09T08:09:51Z</time>
      </trkpt>
      <trkpt lat="44.85795" lon="5.55716">
        <ele>1141</ele>
        <time>2013-02-09T08:09:56Z</time>
      </trkpt>
      <trkpt lat="44.85795" lon="5.55711">
        <ele>1142</ele>
        <time>2013-02-09T08:10:01Z</time>
      </trkpt>
      <trkpt lat="44.85794" lon="5.55706">
        <ele>1142</ele>
        <time>2013-02-09T08:10:06Z</time>
      </trkpt>
      <trkpt lat="44.85793" lon="5.55701">
        <ele>1143</ele>
        <time>2013-02-09T08:10:11Z</time>
      </trkpt>
      <trkpt lat="44.85793" lon="5.55696">
        <ele>1143</ele>
        <time>2013-02-09T08:10:16Z</time>
      </trkpt>
      <trkpt lat="44.85792" lon="5.55691">
        <ele>1144</ele>
        <time>2013-02-09T08:10:21Z</time>
      </trkpt>
      <trkpt lat="44.85791" lon="5.55688">
        <ele>1144</ele>
        <time>2013-02-09T08:10:26Z</time>
      </trkpt>
      <trkpt lat="44.8579" lon="5.55684">
        <ele>1144</ele>
        <time>2013-02-09T08:10:31Z</time>
      </trkpt>
      <trkpt lat="44.85789" lon="5.55679">
        <ele>1145</ele>
        <time>2013-02-09T08:10:36Z</time>
      </trkpt>
      <trkpt lat="44.85787" lon="5.55675">
        <ele>1146</ele>
        <time>2013-02-09T08:10:41Z</time>
      </trkpt>
      <trkpt lat="44.85785" lon="5.5567">
        <ele>1146</ele>
        <time>2013-02-09T08:10:46Z</time>
      </trkpt>
      <trkpt lat="44.85783" lon="5.55665">
        <ele>1146</ele>
        <time>2013-02-09T08:10:51Z</time>
      </trkpt>
      <trkpt lat="44.8578" lon="5.5566">
        <ele>1147</ele>
        <time>2013-02-09T08:10:56Z</time>
      </trkpt>
      <trkpt lat="44.85778" lon="5.55655">
        <ele>1147</ele>
        <time>2013-02-09T08:11:01Z</time>
      </trkpt>
      <trkpt lat="44.85776" lon="5.5565">
        <ele>1148</ele>
        <time>2013-02-09T08:11:06Z</time>
      </trkpt>
      <trkpt lat="44.85773" lon="5.55644">
        <ele>1149</ele>
        <time>2013-02-09T08:11:11Z</time>
      </trkpt>
      <trkpt lat="44.85771" lon="5.55639">
        <ele>1150</ele>
        <time>2013-02-09T08:11:16Z</time>
      </trkpt>
      <trkpt lat="44.85769" lon="5.55634">
        <ele>1150</ele>
        <time>2013-02-09T08:11:21Z</time>
      </trkpt>
      <trkpt lat="44.85767" lon="5.55628">
        <ele>1151</ele>
        <time>2013-02-09T08:11:26Z</time>
      </trkpt>
      <trkpt lat="44.85765" lon="5.55623">
        <ele>1152</ele>
        <time>2013-02-09T08:11:31Z</time>
      </trkpt>
      <trkpt lat="44.85763" lon="5.55618">
        <ele>1153</ele>
        <time>2013-02-09T08:11:36Z</time>
      </trkpt>
      <trkpt lat="44.85761" lon="5.55612">
        <ele>1153</ele>
        <time>2013-02-09T08:11:41Z</time>
      </trkpt>
      <trkpt lat="44.85759" lon="5.55606">
        <ele>1153</ele>
        <time>2013-02-09T08:11:46Z</time>
      </trkpt>
      <trkpt lat="44.85757" lon="5.556">
        <ele>1154</ele>
        <time>2013-02-09T08:11:51Z</time>
      </trkpt>
      <trkpt lat="44.85755" lon="5.55595">
        <ele>1154</ele>
        <time>2013-02-09T08:11:56Z</time>
      </trkpt>
      <trkpt lat="44.85753" lon="5.55589">
        <ele>1154</ele>
        <time>2013-02-09T08:12:01Z</time>
      </trkpt>
      <trkpt lat="44.85752" lon="5.55584">
        <ele>1155</ele>
        <time>2013-02-09T08:12:06Z</time>
      </trkpt>
      <trkpt lat="44.85751" lon="5.55579">
        <ele>1155</ele>
        <time>2013-02-09T08:12:11Z</time>
      </trkpt>
      <trkpt lat="44.85749" lon="5.55574">
        <ele>1155</ele>
        <time>2013-02-09T08:12:16Z</time>
      </trkpt>
      <trkpt lat="44.85748" lon="5.55568">
        <ele>1156</ele>
        <time>2013-02-09T08:12:21Z</time>
      </trkpt>
      <trkpt lat="44.85746" lon="5.55563">
        <ele>1156</ele>
        <time>2013-02-09T08:12:26Z</time>
      </trkpt>
      <trkpt lat="44.85745" lon="5.55557">
        <ele>1157</ele>
        <time>2013-02-09T08:12:31Z</time>
      </trkpt>
      <trkpt lat="44.85744" lon="5.55552">
        <ele>1158</ele>
        <time>2013-02-09T08:12:36Z</time>
      </trkpt>
      <trkpt lat="44.85743" lon="5.55546">
        <ele>1158</ele>
        <time>2013-02-09T08:12:41Z</time>
      </trkpt>
      <trkpt lat="44.85742" lon="5.5554">
        <ele>1158</ele>
        <time>2013-02-09T08:12:46Z</time>
      </trkpt>
      <trkpt lat="44.85741" lon="5.55539">
        <ele>1158</ele>
        <time>2013-02-09T08:12:51Z</time>
      </trkpt>
      <trkpt lat="44.85741" lon="5.55539">
        <ele>1158</ele>
        <time>2013-02-09T08:12:56Z</time>
      </trkpt>
      <trkpt lat="44.85742" lon="5.55538">
        <ele>1158</ele>
        <time>2013-02-09T08:13:01Z</time>
      </trkpt>
      <trkpt lat="44.85741" lon="5.55538">
        <ele>1157</ele>
        <time>2013-02-09T08:13:06Z</time>
      </trkpt>
      <trkpt lat="44.8574" lon="5.55532">
        <ele>1158</ele>
        <time>2013-02-09T08:13:11Z</time>
      </trkpt>
      <trkpt lat="44.8574" lon="5.55524">
        <ele>1159</ele>
        <time>2013-02-09T08:13:16Z</time>
      </trkpt>
      <trkpt lat="44.8574" lon="5.55516">
        <ele>1160</ele>
        <time>2013-02-09T08:13:21Z</time>
      </trkpt>
      <trkpt lat="44.85739" lon="5.55508">
        <ele>1161</ele>
        <time>2013-02-09T08:13:26Z</time>
      </trkpt>
      <trkpt lat="44.85738" lon="5.555">
        <ele>1162</ele>
        <time>2013-02-09T08:13:31Z</time>
      </trkpt>
      <trkpt lat="44.85738" lon="5.55492">
        <ele>1163</ele>
        <time>2013-02-09T08:13:36Z</time>
      </trkpt>
      <trkpt lat="44.85737" lon="5.55484">
        <ele>1163</ele>
        <time>2013-02-09T08:13:41Z</time>
      </trkpt>
      <trkpt lat="44.85737" lon="5.55478">
        <ele>1163</ele>
        <time>2013-02-09T08:13:46Z</time>
      </trkpt>
      <trkpt lat="44.85735" lon="5.55472">
        <ele>1164</ele>
        <time>2013-02-09T08:13:51Z</time>
      </trkpt>
      <trkpt lat="44.85733" lon="5.55466">
        <ele>1164</ele>
        <time>2013-02-09T08:13:56Z</time>
      </trkpt>
      <trkpt lat="44.85731" lon="5.55461">
        <ele>1165</ele>
        <time>2013-02-09T08:14:01Z</time>
      </trkpt>
      <trkpt lat="44.85729" lon="5.55456">
        <ele>1165</ele>
        <time>2013-02-09T08:14:06Z</time>
      </trkpt>
      <trkpt lat="44.85726" lon="5.55452">
        <ele>1166</ele>
        <time>2013-02-09T08:14:11Z</time>
      </trkpt>
      <trkpt lat="44.85724" lon="5.55448">
        <ele>1166</ele>
        <time>2013-02-09T08:14:16Z</time>
      </trkpt>
      <trkpt lat="44.85721" lon="5.55444">
        <ele>1167</ele>
        <time>2013-02-09T08:14:21Z</time>
      </trkpt>
      <trkpt lat="44.85718" lon="5.5544">
        <ele>1167</ele>
        <time>2013-02-09T08:14:26Z</time>
      </trkpt>
      <trkpt lat="44.85715" lon="5.55436">
        <ele>1168</ele>
        <time>2013-02-09T08:14:31Z</time>
      </trkpt>
      <trkpt lat="44.85712" lon="5.55433">
        <ele>1169</ele>
        <time>2013-02-09T08:14:36Z</time>
      </trkpt>
      <trkpt lat="44.85709" lon="5.55429">
        <ele>1169</ele>
        <time>2013-02-09T08:14:41Z</time>
      </trkpt>
      <trkpt lat="44.85706" lon="5.55426">
        <ele>1170</ele>
        <time>2013-02-09T08:14:46Z</time>
      </trkpt>
      <trkpt lat="44.85703" lon="5.55422">
        <ele>1171</ele>
        <time>2013-02-09T08:14:51Z</time>
      </trkpt>
      <trkpt lat="44.857" lon="5.55419">
        <ele>1171</ele>
        <time>2013-02-09T08:14:56Z</time>
      </trkpt>
      <trkpt lat="44.85697" lon="5.55415">
        <ele>1172</ele>
        <time>2013-02-09T08:15:01Z</time>
      </trkpt>
      <trkpt lat="44.85693" lon="5.55412">
        <ele>1173</ele>
        <time>2013-02-09T08:15:06Z</time>
      </trkpt>
      <trkpt lat="44.8569" lon="5.55408">
        <ele>1173</ele>
        <time>2013-02-09T08:15:11Z</time>
      </trkpt>
      <trkpt lat="44.85687" lon="5.55405">
        <ele>1174</ele>
        <time>2013-02-09T08:15:16Z</time>
      </trkpt>
      <trkpt lat="44.85684" lon="5.55401">
        <ele>1175</ele>
        <time>2013-02-09T08:15:21Z</time>
      </trkpt>
      <trkpt lat="44.85682" lon="5.55396">
        <ele>1176</ele>
        <time>2013-02-09T08:15:26Z</time>
      </trkpt>
      <trkpt lat="44.85679" lon="5.55392">
        <ele>1176</ele>
        <time>2013-02-09T08:15:31Z</time>
      </trkpt>
      <trkpt lat="44.85677" lon="5.55387">
        <ele>1177</ele>
        <time>2013-02-09T08:15:36Z</time>
      </trkpt>
      <trkpt lat="44.85674" lon="5.55383">
        <ele>1178</ele>
        <time>2013-02-09T08:15:41Z</time>
      </trkpt>
      <trkpt lat="44.85672" lon="5.5538">
        <ele>1178</ele>
        <time>2013-02-09T08:15:46Z</time>
      </trkpt>
      <trkpt lat="44.8567" lon="5.55376">
        <ele>1179</ele>
        <time>2013-02-09T08:15:51Z</time>
      </trkpt>
      <trkpt lat="44.85668" lon="5.55372">
        <ele>1180</ele>
        <time>2013-02-09T08:15:56Z</time>
      </trkpt>
      <trkpt lat="44.85666" lon="5.55367">
        <ele>1180</ele>
        <time>2013-02-09T08:16:01Z</time>
      </trkpt>
      <trkpt lat="44.85664" lon="5.55363">
        <ele>1181</ele>
        <time>2013-02-09T08:16:06Z</time>
      </trkpt>
      <trkpt lat="44.85662" lon="5.5536">
        <ele>1181</ele>
        <time>2013-02-09T08:16:11Z</time>
      </trkpt>
      <trkpt lat="44.8566" lon="5.55356">
        <ele>1182</ele>
        <time>2013-02-09T08:16:16Z</time>
      </trkpt>
      <trkpt lat="44.85658" lon="5.55352">
        <ele>1183</ele>
        <time>2013-02-09T08:16:21Z</time>
      </trkpt>
      <trkpt lat="44.85656" lon="5.55348">
        <ele>1183</ele>
        <time>2013-02-09T08:16:26Z</time>
      </trkpt>
      <trkpt lat="44.85653" lon="5.55344">
        <ele>1184</ele>
        <time>2013-02-09T08:16:31Z</time>
      </trkpt>
      <trkpt lat="44.85651" lon="5.55339">
        <ele>1185</ele>
        <time>2013-02-09T08:16:36Z</time>
      </trkpt>
      <trkpt lat="44.85649" lon="5.55334">
        <ele>1186</ele>
        <time>2013-02-09T08:16:41Z</time>
      </trkpt>
      <trkpt lat="44.85647" lon="5.5533">
        <ele>1186</ele>
        <time>2013-02-09T08:16:46Z</time>
      </trkpt>
      <trkpt lat="44.85645" lon="5.55325">
        <ele>1187</ele>
        <time>2013-02-09T08:16:51Z</time>
      </trkpt>
      <trkpt lat="44.85643" lon="5.5532">
        <ele>1187</ele>
        <time>2013-02-09T08:16:56Z</time>
      </trkpt>
      <trkpt lat="44.85642" lon="5.55315">
        <ele>1188</ele>
        <time>2013-02-09T08:17:01Z</time>
      </trkpt>
      <trkpt lat="44.85641" lon="5.5531">
        <ele>1189</ele>
        <time>2013-02-09T08:17:06Z</time>
      </trkpt>
      <trkpt lat="44.85639" lon="5.55305">
        <ele>1190</ele>
        <time>2013-02-09T08:17:11Z</time>
      </trkpt>
      <trkpt lat="44.85637" lon="5.553">
        <ele>1190</ele>
        <time>2013-02-09T08:17:16Z</time>
      </trkpt>
      <trkpt lat="44.85635" lon="5.55295">
        <ele>1191</ele>
        <time>2013-02-09T08:17:21Z</time>
      </trkpt>
      <trkpt lat="44.85633" lon="5.5529">
        <ele>1191</ele>
        <time>2013-02-09T08:17:26Z</time>
      </trkpt>
      <trkpt lat="44.85631" lon="5.55284">
        <ele>1192</ele>
        <time>2013-02-09T08:17:31Z</time>
      </trkpt>
      <trkpt lat="44.85629" lon="5.5528">
        <ele>1192</ele>
        <time>2013-02-09T08:17:36Z</time>
      </trkpt>
      <trkpt lat="44.85628" lon="5.55274">
        <ele>1193</ele>
        <time>2013-02-09T08:17:41Z</time>
      </trkpt>
      <trkpt lat="44.85626" lon="5.5527">
        <ele>1193</ele>
        <time>2013-02-09T08:17:46Z</time>
      </trkpt>
      <trkpt lat="44.85624" lon="5.55264">
        <ele>1194</ele>
        <time>2013-02-09T08:17:51Z</time>
      </trkpt>
      <trkpt lat="44.85622" lon="5.55259">
        <ele>1194</ele>
        <time>2013-02-09T08:17:56Z</time>
      </trkpt>
      <trkpt lat="44.85621" lon="5.55254">
        <ele>1195</ele>
        <time>2013-02-09T08:18:01Z</time>
      </trkpt>
      <trkpt lat="44.85619" lon="5.55249">
        <ele>1195</ele>
        <time>2013-02-09T08:18:06Z</time>
      </trkpt>
      <trkpt lat="44.85618" lon="5.55243">
        <ele>1195</ele>
        <time>2013-02-09T08:18:11Z</time>
      </trkpt>
      <trkpt lat="44.85616" lon="5.55238">
        <ele>1195</ele>
        <time>2013-02-09T08:18:16Z</time>
      </trkpt>
      <trkpt lat="44.85615" lon="5.55232">
        <ele>1196</ele>
        <time>2013-02-09T08:18:21Z</time>
      </trkpt>
      <trkpt lat="44.85613" lon="5.55227">
        <ele>1196</ele>
        <time>2013-02-09T08:18:26Z</time>
      </trkpt>
      <trkpt lat="44.85612" lon="5.55222">
        <ele>1196</ele>
        <time>2013-02-09T08:18:31Z</time>
      </trkpt>
      <trkpt lat="44.85611" lon="5.55216">
        <ele>1197</ele>
        <time>2013-02-09T08:18:36Z</time>
      </trkpt>
      <trkpt lat="44.8561" lon="5.55211">
        <ele>1197</ele>
        <time>2013-02-09T08:18:41Z</time>
      </trkpt>
      <trkpt lat="44.8561" lon="5.55206">
        <ele>1198</ele>
        <time>2013-02-09T08:18:46Z</time>
      </trkpt>
      <trkpt lat="44.8561" lon="5.55201">
        <ele>1198</ele>
        <time>2013-02-09T08:18:51Z</time>
      </trkpt>
      <trkpt lat="44.8561" lon="5.55196">
        <ele>1199</ele>
        <time>2013-02-09T08:18:56Z</time>
      </trkpt>
      <trkpt lat="44.8561" lon="5.55191">
        <ele>1200</ele>
        <time>2013-02-09T08:19:01Z</time>
      </trkpt>
      <trkpt lat="44.8561" lon="5.55185">
        <ele>1200</ele>
        <time>2013-02-09T08:19:06Z</time>
      </trkpt>
      <trkpt lat="44.85611" lon="5.5518">
        <ele>1201</ele>
        <time>2013-02-09T08:19:11Z</time>
      </trkpt>
      <trkpt lat="44.85612" lon="5.55175">
        <ele>1202</ele>
        <time>2013-02-09T08:19:16Z</time>
      </trkpt>
      <trkpt lat="44.85613" lon="5.55171">
        <ele>1205</ele>
        <time>2013-02-09T08:19:21Z</time>
      </trkpt>
      <trkpt lat="44.85613" lon="5.55165">
        <ele>1206</ele>
        <time>2013-02-09T08:19:26Z</time>
      </trkpt>
      <trkpt lat="44.85613" lon="5.55159">
        <ele>1206</ele>
        <time>2013-02-09T08:19:31Z</time>
      </trkpt>
      <trkpt lat="44.85613" lon="5.55153">
        <ele>1206</ele>
        <time>2013-02-09T08:19:36Z</time>
      </trkpt>
      <trkpt lat="44.85614" lon="5.55147">
        <ele>1206</ele>
        <time>2013-02-09T08:19:41Z</time>
      </trkpt>
      <trkpt lat="44.85614" lon="5.55142">
        <ele>1207</ele>
        <time>2013-02-09T08:19:46Z</time>
      </trkpt>
      <trkpt lat="44.85613" lon="5.55136">
        <ele>1207</ele>
        <time>2013-02-09T08:19:51Z</time>
      </trkpt>
      <trkpt lat="44.85613" lon="5.5513">
        <ele>1209</ele>
        <time>2013-02-09T08:19:56Z</time>
      </trkpt>
      <trkpt lat="44.85613" lon="5.55124">
        <ele>1209</ele>
        <time>2013-02-09T08:20:01Z</time>
      </trkpt>
      <trkpt lat="44.85613" lon="5.55117">
        <ele>1209</ele>
        <time>2013-02-09T08:20:06Z</time>
      </trkpt>
      <trkpt lat="44.85613" lon="5.55111">
        <ele>1209</ele>
        <time>2013-02-09T08:20:11Z</time>
      </trkpt>
      <trkpt lat="44.85613" lon="5.55106">
        <ele>1212</ele>
        <time>2013-02-09T08:20:16Z</time>
      </trkpt>
      <trkpt lat="44.85613" lon="5.55101">
        <ele>1213</ele>
        <time>2013-02-09T08:20:21Z</time>
      </trkpt>
      <trkpt lat="44.85613" lon="5.55095">
        <ele>1215</ele>
        <time>2013-02-09T08:20:26Z</time>
      </trkpt>
      <trkpt lat="44.85613" lon="5.55088">
        <ele>1214</ele>
        <time>2013-02-09T08:20:31Z</time>
      </trkpt>
      <trkpt lat="44.85612" lon="5.55081">
        <ele>1214</ele>
        <time>2013-02-09T08:20:36Z</time>
      </trkpt>
      <trkpt lat="44.85612" lon="5.55074">
        <ele>1213</ele>
        <time>2013-02-09T08:20:41Z</time>
      </trkpt>
      <trkpt lat="44.85612" lon="5.55068">
        <ele>1214</ele>
        <time>2013-02-09T08:20:46Z</time>
      </trkpt>
      <trkpt lat="44.85613" lon="5.55061">
        <ele>1215</ele>
        <time>2013-02-09T08:20:51Z</time>
      </trkpt>
      <trkpt lat="44.85613" lon="5.55056">
        <ele>1216</ele>
        <time>2013-02-09T08:20:56Z</time>
      </trkpt>
      <trkpt lat="44.85612" lon="5.5505">
        <ele>1217</ele>
        <time>2013-02-09T08:21:01Z</time>
      </trkpt>
      <trkpt lat="44.85612" lon="5.55043">
        <ele>1216</ele>
        <time>2013-02-09T08:21:06Z</time>
      </trkpt>
      <trkpt lat="44.85611" lon="5.55036">
        <ele>1216</ele>
        <time>2013-02-09T08:21:11Z</time>
      </trkpt>
      <trkpt lat="44.85612" lon="5.55029">
        <ele>1215</ele>
        <time>2013-02-09T08:21:16Z</time>
      </trkpt>
      <trkpt lat="44.85612" lon="5.55022">
        <ele>1215</ele>
        <time>2013-02-09T08:21:21Z</time>
      </trkpt>
      <trkpt lat="44.85611" lon="5.55016">
        <ele>1215</ele>
        <time>2013-02-09T08:21:26Z</time>
      </trkpt>
      <trkpt lat="44.85611" lon="5.5501">
        <ele>1215</ele>
        <time>2013-02-09T08:21:31Z</time>
      </trkpt>
      <trkpt lat="44.85611" lon="5.55003">
        <ele>1215</ele>
        <time>2013-02-09T08:21:36Z</time>
      </trkpt>
      <trkpt lat="44.85611" lon="5.54997">
        <ele>1215</ele>
        <time>2013-02-09T08:21:41Z</time>
      </trkpt>
      <trkpt lat="44.8561" lon="5.5499">
        <ele>1216</ele>
        <time>2013-02-09T08:21:46Z</time>
      </trkpt>
      <trkpt lat="44.8561" lon="5.54983">
        <ele>1216</ele>
        <time>2013-02-09T08:21:51Z</time>
      </trkpt>
      <trkpt lat="44.8561" lon="5.54976">
        <ele>1216</ele>
        <time>2013-02-09T08:21:56Z</time>
      </trkpt>
      <trkpt lat="44.85609" lon="5.54968">
        <ele>1216</ele>
        <time>2013-02-09T08:22:01Z</time>
      </trkpt>
      <trkpt lat="44.85609" lon="5.54962">
        <ele>1216</ele>
        <time>2013-02-09T08:22:06Z</time>
      </trkpt>
      <trkpt lat="44.85609" lon="5.54955">
        <ele>1217</ele>
        <time>2013-02-09T08:22:11Z</time>
      </trkpt>
      <trkpt lat="44.85608" lon="5.54948">
        <ele>1218</ele>
        <time>2013-02-09T08:22:16Z</time>
      </trkpt>
      <trkpt lat="44.85608" lon="5.54942">
        <ele>1220</ele>
        <time>2013-02-09T08:22:21Z</time>
      </trkpt>
      <trkpt lat="44.85609" lon="5.54935">
        <ele>1219</ele>
        <time>2013-02-09T08:22:26Z</time>
      </trkpt>
      <trkpt lat="44.8561" lon="5.54928">
        <ele>1220</ele>
        <time>2013-02-09T08:22:31Z</time>
      </trkpt>
      <trkpt lat="44.8561" lon="5.54922">
        <ele>1220</ele>
        <time>2013-02-09T08:22:36Z</time>
      </trkpt>
      <trkpt lat="44.8561" lon="5.54916">
        <ele>1221</ele>
        <time>2013-02-09T08:22:41Z</time>
      </trkpt>
      <trkpt lat="44.8561" lon="5.54909">
        <ele>1220</ele>
        <time>2013-02-09T08:22:46Z</time>
      </trkpt>
      <trkpt lat="44.85609" lon="5.54903">
        <ele>1221</ele>
        <time>2013-02-09T08:22:51Z</time>
      </trkpt>
      <trkpt lat="44.85608" lon="5.54897">
        <ele>1221</ele>
        <time>2013-02-09T08:22:56Z</time>
      </trkpt>
      <trkpt lat="44.85608" lon="5.5489">
        <ele>1221</ele>
        <time>2013-02-09T08:23:01Z</time>
      </trkpt>
      <trkpt lat="44.85606" lon="5.54883">
        <ele>1220</ele>
        <time>2013-02-09T08:23:06Z</time>
      </trkpt>
      <trkpt lat="44.85605" lon="5.54877">
        <ele>1220</ele>
        <time>2013-02-09T08:23:11Z</time>
      </trkpt>
      <trkpt lat="44.85602" lon="5.54871">
        <ele>1220</ele>
        <time>2013-02-09T08:23:16Z</time>
      </trkpt>
      <trkpt lat="44.856" lon="5.54867">
        <ele>1220</ele>
        <time>2013-02-09T08:23:21Z</time>
      </trkpt>
      <trkpt lat="44.85597" lon="5.54864">
        <ele>1219</ele>
        <time>2013-02-09T08:23:26Z</time>
      </trkpt>
      <trkpt lat="44.85594" lon="5.54861">
        <ele>1219</ele>
        <time>2013-02-09T08:23:31Z</time>
      </trkpt>
      <trkpt lat="44.85591" lon="5.54857">
        <ele>1219</ele>
        <time>2013-02-09T08:23:36Z</time>
      </trkpt>
      <trkpt lat="44.8559" lon="5.54852">
        <ele>1219</ele>
        <time>2013-02-09T08:23:41Z</time>
      </trkpt>
      <trkpt lat="44.85591" lon="5.54844">
        <ele>1220</ele>
        <time>2013-02-09T08:23:51Z</time>
      </trkpt>
      <trkpt lat="44.8559" lon="5.54844">
        <ele>1220</ele>
        <time>2013-02-09T08:23:56Z</time>
      </trkpt>
      <trkpt lat="44.8559" lon="5.54844">
        <ele>1220</ele>
        <time>2013-02-09T08:24:01Z</time>
      </trkpt>
      <trkpt lat="44.8559" lon="5.54843">
        <ele>1220</ele>
        <time>2013-02-09T08:24:06Z</time>
      </trkpt>
      <trkpt lat="44.8559" lon="5.54843">
        <ele>1219</ele>
        <time>2013-02-09T08:24:11Z</time>
      </trkpt>
      <trkpt lat="44.8559" lon="5.54842">
        <ele>1218</ele>
        <time>2013-02-09T08:24:16Z</time>
      </trkpt>
      <trkpt lat="44.85589" lon="5.54836">
        <ele>1218</ele>
        <time>2013-02-09T08:24:21Z</time>
      </trkpt>
      <trkpt lat="44.85589" lon="5.54829">
        <ele>1218</ele>
        <time>2013-02-09T08:24:26Z</time>
      </trkpt>
      <trkpt lat="44.85587" lon="5.54823">
        <ele>1219</ele>
        <time>2013-02-09T08:24:31Z</time>
      </trkpt>
      <trkpt lat="44.85587" lon="5.54815">
        <ele>1219</ele>
        <time>2013-02-09T08:24:36Z</time>
      </trkpt>
      <trkpt lat="44.85587" lon="5.54808">
        <ele>1219</ele>
        <time>2013-02-09T08:24:41Z</time>
      </trkpt>
      <trkpt lat="44.85585" lon="5.548">
        <ele>1219</ele>
        <time>2013-02-09T08:24:46Z</time>
      </trkpt>
      <trkpt lat="44.85583" lon="5.54793">
        <ele>1219</ele>
        <time>2013-02-09T08:24:51Z</time>
      </trkpt>
      <trkpt lat="44.85581" lon="5.54786">
        <ele>1220</ele>
        <time>2013-02-09T08:24:56Z</time>
      </trkpt>
      <trkpt lat="44.85579" lon="5.54778">
        <ele>1220</ele>
        <time>2013-02-09T08:25:01Z</time>
      </trkpt>
      <trkpt lat="44.85577" lon="5.54771">
        <ele>1220</ele>
        <time>2013-02-09T08:25:06Z</time>
      </trkpt>
      <trkpt lat="44.85575" lon="5.54765">
        <ele>1221</ele>
        <time>2013-02-09T08:25:11Z</time>
      </trkpt>
      <trkpt lat="44.85573" lon="5.54758">
        <ele>1221</ele>
        <time>2013-02-09T08:25:16Z</time>
      </trkpt>
      <trkpt lat="44.85571" lon="5.54752">
        <ele>1222</ele>
        <time>2013-02-09T08:25:21Z</time>
      </trkpt>
      <trkpt lat="44.85569" lon="5.54745">
        <ele>1222</ele>
        <time>2013-02-09T08:25:26Z</time>
      </trkpt>
      <trkpt lat="44.85567" lon="5.54738">
        <ele>1223</ele>
        <time>2013-02-09T08:25:31Z</time>
      </trkpt>
      <trkpt lat="44.85566" lon="5.54729">
        <ele>1224</ele>
        <time>2013-02-09T08:25:36Z</time>
      </trkpt>
      <trkpt lat="44.85567" lon="5.5472">
        <ele>1225</ele>
        <time>2013-02-09T08:25:41Z</time>
      </trkpt>
      <trkpt lat="44.85566" lon="5.5471">
        <ele>1223</ele>
        <time>2013-02-09T08:25:46Z</time>
      </trkpt>
      <trkpt lat="44.85563" lon="5.54703">
        <ele>1223</ele>
        <time>2013-02-09T08:25:51Z</time>
      </trkpt>
      <trkpt lat="44.8556" lon="5.54697">
        <ele>1222</ele>
        <time>2013-02-09T08:25:56Z</time>
      </trkpt>
      <trkpt lat="44.85558" lon="5.54694">
        <ele>1221</ele>
        <time>2013-02-09T08:26:01Z</time>
      </trkpt>
      <trkpt lat="44.85558" lon="5.54693">
        <ele>1221</ele>
        <time>2013-02-09T08:26:06Z</time>
      </trkpt>
      <trkpt lat="44.85559" lon="5.54692">
        <ele>1221</ele>
        <time>2013-02-09T08:26:11Z</time>
      </trkpt>
      <trkpt lat="44.85559" lon="5.54691">
        <ele>1220</ele>
        <time>2013-02-09T08:26:16Z</time>
      </trkpt>
      <trkpt lat="44.85559" lon="5.54691">
        <ele>1221</ele>
        <time>2013-02-09T08:26:21Z</time>
      </trkpt>
      <trkpt lat="44.85559" lon="5.54691">
        <ele>1220</ele>
        <time>2013-02-09T08:26:26Z</time>
      </trkpt>
      <trkpt lat="44.85558" lon="5.5469">
        <ele>1220</ele>
        <time>2013-02-09T08:26:31Z</time>
      </trkpt>
      <trkpt lat="44.85556" lon="5.54687">
        <ele>1221</ele>
        <time>2013-02-09T08:26:36Z</time>
      </trkpt>
      <trkpt lat="44.85555" lon="5.54684">
        <ele>1220</ele>
        <time>2013-02-09T08:26:41Z</time>
      </trkpt>
      <trkpt lat="44.85553" lon="5.54682">
        <ele>1220</ele>
        <time>2013-02-09T08:26:46Z</time>
      </trkpt>
      <trkpt lat="44.85548" lon="5.54681">
        <ele>1225</ele>
        <time>2013-02-09T08:28:26Z</time>
      </trkpt>
      <trkpt lat="44.85548" lon="5.54679">
        <ele>1226</ele>
        <time>2013-02-09T08:28:31Z</time>
      </trkpt>
      <trkpt lat="44.85548" lon="5.54676">
        <ele>1226</ele>
        <time>2013-02-09T08:28:36Z</time>
      </trkpt>
      <trkpt lat="44.85548" lon="5.54671">
        <ele>1226</ele>
        <time>2013-02-09T08:28:41Z</time>
      </trkpt>
      <trkpt lat="44.85548" lon="5.54664">
        <ele>1227</ele>
        <time>2013-02-09T08:28:46Z</time>
      </trkpt>
      <trkpt lat="44.85548" lon="5.54658">
        <ele>1227</ele>
        <time>2013-02-09T08:28:51Z</time>
      </trkpt>
      <trkpt lat="44.85549" lon="5.54656">
        <ele>1227</ele>
        <time>2013-02-09T08:28:56Z</time>
      </trkpt>
      <trkpt lat="44.85549" lon="5.54651">
        <ele>1228</ele>
        <time>2013-02-09T08:29:01Z</time>
      </trkpt>
      <trkpt lat="44.85549" lon="5.54651">
        <ele>1228</ele>
        <time>2013-02-09T08:29:06Z</time>
      </trkpt>
      <trkpt lat="44.85549" lon="5.54651">
        <ele>1228</ele>
        <time>2013-02-09T08:29:11Z</time>
      </trkpt>
      <trkpt lat="44.85549" lon="5.54651">
        <ele>1229</ele>
        <time>2013-02-09T08:29:16Z</time>
      </trkpt>
      <trkpt lat="44.85549" lon="5.54651">
        <ele>1229</ele>
        <time>2013-02-09T08:29:21Z</time>
      </trkpt>
      <trkpt lat="44.85549" lon="5.54646">
        <ele>1231</ele>
        <time>2013-02-09T08:29:26Z</time>
      </trkpt>
      <trkpt lat="44.8555" lon="5.54639">
        <ele>1230</ele>
        <time>2013-02-09T08:29:31Z</time>
      </trkpt>
      <trkpt lat="44.8555" lon="5.54634">
        <ele>1229</ele>
        <time>2013-02-09T08:29:36Z</time>
      </trkpt>
      <trkpt lat="44.85548" lon="5.54629">
        <ele>1229</ele>
        <time>2013-02-09T08:29:41Z</time>
      </trkpt>
      <trkpt lat="44.85545" lon="5.54623">
        <ele>1229</ele>
        <time>2013-02-09T08:29:46Z</time>
      </trkpt>
      <trkpt lat="44.85544" lon="5.54617">
        <ele>1230</ele>
        <time>2013-02-09T08:29:51Z</time>
      </trkpt>
      <trkpt lat="44.85542" lon="5.54611">
        <ele>1230</ele>
        <time>2013-02-09T08:29:56Z</time>
      </trkpt>
      <trkpt lat="44.8554" lon="5.54605">
        <ele>1231</ele>
        <time>2013-02-09T08:30:01Z</time>
      </trkpt>
      <trkpt lat="44.85538" lon="5.54599">
        <ele>1231</ele>
        <time>2013-02-09T08:30:06Z</time>
      </trkpt>
      <trkpt lat="44.85536" lon="5.54593">
        <ele>1232</ele>
        <time>2013-02-09T08:30:11Z</time>
      </trkpt>
      <trkpt lat="44.85533" lon="5.54588">
        <ele>1233</ele>
        <time>2013-02-09T08:30:16Z</time>
      </trkpt>
      <trkpt lat="44.85529" lon="5.54583">
        <ele>1233</ele>
        <time>2013-02-09T08:30:21Z</time>
      </trkpt>
      <trkpt lat="44.85528" lon="5.54577">
        <ele>1234</ele>
        <time>2013-02-09T08:30:26Z</time>
      </trkpt>
      <trkpt lat="44.85528" lon="5.54573">
        <ele>1235</ele>
        <time>2013-02-09T08:30:31Z</time>
      </trkpt>
      <trkpt lat="44.85528" lon="5.54567">
        <ele>1235</ele>
        <time>2013-02-09T08:30:36Z</time>
      </trkpt>
      <trkpt lat="44.85527" lon="5.54561">
        <ele>1236</ele>
        <time>2013-02-09T08:30:41Z</time>
      </trkpt>
      <trkpt lat="44.85526" lon="5.54555">
        <ele>1237</ele>
        <time>2013-02-09T08:30:46Z</time>
      </trkpt>
      <trkpt lat="44.85525" lon="5.54549">
        <ele>1237</ele>
        <time>2013-02-09T08:30:51Z</time>
      </trkpt>
      <trkpt lat="44.85525" lon="5.54544">
        <ele>1238</ele>
        <time>2013-02-09T08:30:56Z</time>
      </trkpt>
      <trkpt lat="44.85524" lon="5.54539">
        <ele>1239</ele>
        <time>2013-02-09T08:31:01Z</time>
      </trkpt>
      <trkpt lat="44.85524" lon="5.54533">
        <ele>1239</ele>
        <time>2013-02-09T08:31:06Z</time>
      </trkpt>
      <trkpt lat="44.85523" lon="5.54528">
        <ele>1240</ele>
        <time>2013-02-09T08:31:11Z</time>
      </trkpt>
      <trkpt lat="44.85524" lon="5.54521">
        <ele>1241</ele>
        <time>2013-02-09T08:31:16Z</time>
      </trkpt>
      <trkpt lat="44.85525" lon="5.54515">
        <ele>1241</ele>
        <time>2013-02-09T08:31:21Z</time>
      </trkpt>
      <trkpt lat="44.85526" lon="5.5451">
        <ele>1241</ele>
        <time>2013-02-09T08:31:26Z</time>
      </trkpt>
      <trkpt lat="44.85527" lon="5.54504">
        <ele>1242</ele>
        <time>2013-02-09T08:31:31Z</time>
      </trkpt>
      <trkpt lat="44.85528" lon="5.54498">
        <ele>1243</ele>
        <time>2013-02-09T08:31:36Z</time>
      </trkpt>
      <trkpt lat="44.85528" lon="5.54493">
        <ele>1244</ele>
        <time>2013-02-09T08:31:41Z</time>
      </trkpt>
      <trkpt lat="44.85527" lon="5.54489">
        <ele>1244</ele>
        <time>2013-02-09T08:31:46Z</time>
      </trkpt>
      <trkpt lat="44.85525" lon="5.54484">
        <ele>1245</ele>
        <time>2013-02-09T08:31:51Z</time>
      </trkpt>
      <trkpt lat="44.85524" lon="5.5448">
        <ele>1246</ele>
        <time>2013-02-09T08:31:56Z</time>
      </trkpt>
      <trkpt lat="44.85524" lon="5.54474">
        <ele>1246</ele>
        <time>2013-02-09T08:32:01Z</time>
      </trkpt>
      <trkpt lat="44.85525" lon="5.54467">
        <ele>1246</ele>
        <time>2013-02-09T08:32:06Z</time>
      </trkpt>
      <trkpt lat="44.85525" lon="5.5446">
        <ele>1246</ele>
        <time>2013-02-09T08:32:11Z</time>
      </trkpt>
      <trkpt lat="44.85524" lon="5.54455">
        <ele>1247</ele>
        <time>2013-02-09T08:32:16Z</time>
      </trkpt>
      <trkpt lat="44.85523" lon="5.5445">
        <ele>1247</ele>
        <time>2013-02-09T08:32:21Z</time>
      </trkpt>
      <trkpt lat="44.85521" lon="5.54444">
        <ele>1248</ele>
        <time>2013-02-09T08:32:26Z</time>
      </trkpt>
      <trkpt lat="44.85519" lon="5.54439">
        <ele>1249</ele>
        <time>2013-02-09T08:32:31Z</time>
      </trkpt>
      <trkpt lat="44.85518" lon="5.54434">
        <ele>1249</ele>
        <time>2013-02-09T08:32:36Z</time>
      </trkpt>
      <trkpt lat="44.85517" lon="5.54428">
        <ele>1250</ele>
        <time>2013-02-09T08:32:41Z</time>
      </trkpt>
      <trkpt lat="44.85516" lon="5.54424">
        <ele>1251</ele>
        <time>2013-02-09T08:32:46Z</time>
      </trkpt>
      <trkpt lat="44.85516" lon="5.54419">
        <ele>1251</ele>
        <time>2013-02-09T08:32:51Z</time>
      </trkpt>
      <trkpt lat="44.85515" lon="5.54414">
        <ele>1252</ele>
        <time>2013-02-09T08:32:56Z</time>
      </trkpt>
      <trkpt lat="44.85515" lon="5.54408">
        <ele>1252</ele>
        <time>2013-02-09T08:33:01Z</time>
      </trkpt>
      <trkpt lat="44.85514" lon="5.54404">
        <ele>1253</ele>
        <time>2013-02-09T08:33:06Z</time>
      </trkpt>
      <trkpt lat="44.85515" lon="5.54399">
        <ele>1253</ele>
        <time>2013-02-09T08:33:11Z</time>
      </trkpt>
      <trkpt lat="44.85515" lon="5.54393">
        <ele>1254</ele>
        <time>2013-02-09T08:33:16Z</time>
      </trkpt>
      <trkpt lat="44.85516" lon="5.54389">
        <ele>1255</ele>
        <time>2013-02-09T08:33:21Z</time>
      </trkpt>
      <trkpt lat="44.85518" lon="5.54385">
        <ele>1256</ele>
        <time>2013-02-09T08:33:26Z</time>
      </trkpt>
      <trkpt lat="44.8552" lon="5.5438">
        <ele>1257</ele>
        <time>2013-02-09T08:33:31Z</time>
      </trkpt>
      <trkpt lat="44.85522" lon="5.54377">
        <ele>1257</ele>
        <time>2013-02-09T08:33:36Z</time>
      </trkpt>
      <trkpt lat="44.85525" lon="5.54374">
        <ele>1258</ele>
        <time>2013-02-09T08:33:41Z</time>
      </trkpt>
      <trkpt lat="44.85528" lon="5.54373">
        <ele>1258</ele>
        <time>2013-02-09T08:33:46Z</time>
      </trkpt>
      <trkpt lat="44.85532" lon="5.5437">
        <ele>1259</ele>
        <time>2013-02-09T08:33:51Z</time>
      </trkpt>
      <trkpt lat="44.85534" lon="5.54365">
        <ele>1259</ele>
        <time>2013-02-09T08:33:56Z</time>
      </trkpt>
      <trkpt lat="44.85536" lon="5.54359">
        <ele>1260</ele>
        <time>2013-02-09T08:34:01Z</time>
      </trkpt>
      <trkpt lat="44.85538" lon="5.54353">
        <ele>1261</ele>
        <time>2013-02-09T08:34:06Z</time>
      </trkpt>
      <trkpt lat="44.85539" lon="5.54348">
        <ele>1262</ele>
        <time>2013-02-09T08:34:11Z</time>
      </trkpt>
      <trkpt lat="44.8554" lon="5.54342">
        <ele>1262</ele>
        <time>2013-02-09T08:34:16Z</time>
      </trkpt>
      <trkpt lat="44.85541" lon="5.54337">
        <ele>1263</ele>
        <time>2013-02-09T08:34:21Z</time>
      </trkpt>
      <trkpt lat="44.85542" lon="5.54332">
        <ele>1263</ele>
        <time>2013-02-09T08:34:26Z</time>
      </trkpt>
      <trkpt lat="44.85543" lon="5.54327">
        <ele>1264</ele>
        <time>2013-02-09T08:34:31Z</time>
      </trkpt>
      <trkpt lat="44.85545" lon="5.54322">
        <ele>1265</ele>
        <time>2013-02-09T08:34:36Z</time>
      </trkpt>
      <trkpt lat="44.85545" lon="5.54317">
        <ele>1265</ele>
        <time>2013-02-09T08:34:41Z</time>
      </trkpt>
      <trkpt lat="44.85545" lon="5.54311">
        <ele>1265</ele>
        <time>2013-02-09T08:34:46Z</time>
      </trkpt>
      <trkpt lat="44.85545" lon="5.54305">
        <ele>1266</ele>
        <time>2013-02-09T08:34:51Z</time>
      </trkpt>
      <trkpt lat="44.85548" lon="5.54301">
        <ele>1266</ele>
        <time>2013-02-09T08:34:56Z</time>
      </trkpt>
      <trkpt lat="44.85549" lon="5.54297">
        <ele>1266</ele>
        <time>2013-02-09T08:35:01Z</time>
      </trkpt>
      <trkpt lat="44.8555" lon="5.54293">
        <ele>1267</ele>
        <time>2013-02-09T08:35:06Z</time>
      </trkpt>
      <trkpt lat="44.85549" lon="5.54288">
        <ele>1268</ele>
        <time>2013-02-09T08:35:11Z</time>
      </trkpt>
      <trkpt lat="44.8555" lon="5.54284">
        <ele>1268</ele>
        <time>2013-02-09T08:35:16Z</time>
      </trkpt>
      <trkpt lat="44.85551" lon="5.54279">
        <ele>1269</ele>
        <time>2013-02-09T08:35:21Z</time>
      </trkpt>
      <trkpt lat="44.85552" lon="5.54275">
        <ele>1270</ele>
        <time>2013-02-09T08:35:26Z</time>
      </trkpt>
      <trkpt lat="44.85553" lon="5.5427">
        <ele>1270</ele>
        <time>2013-02-09T08:35:31Z</time>
      </trkpt>
      <trkpt lat="44.85555" lon="5.54263">
        <ele>1270</ele>
        <time>2013-02-09T08:35:36Z</time>
      </trkpt>
      <trkpt lat="44.85555" lon="5.54257">
        <ele>1271</ele>
        <time>2013-02-09T08:35:41Z</time>
      </trkpt>
      <trkpt lat="44.85554" lon="5.54252">
        <ele>1271</ele>
        <time>2013-02-09T08:35:46Z</time>
      </trkpt>
      <trkpt lat="44.85553" lon="5.54248">
        <ele>1273</ele>
        <time>2013-02-09T08:35:51Z</time>
      </trkpt>
      <trkpt lat="44.85553" lon="5.54243">
        <ele>1273</ele>
        <time>2013-02-09T08:35:56Z</time>
      </trkpt>
      <trkpt lat="44.85552" lon="5.54238">
        <ele>1274</ele>
        <time>2013-02-09T08:36:01Z</time>
      </trkpt>
      <trkpt lat="44.85552" lon="5.54232">
        <ele>1274</ele>
        <time>2013-02-09T08:36:06Z</time>
      </trkpt>
      <trkpt lat="44.85555" lon="5.54228">
        <ele>1275</ele>
        <time>2013-02-09T08:36:11Z</time>
      </trkpt>
      <trkpt lat="44.85557" lon="5.54223">
        <ele>1275</ele>
        <time>2013-02-09T08:36:16Z</time>
      </trkpt>
      <trkpt lat="44.85559" lon="5.54218">
        <ele>1276</ele>
        <time>2013-02-09T08:36:21Z</time>
      </trkpt>
      <trkpt lat="44.85561" lon="5.54213">
        <ele>1277</ele>
        <time>2013-02-09T08:36:26Z</time>
      </trkpt>
      <trkpt lat="44.85561" lon="5.54209">
        <ele>1277</ele>
        <time>2013-02-09T08:36:31Z</time>
      </trkpt>
      <trkpt lat="44.85561" lon="5.54203">
        <ele>1278</ele>
        <time>2013-02-09T08:36:36Z</time>
      </trkpt>
      <trkpt lat="44.85561" lon="5.54199">
        <ele>1279</ele>
        <time>2013-02-09T08:36:41Z</time>
      </trkpt>
      <trkpt lat="44.85561" lon="5.54195">
        <ele>1280</ele>
        <time>2013-02-09T08:36:46Z</time>
      </trkpt>
      <trkpt lat="44.85561" lon="5.5419">
        <ele>1281</ele>
        <time>2013-02-09T08:36:51Z</time>
      </trkpt>
      <trkpt lat="44.85561" lon="5.54184">
        <ele>1281</ele>
        <time>2013-02-09T08:36:56Z</time>
      </trkpt>
      <trkpt lat="44.85563" lon="5.54179">
        <ele>1282</ele>
        <time>2013-02-09T08:37:01Z</time>
      </trkpt>
      <trkpt lat="44.85563" lon="5.54174">
        <ele>1282</ele>
        <time>2013-02-09T08:37:06Z</time>
      </trkpt>
      <trkpt lat="44.8556" lon="5.5417">
        <ele>1283</ele>
        <time>2013-02-09T08:37:11Z</time>
      </trkpt>
      <trkpt lat="44.85558" lon="5.54166">
        <ele>1283</ele>
        <time>2013-02-09T08:37:16Z</time>
      </trkpt>
      <trkpt lat="44.85555" lon="5.5416">
        <ele>1284</ele>
        <time>2013-02-09T08:37:21Z</time>
      </trkpt>
      <trkpt lat="44.85555" lon="5.54157">
        <ele>1284</ele>
        <time>2013-02-09T08:37:26Z</time>
      </trkpt>
      <trkpt lat="44.85554" lon="5.54154">
        <ele>1284</ele>
        <time>2013-02-09T08:37:31Z</time>
      </trkpt>
      <trkpt lat="44.85553" lon="5.54153">
        <ele>1284</ele>
        <time>2013-02-09T08:37:36Z</time>
      </trkpt>
      <trkpt lat="44.85551" lon="5.54147">
        <ele>1285</ele>
        <time>2013-02-09T08:37:41Z</time>
      </trkpt>
      <trkpt lat="44.85549" lon="5.54142">
        <ele>1285</ele>
        <time>2013-02-09T08:37:46Z</time>
      </trkpt>
      <trkpt lat="44.85548" lon="5.54137">
        <ele>1286</ele>
        <time>2013-02-09T08:37:51Z</time>
      </trkpt>
      <trkpt lat="44.85546" lon="5.54132">
        <ele>1287</ele>
        <time>2013-02-09T08:37:56Z</time>
      </trkpt>
      <trkpt lat="44.85544" lon="5.54127">
        <ele>1287</ele>
        <time>2013-02-09T08:38:01Z</time>
      </trkpt>
      <trkpt lat="44.85543" lon="5.54124">
        <ele>1287</ele>
        <time>2013-02-09T08:38:06Z</time>
      </trkpt>
      <trkpt lat="44.85543" lon="5.5412">
        <ele>1288</ele>
        <time>2013-02-09T08:38:11Z</time>
      </trkpt>
      <trkpt lat="44.85543" lon="5.54116">
        <ele>1289</ele>
        <time>2013-02-09T08:38:16Z</time>
      </trkpt>
      <trkpt lat="44.85542" lon="5.54116">
        <ele>1289</ele>
        <time>2013-02-09T08:38:21Z</time>
      </trkpt>
      <trkpt lat="44.85542" lon="5.54116">
        <ele>1289</ele>
        <time>2013-02-09T08:38:26Z</time>
      </trkpt>
      <trkpt lat="44.85542" lon="5.54116">
        <ele>1289</ele>
        <time>2013-02-09T08:38:31Z</time>
      </trkpt>
      <trkpt lat="44.85542" lon="5.54116">
        <ele>1289</ele>
        <time>2013-02-09T08:38:36Z</time>
      </trkpt>
      <trkpt lat="44.85542" lon="5.54116">
        <ele>1289</ele>
        <time>2013-02-09T08:38:41Z</time>
      </trkpt>
      <trkpt lat="44.85542" lon="5.54116">
        <ele>1289</ele>
        <time>2013-02-09T08:38:46Z</time>
      </trkpt>
      <trkpt lat="44.85543" lon="5.54116">
        <ele>1289</ele>
        <time>2013-02-09T08:38:51Z</time>
      </trkpt>
      <trkpt lat="44.85543" lon="5.54116">
        <ele>1289</ele>
        <time>2013-02-09T08:38:56Z</time>
      </trkpt>
      <trkpt lat="44.85543" lon="5.54116">
        <ele>1289</ele>
        <time>2013-02-09T08:39:01Z</time>
      </trkpt>
      <trkpt lat="44.85543" lon="5.54114">
        <ele>1289</ele>
        <time>2013-02-09T08:39:06Z</time>
      </trkpt>
      <trkpt lat="44.85542" lon="5.54111">
        <ele>1289</ele>
        <time>2013-02-09T08:39:11Z</time>
      </trkpt>
      <trkpt lat="44.85542" lon="5.54109">
        <ele>1289</ele>
        <time>2013-02-09T08:39:16Z</time>
      </trkpt>
      <trkpt lat="44.85541" lon="5.54103">
        <ele>1290</ele>
        <time>2013-02-09T08:39:21Z</time>
      </trkpt>
      <trkpt lat="44.85541" lon="5.54098">
        <ele>1291</ele>
        <time>2013-02-09T08:39:26Z</time>
      </trkpt>
      <trkpt lat="44.85541" lon="5.54093">
        <ele>1291</ele>
        <time>2013-02-09T08:39:31Z</time>
      </trkpt>
      <trkpt lat="44.85541" lon="5.54087">
        <ele>1292</ele>
        <time>2013-02-09T08:39:36Z</time>
      </trkpt>
      <trkpt lat="44.85542" lon="5.54081">
        <ele>1293</ele>
        <time>2013-02-09T08:39:41Z</time>
      </trkpt>
      <trkpt lat="44.85544" lon="5.54076">
        <ele>1293</ele>
        <time>2013-02-09T08:39:46Z</time>
      </trkpt>
      <trkpt lat="44.85546" lon="5.54071">
        <ele>1294</ele>
        <time>2013-02-09T08:39:51Z</time>
      </trkpt>
      <trkpt lat="44.85547" lon="5.54066">
        <ele>1295</ele>
        <time>2013-02-09T08:39:56Z</time>
      </trkpt>
      <trkpt lat="44.85548" lon="5.54062">
        <ele>1296</ele>
        <time>2013-02-09T08:40:01Z</time>
      </trkpt>
      <trkpt lat="44.8555" lon="5.54056">
        <ele>1296</ele>
        <time>2013-02-09T08:40:06Z</time>
      </trkpt>
      <trkpt lat="44.85551" lon="5.5405">
        <ele>1296</ele>
        <time>2013-02-09T08:40:11Z</time>
      </trkpt>
      <trkpt lat="44.8555" lon="5.54045">
        <ele>1297</ele>
        <time>2013-02-09T08:40:16Z</time>
      </trkpt>
      <trkpt lat="44.8555" lon="5.5404">
        <ele>1298</ele>
        <time>2013-02-09T08:40:21Z</time>
      </trkpt>
      <trkpt lat="44.8555" lon="5.54035">
        <ele>1299</ele>
        <time>2013-02-09T08:40:26Z</time>
      </trkpt>
      <trkpt lat="44.85551" lon="5.54031">
        <ele>1300</ele>
        <time>2013-02-09T08:40:31Z</time>
      </trkpt>
      <trkpt lat="44.85553" lon="5.54026">
        <ele>1300</ele>
        <time>2013-02-09T08:40:36Z</time>
      </trkpt>
      <trkpt lat="44.85556" lon="5.54022">
        <ele>1301</ele>
        <time>2013-02-09T08:40:41Z</time>
      </trkpt>
      <trkpt lat="44.85557" lon="5.54018">
        <ele>1302</ele>
        <time>2013-02-09T08:40:46Z</time>
      </trkpt>
      <trkpt lat="44.85559" lon="5.54013">
        <ele>1302</ele>
        <time>2013-02-09T08:40:51Z</time>
      </trkpt>
      <trkpt lat="44.8556" lon="5.54008">
        <ele>1303</ele>
        <time>2013-02-09T08:40:56Z</time>
      </trkpt>
      <trkpt lat="44.8556" lon="5.54003">
        <ele>1304</ele>
        <time>2013-02-09T08:41:01Z</time>
      </trkpt>
      <trkpt lat="44.85561" lon="5.53998">
        <ele>1305</ele>
        <time>2013-02-09T08:41:06Z</time>
      </trkpt>
      <trkpt lat="44.85561" lon="5.53993">
        <ele>1306</ele>
        <time>2013-02-09T08:41:11Z</time>
      </trkpt>
      <trkpt lat="44.85561" lon="5.53988">
        <ele>1306</ele>
        <time>2013-02-09T08:41:16Z</time>
      </trkpt>
      <trkpt lat="44.85559" lon="5.53983">
        <ele>1307</ele>
        <time>2013-02-09T08:41:21Z</time>
      </trkpt>
      <trkpt lat="44.85558" lon="5.53978">
        <ele>1308</ele>
        <time>2013-02-09T08:41:26Z</time>
      </trkpt>
      <trkpt lat="44.85557" lon="5.53973">
        <ele>1309</ele>
        <time>2013-02-09T08:41:31Z</time>
      </trkpt>
      <trkpt lat="44.85556" lon="5.53969">
        <ele>1310</ele>
        <time>2013-02-09T08:41:36Z</time>
      </trkpt>
      <trkpt lat="44.85555" lon="5.53964">
        <ele>1311</ele>
        <time>2013-02-09T08:41:41Z</time>
      </trkpt>
      <trkpt lat="44.85555" lon="5.53959">
        <ele>1312</ele>
        <time>2013-02-09T08:41:46Z</time>
      </trkpt>
      <trkpt lat="44.85555" lon="5.53955">
        <ele>1313</ele>
        <time>2013-02-09T08:41:51Z</time>
      </trkpt>
      <trkpt lat="44.85556" lon="5.5395">
        <ele>1313</ele>
        <time>2013-02-09T08:41:56Z</time>
      </trkpt>
      <trkpt lat="44.85558" lon="5.53945">
        <ele>1313</ele>
        <time>2013-02-09T08:42:01Z</time>
      </trkpt>
      <trkpt lat="44.85561" lon="5.5394">
        <ele>1314</ele>
        <time>2013-02-09T08:42:06Z</time>
      </trkpt>
      <trkpt lat="44.85562" lon="5.53935">
        <ele>1314</ele>
        <time>2013-02-09T08:42:11Z</time>
      </trkpt>
      <trkpt lat="44.85563" lon="5.5393">
        <ele>1315</ele>
        <time>2013-02-09T08:42:16Z</time>
      </trkpt>
      <trkpt lat="44.85563" lon="5.53925">
        <ele>1315</ele>
        <time>2013-02-09T08:42:21Z</time>
      </trkpt>
      <trkpt lat="44.85563" lon="5.5392">
        <ele>1316</ele>
        <time>2013-02-09T08:42:26Z</time>
      </trkpt>
      <trkpt lat="44.85563" lon="5.53914">
        <ele>1316</ele>
        <time>2013-02-09T08:42:31Z</time>
      </trkpt>
      <trkpt lat="44.85563" lon="5.53909">
        <ele>1317</ele>
        <time>2013-02-09T08:42:36Z</time>
      </trkpt>
      <trkpt lat="44.85565" lon="5.53904">
        <ele>1317</ele>
        <time>2013-02-09T08:42:41Z</time>
      </trkpt>
      <trkpt lat="44.85566" lon="5.539">
        <ele>1318</ele>
        <time>2013-02-09T08:42:46Z</time>
      </trkpt>
      <trkpt lat="44.85569" lon="5.53896">
        <ele>1319</ele>
        <time>2013-02-09T08:42:51Z</time>
      </trkpt>
      <trkpt lat="44.85571" lon="5.53892">
        <ele>1319</ele>
        <time>2013-02-09T08:42:56Z</time>
      </trkpt>
      <trkpt lat="44.85573" lon="5.53888">
        <ele>1320</ele>
        <time>2013-02-09T08:43:01Z</time>
      </trkpt>
      <trkpt lat="44.85575" lon="5.53884">
        <ele>1320</ele>
        <time>2013-02-09T08:43:06Z</time>
      </trkpt>
      <trkpt lat="44.85577" lon="5.5388">
        <ele>1321</ele>
        <time>2013-02-09T08:43:11Z</time>
      </trkpt>
      <trkpt lat="44.85579" lon="5.53876">
        <ele>1322</ele>
        <time>2013-02-09T08:43:16Z</time>
      </trkpt>
      <trkpt lat="44.85581" lon="5.53872">
        <ele>1323</ele>
        <time>2013-02-09T08:43:21Z</time>
      </trkpt>
      <trkpt lat="44.85581" lon="5.53869">
        <ele>1324</ele>
        <time>2013-02-09T08:43:26Z</time>
      </trkpt>
      <trkpt lat="44.85581" lon="5.53864">
        <ele>1324</ele>
        <time>2013-02-09T08:43:31Z</time>
      </trkpt>
      <trkpt lat="44.85581" lon="5.5386">
        <ele>1325</ele>
        <time>2013-02-09T08:43:36Z</time>
      </trkpt>
      <trkpt lat="44.85581" lon="5.53855">
        <ele>1326</ele>
        <time>2013-02-09T08:43:41Z</time>
      </trkpt>
      <trkpt lat="44.85582" lon="5.5385">
        <ele>1327</ele>
        <time>2013-02-09T08:43:46Z</time>
      </trkpt>
      <trkpt lat="44.85582" lon="5.53845">
        <ele>1327</ele>
        <time>2013-02-09T08:43:51Z</time>
      </trkpt>
      <trkpt lat="44.85584" lon="5.5384">
        <ele>1328</ele>
        <time>2013-02-09T08:43:56Z</time>
      </trkpt>
      <trkpt lat="44.85584" lon="5.53836">
        <ele>1329</ele>
        <time>2013-02-09T08:44:01Z</time>
      </trkpt>
      <trkpt lat="44.85586" lon="5.53832">
        <ele>1329</ele>
        <time>2013-02-09T08:44:06Z</time>
      </trkpt>
      <trkpt lat="44.85587" lon="5.53828">
        <ele>1330</ele>
        <time>2013-02-09T08:44:11Z</time>
      </trkpt>
      <trkpt lat="44.85587" lon="5.53823">
        <ele>1331</ele>
        <time>2013-02-09T08:44:16Z</time>
      </trkpt>
      <trkpt lat="44.85587" lon="5.53817">
        <ele>1331</ele>
        <time>2013-02-09T08:44:21Z</time>
      </trkpt>
      <trkpt lat="44.8559" lon="5.53814">
        <ele>1332</ele>
        <time>2013-02-09T08:44:26Z</time>
      </trkpt>
      <trkpt lat="44.85592" lon="5.53811">
        <ele>1333</ele>
        <time>2013-02-09T08:44:31Z</time>
      </trkpt>
      <trkpt lat="44.85593" lon="5.53807">
        <ele>1334</ele>
        <time>2013-02-09T08:44:36Z</time>
      </trkpt>
      <trkpt lat="44.85597" lon="5.53803">
        <ele>1334</ele>
        <time>2013-02-09T08:44:41Z</time>
      </trkpt>
      <trkpt lat="44.85599" lon="5.53798">
        <ele>1334</ele>
        <time>2013-02-09T08:44:46Z</time>
      </trkpt>
      <trkpt lat="44.85601" lon="5.53794">
        <ele>1335</ele>
        <time>2013-02-09T08:44:51Z</time>
      </trkpt>
      <trkpt lat="44.85602" lon="5.5379">
        <ele>1336</ele>
        <time>2013-02-09T08:44:56Z</time>
      </trkpt>
      <trkpt lat="44.85603" lon="5.53786">
        <ele>1337</ele>
        <time>2013-02-09T08:45:01Z</time>
      </trkpt>
      <trkpt lat="44.85604" lon="5.53782">
        <ele>1338</ele>
        <time>2013-02-09T08:45:06Z</time>
      </trkpt>
      <trkpt lat="44.85606" lon="5.53778">
        <ele>1339</ele>
        <time>2013-02-09T08:45:11Z</time>
      </trkpt>
      <trkpt lat="44.85607" lon="5.53774">
        <ele>1339</ele>
        <time>2013-02-09T08:45:16Z</time>
      </trkpt>
      <trkpt lat="44.85608" lon="5.5377">
        <ele>1340</ele>
        <time>2013-02-09T08:45:21Z</time>
      </trkpt>
      <trkpt lat="44.85609" lon="5.53766">
        <ele>1341</ele>
        <time>2013-02-09T08:45:26Z</time>
      </trkpt>
      <trkpt lat="44.8561" lon="5.53762">
        <ele>1341</ele>
        <time>2013-02-09T08:45:31Z</time>
      </trkpt>
      <trkpt lat="44.85611" lon="5.53757">
        <ele>1342</ele>
        <time>2013-02-09T08:45:36Z</time>
      </trkpt>
      <trkpt lat="44.8561" lon="5.53752">
        <ele>1342</ele>
        <time>2013-02-09T08:45:41Z</time>
      </trkpt>
      <trkpt lat="44.85611" lon="5.53747">
        <ele>1343</ele>
        <time>2013-02-09T08:45:46Z</time>
      </trkpt>
      <trkpt lat="44.85611" lon="5.53742">
        <ele>1344</ele>
        <time>2013-02-09T08:45:51Z</time>
      </trkpt>
      <trkpt lat="44.85613" lon="5.53737">
        <ele>1344</ele>
        <time>2013-02-09T08:45:56Z</time>
      </trkpt>
      <trkpt lat="44.85614" lon="5.53734">
        <ele>1346</ele>
        <time>2013-02-09T08:46:01Z</time>
      </trkpt>
      <trkpt lat="44.85615" lon="5.5373">
        <ele>1347</ele>
        <time>2013-02-09T08:46:06Z</time>
      </trkpt>
      <trkpt lat="44.85618" lon="5.53726">
        <ele>1348</ele>
        <time>2013-02-09T08:46:11Z</time>
      </trkpt>
      <trkpt lat="44.85619" lon="5.53722">
        <ele>1349</ele>
        <time>2013-02-09T08:46:16Z</time>
      </trkpt>
      <trkpt lat="44.85621" lon="5.53718">
        <ele>1350</ele>
        <time>2013-02-09T08:46:21Z</time>
      </trkpt>
      <trkpt lat="44.85622" lon="5.53714">
        <ele>1350</ele>
        <time>2013-02-09T08:46:26Z</time>
      </trkpt>
      <trkpt lat="44.85623" lon="5.5371">
        <ele>1351</ele>
        <time>2013-02-09T08:46:31Z</time>
      </trkpt>
      <trkpt lat="44.85623" lon="5.53707">
        <ele>1351</ele>
        <time>2013-02-09T08:46:36Z</time>
      </trkpt>
      <trkpt lat="44.85624" lon="5.53704">
        <ele>1352</ele>
        <time>2013-02-09T08:46:41Z</time>
      </trkpt>
      <trkpt lat="44.85626" lon="5.537">
        <ele>1353</ele>
        <time>2013-02-09T08:46:46Z</time>
      </trkpt>
      <trkpt lat="44.85627" lon="5.53697">
        <ele>1354</ele>
        <time>2013-02-09T08:46:51Z</time>
      </trkpt>
      <trkpt lat="44.85629" lon="5.53694">
        <ele>1354</ele>
        <time>2013-02-09T08:46:56Z</time>
      </trkpt>
      <trkpt lat="44.85631" lon="5.53691">
        <ele>1355</ele>
        <time>2013-02-09T08:47:01Z</time>
      </trkpt>
      <trkpt lat="44.85633" lon="5.53687">
        <ele>1356</ele>
        <time>2013-02-09T08:47:06Z</time>
      </trkpt>
      <trkpt lat="44.85633" lon="5.5368">
        <ele>1356</ele>
        <time>2013-02-09T08:47:11Z</time>
      </trkpt>
      <trkpt lat="44.85634" lon="5.53675">
        <ele>1356</ele>
        <time>2013-02-09T08:47:16Z</time>
      </trkpt>
      <trkpt lat="44.85636" lon="5.53672">
        <ele>1357</ele>
        <time>2013-02-09T08:47:21Z</time>
      </trkpt>
      <trkpt lat="44.85637" lon="5.53668">
        <ele>1358</ele>
        <time>2013-02-09T08:47:26Z</time>
      </trkpt>
      <trkpt lat="44.85638" lon="5.53664">
        <ele>1359</ele>
        <time>2013-02-09T08:47:31Z</time>
      </trkpt>
      <trkpt lat="44.8564" lon="5.5366">
        <ele>1359</ele>
        <time>2013-02-09T08:47:36Z</time>
      </trkpt>
      <trkpt lat="44.85641" lon="5.53655">
        <ele>1360</ele>
        <time>2013-02-09T08:47:41Z</time>
      </trkpt>
      <trkpt lat="44.85643" lon="5.5365">
        <ele>1360</ele>
        <time>2013-02-09T08:47:46Z</time>
      </trkpt>
      <trkpt lat="44.85643" lon="5.53645">
        <ele>1361</ele>
        <time>2013-02-09T08:47:51Z</time>
      </trkpt>
      <trkpt lat="44.85644" lon="5.53641">
        <ele>1362</ele>
        <time>2013-02-09T08:47:56Z</time>
      </trkpt>
      <trkpt lat="44.85645" lon="5.53636">
        <ele>1363</ele>
        <time>2013-02-09T08:48:01Z</time>
      </trkpt>
      <trkpt lat="44.85646" lon="5.53632">
        <ele>1363</ele>
        <time>2013-02-09T08:48:06Z</time>
      </trkpt>
      <trkpt lat="44.85647" lon="5.5363">
        <ele>1363</ele>
        <time>2013-02-09T08:48:11Z</time>
      </trkpt>
      <trkpt lat="44.85648" lon="5.53625">
        <ele>1364</ele>
        <time>2013-02-09T08:48:16Z</time>
      </trkpt>
      <trkpt lat="44.85649" lon="5.5362">
        <ele>1365</ele>
        <time>2013-02-09T08:48:21Z</time>
      </trkpt>
      <trkpt lat="44.8565" lon="5.53614">
        <ele>1365</ele>
        <time>2013-02-09T08:48:26Z</time>
      </trkpt>
      <trkpt lat="44.85651" lon="5.53609">
        <ele>1366</ele>
        <time>2013-02-09T08:48:31Z</time>
      </trkpt>
      <trkpt lat="44.85652" lon="5.53605">
        <ele>1366</ele>
        <time>2013-02-09T08:48:36Z</time>
      </trkpt>
      <trkpt lat="44.85653" lon="5.536">
        <ele>1367</ele>
        <time>2013-02-09T08:48:41Z</time>
      </trkpt>
      <trkpt lat="44.85653" lon="5.53596">
        <ele>1368</ele>
        <time>2013-02-09T08:48:46Z</time>
      </trkpt>
      <trkpt lat="44.85653" lon="5.53591">
        <ele>1368</ele>
        <time>2013-02-09T08:48:51Z</time>
      </trkpt>
      <trkpt lat="44.85655" lon="5.53586">
        <ele>1369</ele>
        <time>2013-02-09T08:48:56Z</time>
      </trkpt>
      <trkpt lat="44.85656" lon="5.53582">
        <ele>1371</ele>
        <time>2013-02-09T08:49:01Z</time>
      </trkpt>
      <trkpt lat="44.85656" lon="5.53578">
        <ele>1372</ele>
        <time>2013-02-09T08:49:06Z</time>
      </trkpt>
      <trkpt lat="44.85656" lon="5.53573">
        <ele>1372</ele>
        <time>2013-02-09T08:49:11Z</time>
      </trkpt>
      <trkpt lat="44.85656" lon="5.53568">
        <ele>1373</ele>
        <time>2013-02-09T08:49:16Z</time>
      </trkpt>
      <trkpt lat="44.85655" lon="5.53564">
        <ele>1374</ele>
        <time>2013-02-09T08:49:21Z</time>
      </trkpt>
      <trkpt lat="44.85653" lon="5.5356">
        <ele>1375</ele>
        <time>2013-02-09T08:49:26Z</time>
      </trkpt>
      <trkpt lat="44.85652" lon="5.53555">
        <ele>1375</ele>
        <time>2013-02-09T08:49:31Z</time>
      </trkpt>
      <trkpt lat="44.85652" lon="5.5355">
        <ele>1376</ele>
        <time>2013-02-09T08:49:36Z</time>
      </trkpt>
      <trkpt lat="44.85651" lon="5.53546">
        <ele>1377</ele>
        <time>2013-02-09T08:49:41Z</time>
      </trkpt>
      <trkpt lat="44.8565" lon="5.53541">
        <ele>1377</ele>
        <time>2013-02-09T08:49:46Z</time>
      </trkpt>
      <trkpt lat="44.8565" lon="5.53537">
        <ele>1378</ele>
        <time>2013-02-09T08:49:51Z</time>
      </trkpt>
      <trkpt lat="44.85649" lon="5.53534">
        <ele>1378</ele>
        <time>2013-02-09T08:49:56Z</time>
      </trkpt>
      <trkpt lat="44.85648" lon="5.5353">
        <ele>1379</ele>
        <time>2013-02-09T08:50:01Z</time>
      </trkpt>
      <trkpt lat="44.85647" lon="5.53526">
        <ele>1379</ele>
        <time>2013-02-09T08:50:06Z</time>
      </trkpt>
      <trkpt lat="44.85647" lon="5.53522">
        <ele>1380</ele>
        <time>2013-02-09T08:50:11Z</time>
      </trkpt>
      <trkpt lat="44.85646" lon="5.53518">
        <ele>1380</ele>
        <time>2013-02-09T08:50:16Z</time>
      </trkpt>
      <trkpt lat="44.85646" lon="5.53514">
        <ele>1381</ele>
        <time>2013-02-09T08:50:21Z</time>
      </trkpt>
      <trkpt lat="44.85645" lon="5.5351">
        <ele>1381</ele>
        <time>2013-02-09T08:50:26Z</time>
      </trkpt>
      <trkpt lat="44.85644" lon="5.53508">
        <ele>1382</ele>
        <time>2013-02-09T08:50:31Z</time>
      </trkpt>
      <trkpt lat="44.85643" lon="5.53505">
        <ele>1383</ele>
        <time>2013-02-09T08:50:36Z</time>
      </trkpt>
      <trkpt lat="44.85642" lon="5.535">
        <ele>1383</ele>
        <time>2013-02-09T08:50:41Z</time>
      </trkpt>
      <trkpt lat="44.85643" lon="5.53496">
        <ele>1384</ele>
        <time>2013-02-09T08:50:46Z</time>
      </trkpt>
      <trkpt lat="44.85643" lon="5.53491">
        <ele>1384</ele>
        <time>2013-02-09T08:50:51Z</time>
      </trkpt>
      <trkpt lat="44.85643" lon="5.53487">
        <ele>1385</ele>
        <time>2013-02-09T08:50:56Z</time>
      </trkpt>
      <trkpt lat="44.85643" lon="5.53483">
        <ele>1385</ele>
        <time>2013-02-09T08:51:01Z</time>
      </trkpt>
      <trkpt lat="44.85644" lon="5.5348">
        <ele>1386</ele>
        <time>2013-02-09T08:51:06Z</time>
      </trkpt>
      <trkpt lat="44.85644" lon="5.53476">
        <ele>1387</ele>
        <time>2013-02-09T08:51:11Z</time>
      </trkpt>
      <trkpt lat="44.85645" lon="5.53472">
        <ele>1387</ele>
        <time>2013-02-09T08:51:16Z</time>
      </trkpt>
      <trkpt lat="44.85646" lon="5.53468">
        <ele>1388</ele>
        <time>2013-02-09T08:51:21Z</time>
      </trkpt>
      <trkpt lat="44.85646" lon="5.53467">
        <ele>1388</ele>
        <time>2013-02-09T08:51:26Z</time>
      </trkpt>
      <trkpt lat="44.85646" lon="5.53467">
        <ele>1388</ele>
        <time>2013-02-09T08:51:31Z</time>
      </trkpt>
      <trkpt lat="44.85646" lon="5.53465">
        <ele>1388</ele>
        <time>2013-02-09T08:51:36Z</time>
      </trkpt>
      <trkpt lat="44.85647" lon="5.53461">
        <ele>1388</ele>
        <time>2013-02-09T08:51:41Z</time>
      </trkpt>
      <trkpt lat="44.85647" lon="5.53457">
        <ele>1389</ele>
        <time>2013-02-09T08:51:46Z</time>
      </trkpt>
      <trkpt lat="44.85647" lon="5.53453">
        <ele>1390</ele>
        <time>2013-02-09T08:51:51Z</time>
      </trkpt>
      <trkpt lat="44.85647" lon="5.5345">
        <ele>1391</ele>
        <time>2013-02-09T08:51:56Z</time>
      </trkpt>
      <trkpt lat="44.85647" lon="5.53447">
        <ele>1392</ele>
        <time>2013-02-09T08:52:01Z</time>
      </trkpt>
      <trkpt lat="44.85646" lon="5.53443">
        <ele>1392</ele>
        <time>2013-02-09T08:52:06Z</time>
      </trkpt>
      <trkpt lat="44.85646" lon="5.53439">
        <ele>1393</ele>
        <time>2013-02-09T08:52:11Z</time>
      </trkpt>
      <trkpt lat="44.85646" lon="5.53439">
        <ele>1393</ele>
        <time>2013-02-09T08:52:16Z</time>
      </trkpt>
      <trkpt lat="44.85646" lon="5.53439">
        <ele>1393</ele>
        <time>2013-02-09T08:52:21Z</time>
      </trkpt>
      <trkpt lat="44.85646" lon="5.53437">
        <ele>1393</ele>
        <time>2013-02-09T08:52:26Z</time>
      </trkpt>
      <trkpt lat="44.85645" lon="5.53435">
        <ele>1393</ele>
        <time>2013-02-09T08:52:31Z</time>
      </trkpt>
      <trkpt lat="44.85645" lon="5.53432">
        <ele>1394</ele>
        <time>2013-02-09T08:52:36Z</time>
      </trkpt>
      <trkpt lat="44.85644" lon="5.5343">
        <ele>1395</ele>
        <time>2013-02-09T08:52:41Z</time>
      </trkpt>
      <trkpt lat="44.85643" lon="5.53426">
        <ele>1396</ele>
        <time>2013-02-09T08:52:46Z</time>
      </trkpt>
      <trkpt lat="44.85642" lon="5.53421">
        <ele>1397</ele>
        <time>2013-02-09T08:52:51Z</time>
      </trkpt>
      <trkpt lat="44.85641" lon="5.53418">
        <ele>1397</ele>
        <time>2013-02-09T08:52:56Z</time>
      </trkpt>
      <trkpt lat="44.8564" lon="5.53413">
        <ele>1398</ele>
        <time>2013-02-09T08:53:01Z</time>
      </trkpt>
      <trkpt lat="44.85639" lon="5.53409">
        <ele>1399</ele>
        <time>2013-02-09T08:53:06Z</time>
      </trkpt>
      <trkpt lat="44.85636" lon="5.53406">
        <ele>1399</ele>
        <time>2013-02-09T08:53:11Z</time>
      </trkpt>
      <trkpt lat="44.85635" lon="5.53403">
        <ele>1400</ele>
        <time>2013-02-09T08:53:16Z</time>
      </trkpt>
      <trkpt lat="44.85633" lon="5.53401">
        <ele>1401</ele>
        <time>2013-02-09T08:53:21Z</time>
      </trkpt>
      <trkpt lat="44.85631" lon="5.53398">
        <ele>1402</ele>
        <time>2013-02-09T08:53:26Z</time>
      </trkpt>
      <trkpt lat="44.85629" lon="5.53396">
        <ele>1403</ele>
        <time>2013-02-09T08:53:31Z</time>
      </trkpt>
      <trkpt lat="44.85626" lon="5.53394">
        <ele>1404</ele>
        <time>2013-02-09T08:53:36Z</time>
      </trkpt>
      <trkpt lat="44.85623" lon="5.53393">
        <ele>1404</ele>
        <time>2013-02-09T08:53:41Z</time>
      </trkpt>
      <trkpt lat="44.85621" lon="5.53391">
        <ele>1405</ele>
        <time>2013-02-09T08:53:46Z</time>
      </trkpt>
      <trkpt lat="44.85619" lon="5.53389">
        <ele>1406</ele>
        <time>2013-02-09T08:53:51Z</time>
      </trkpt>
      <trkpt lat="44.85618" lon="5.53388">
        <ele>1407</ele>
        <time>2013-02-09T08:53:56Z</time>
      </trkpt>
      <trkpt lat="44.85614" lon="5.53388">
        <ele>1408</ele>
        <time>2013-02-09T08:54:01Z</time>
      </trkpt>
      <trkpt lat="44.85612" lon="5.53386">
        <ele>1408</ele>
        <time>2013-02-09T08:54:06Z</time>
      </trkpt>
      <trkpt lat="44.8561" lon="5.53385">
        <ele>1409</ele>
        <time>2013-02-09T08:54:11Z</time>
      </trkpt>
      <trkpt lat="44.85607" lon="5.53384">
        <ele>1410</ele>
        <time>2013-02-09T08:54:16Z</time>
      </trkpt>
      <trkpt lat="44.85605" lon="5.53383">
        <ele>1411</ele>
        <time>2013-02-09T08:54:21Z</time>
      </trkpt>
      <trkpt lat="44.85603" lon="5.53383">
        <ele>1412</ele>
        <time>2013-02-09T08:54:26Z</time>
      </trkpt>
      <trkpt lat="44.856" lon="5.53382">
        <ele>1413</ele>
        <time>2013-02-09T08:54:31Z</time>
      </trkpt>
      <trkpt lat="44.85598" lon="5.5338">
        <ele>1413</ele>
        <time>2013-02-09T08:54:36Z</time>
      </trkpt>
      <trkpt lat="44.85597" lon="5.53378">
        <ele>1414</ele>
        <time>2013-02-09T08:54:41Z</time>
      </trkpt>
      <trkpt lat="44.85595" lon="5.53375">
        <ele>1415</ele>
        <time>2013-02-09T08:54:46Z</time>
      </trkpt>
      <trkpt lat="44.85593" lon="5.53372">
        <ele>1415</ele>
        <time>2013-02-09T08:54:51Z</time>
      </trkpt>
      <trkpt lat="44.85591" lon="5.53369">
        <ele>1416</ele>
        <time>2013-02-09T08:54:56Z</time>
      </trkpt>
      <trkpt lat="44.85589" lon="5.53367">
        <ele>1417</ele>
        <time>2013-02-09T08:55:01Z</time>
      </trkpt>
      <trkpt lat="44.85587" lon="5.53364">
        <ele>1417</ele>
        <time>2013-02-09T08:55:06Z</time>
      </trkpt>
      <trkpt lat="44.85585" lon="5.53361">
        <ele>1418</ele>
        <time>2013-02-09T08:55:11Z</time>
      </trkpt>
      <trkpt lat="44.85584" lon="5.53358">
        <ele>1419</ele>
        <time>2013-02-09T08:55:16Z</time>
      </trkpt>
      <trkpt lat="44.85583" lon="5.53356">
        <ele>1419</ele>
        <time>2013-02-09T08:55:21Z</time>
      </trkpt>
      <trkpt lat="44.85581" lon="5.53353">
        <ele>1420</ele>
        <time>2013-02-09T08:55:26Z</time>
      </trkpt>
      <trkpt lat="44.8558" lon="5.5335">
        <ele>1421</ele>
        <time>2013-02-09T08:55:31Z</time>
      </trkpt>
      <trkpt lat="44.85579" lon="5.53348">
        <ele>1422</ele>
        <time>2013-02-09T08:55:36Z</time>
      </trkpt>
      <trkpt lat="44.85577" lon="5.53345">
        <ele>1423</ele>
        <time>2013-02-09T08:55:41Z</time>
      </trkpt>
      <trkpt lat="44.85576" lon="5.53341">
        <ele>1423</ele>
        <time>2013-02-09T08:55:46Z</time>
      </trkpt>
      <trkpt lat="44.85574" lon="5.53338">
        <ele>1424</ele>
        <time>2013-02-09T08:55:51Z</time>
      </trkpt>
      <trkpt lat="44.85573" lon="5.53334">
        <ele>1425</ele>
        <time>2013-02-09T08:55:56Z</time>
      </trkpt>
      <trkpt lat="44.85572" lon="5.5333">
        <ele>1425</ele>
        <time>2013-02-09T08:56:01Z</time>
      </trkpt>
      <trkpt lat="44.85571" lon="5.53327">
        <ele>1426</ele>
        <time>2013-02-09T08:56:06Z</time>
      </trkpt>
      <trkpt lat="44.85571" lon="5.53324">
        <ele>1426</ele>
        <time>2013-02-09T08:56:11Z</time>
      </trkpt>
      <trkpt lat="44.85569" lon="5.5332">
        <ele>1427</ele>
        <time>2013-02-09T08:56:16Z</time>
      </trkpt>
      <trkpt lat="44.85568" lon="5.53317">
        <ele>1428</ele>
        <time>2013-02-09T08:56:21Z</time>
      </trkpt>
      <trkpt lat="44.85568" lon="5.53313">
        <ele>1428</ele>
        <time>2013-02-09T08:56:26Z</time>
      </trkpt>
      <trkpt lat="44.85566" lon="5.5331">
        <ele>1429</ele>
        <time>2013-02-09T08:56:31Z</time>
      </trkpt>
      <trkpt lat="44.85564" lon="5.53307">
        <ele>1429</ele>
        <time>2013-02-09T08:56:36Z</time>
      </trkpt>
      <trkpt lat="44.85563" lon="5.53304">
        <ele>1430</ele>
        <time>2013-02-09T08:56:41Z</time>
      </trkpt>
      <trkpt lat="44.8556" lon="5.53302">
        <ele>1431</ele>
        <time>2013-02-09T08:56:46Z</time>
      </trkpt>
      <trkpt lat="44.85558" lon="5.53299">
        <ele>1431</ele>
        <time>2013-02-09T08:56:51Z</time>
      </trkpt>
      <trkpt lat="44.85556" lon="5.53296">
        <ele>1432</ele>
        <time>2013-02-09T08:56:56Z</time>
      </trkpt>
      <trkpt lat="44.85555" lon="5.53294">
        <ele>1433</ele>
        <time>2013-02-09T08:57:01Z</time>
      </trkpt>
      <trkpt lat="44.85553" lon="5.53291">
        <ele>1434</ele>
        <time>2013-02-09T08:57:06Z</time>
      </trkpt>
      <trkpt lat="44.85551" lon="5.53288">
        <ele>1434</ele>
        <time>2013-02-09T08:57:11Z</time>
      </trkpt>
      <trkpt lat="44.8555" lon="5.53286">
        <ele>1435</ele>
        <time>2013-02-09T08:57:16Z</time>
      </trkpt>
      <trkpt lat="44.85548" lon="5.53284">
        <ele>1436</ele>
        <time>2013-02-09T08:57:21Z</time>
      </trkpt>
      <trkpt lat="44.85547" lon="5.53283">
        <ele>1437</ele>
        <time>2013-02-09T08:57:26Z</time>
      </trkpt>
      <trkpt lat="44.85544" lon="5.53281">
        <ele>1438</ele>
        <time>2013-02-09T08:57:31Z</time>
      </trkpt>
      <trkpt lat="44.85542" lon="5.53279">
        <ele>1438</ele>
        <time>2013-02-09T08:57:36Z</time>
      </trkpt>
      <trkpt lat="44.85541" lon="5.53276">
        <ele>1439</ele>
        <time>2013-02-09T08:57:41Z</time>
      </trkpt>
      <trkpt lat="44.85538" lon="5.53274">
        <ele>1440</ele>
        <time>2013-02-09T08:57:46Z</time>
      </trkpt>
      <trkpt lat="44.85536" lon="5.53272">
        <ele>1441</ele>
        <time>2013-02-09T08:57:51Z</time>
      </trkpt>
      <trkpt lat="44.85535" lon="5.5327">
        <ele>1441</ele>
        <time>2013-02-09T08:57:56Z</time>
      </trkpt>
      <trkpt lat="44.85533" lon="5.53268">
        <ele>1442</ele>
        <time>2013-02-09T08:58:01Z</time>
      </trkpt>
      <trkpt lat="44.85531" lon="5.53266">
        <ele>1443</ele>
        <time>2013-02-09T08:58:06Z</time>
      </trkpt>
      <trkpt lat="44.85529" lon="5.53264">
        <ele>1444</ele>
        <time>2013-02-09T08:58:11Z</time>
      </trkpt>
      <trkpt lat="44.85528" lon="5.53264">
        <ele>1444</ele>
        <time>2013-02-09T08:58:16Z</time>
      </trkpt>
      <trkpt lat="44.85526" lon="5.53263">
        <ele>1445</ele>
        <time>2013-02-09T08:58:21Z</time>
      </trkpt>
      <trkpt lat="44.85525" lon="5.53262">
        <ele>1446</ele>
        <time>2013-02-09T08:58:26Z</time>
      </trkpt>
      <trkpt lat="44.85523" lon="5.5326">
        <ele>1446</ele>
        <time>2013-02-09T08:58:31Z</time>
      </trkpt>
      <trkpt lat="44.85521" lon="5.53257">
        <ele>1447</ele>
        <time>2013-02-09T08:58:36Z</time>
      </trkpt>
      <trkpt lat="44.85519" lon="5.53256">
        <ele>1448</ele>
        <time>2013-02-09T08:58:41Z</time>
      </trkpt>
      <trkpt lat="44.85516" lon="5.53254">
        <ele>1449</ele>
        <time>2013-02-09T08:58:46Z</time>
      </trkpt>
      <trkpt lat="44.85515" lon="5.53251">
        <ele>1450</ele>
        <time>2013-02-09T08:58:51Z</time>
      </trkpt>
      <trkpt lat="44.85513" lon="5.53249">
        <ele>1451</ele>
        <time>2013-02-09T08:58:56Z</time>
      </trkpt>
      <trkpt lat="44.85512" lon="5.53247">
        <ele>1451</ele>
        <time>2013-02-09T08:59:01Z</time>
      </trkpt>
      <trkpt lat="44.8551" lon="5.53244">
        <ele>1452</ele>
        <time>2013-02-09T08:59:06Z</time>
      </trkpt>
      <trkpt lat="44.85508" lon="5.53243">
        <ele>1453</ele>
        <time>2013-02-09T08:59:11Z</time>
      </trkpt>
      <trkpt lat="44.85506" lon="5.53241">
        <ele>1454</ele>
        <time>2013-02-09T08:59:16Z</time>
      </trkpt>
      <trkpt lat="44.85505" lon="5.5324">
        <ele>1455</ele>
        <time>2013-02-09T08:59:21Z</time>
      </trkpt>
      <trkpt lat="44.85502" lon="5.53239">
        <ele>1455</ele>
        <time>2013-02-09T08:59:26Z</time>
      </trkpt>
      <trkpt lat="44.85502" lon="5.53238">
        <ele>1456</ele>
        <time>2013-02-09T08:59:31Z</time>
      </trkpt>
      <trkpt lat="44.85502" lon="5.53238">
        <ele>1456</ele>
        <time>2013-02-09T08:59:36Z</time>
      </trkpt>
      <trkpt lat="44.85502" lon="5.53237">
        <ele>1456</ele>
        <time>2013-02-09T08:59:41Z</time>
      </trkpt>
      <trkpt lat="44.85503" lon="5.53236">
        <ele>1456</ele>
        <time>2013-02-09T08:59:46Z</time>
      </trkpt>
      <trkpt lat="44.85504" lon="5.53234">
        <ele>1457</ele>
        <time>2013-02-09T08:59:51Z</time>
      </trkpt>
      <trkpt lat="44.85506" lon="5.53233">
        <ele>1458</ele>
        <time>2013-02-09T08:59:56Z</time>
      </trkpt>
      <trkpt lat="44.85507" lon="5.53231">
        <ele>1458</ele>
        <time>2013-02-09T09:00:01Z</time>
      </trkpt>
      <trkpt lat="44.85506" lon="5.53228">
        <ele>1459</ele>
        <time>2013-02-09T09:00:06Z</time>
      </trkpt>
      <trkpt lat="44.85505" lon="5.53226">
        <ele>1460</ele>
        <time>2013-02-09T09:00:11Z</time>
      </trkpt>
      <trkpt lat="44.85503" lon="5.53224">
        <ele>1461</ele>
        <time>2013-02-09T09:00:16Z</time>
      </trkpt>
      <trkpt lat="44.85501" lon="5.53224">
        <ele>1462</ele>
        <time>2013-02-09T09:00:21Z</time>
      </trkpt>
      <trkpt lat="44.85499" lon="5.53224">
        <ele>1462</ele>
        <time>2013-02-09T09:00:26Z</time>
      </trkpt>
      <trkpt lat="44.85499" lon="5.53221">
        <ele>1462</ele>
        <time>2013-02-09T09:00:31Z</time>
      </trkpt>
      <trkpt lat="44.85502" lon="5.53218">
        <ele>1463</ele>
        <time>2013-02-09T09:00:36Z</time>
      </trkpt>
      <trkpt lat="44.85504" lon="5.53216">
        <ele>1463</ele>
        <time>2013-02-09T09:00:41Z</time>
      </trkpt>
      <trkpt lat="44.85505" lon="5.53214">
        <ele>1464</ele>
        <time>2013-02-09T09:00:46Z</time>
      </trkpt>
      <trkpt lat="44.85505" lon="5.53214">
        <ele>1465</ele>
        <time>2013-02-09T09:00:51Z</time>
      </trkpt>
      <trkpt lat="44.85503" lon="5.53213">
        <ele>1465</ele>
        <time>2013-02-09T09:00:56Z</time>
      </trkpt>
      <trkpt lat="44.85502" lon="5.53211">
        <ele>1466</ele>
        <time>2013-02-09T09:01:01Z</time>
      </trkpt>
      <trkpt lat="44.85502" lon="5.5321">
        <ele>1466</ele>
        <time>2013-02-09T09:01:06Z</time>
      </trkpt>
      <trkpt lat="44.85501" lon="5.53208">
        <ele>1467</ele>
        <time>2013-02-09T09:01:11Z</time>
      </trkpt>
      <trkpt lat="44.855" lon="5.53207">
        <ele>1467</ele>
        <time>2013-02-09T09:01:16Z</time>
      </trkpt>
      <trkpt lat="44.855" lon="5.53205">
        <ele>1468</ele>
        <time>2013-02-09T09:01:21Z</time>
      </trkpt>
      <trkpt lat="44.85499" lon="5.53204">
        <ele>1468</ele>
        <time>2013-02-09T09:01:26Z</time>
      </trkpt>
      <trkpt lat="44.855" lon="5.53202">
        <ele>1469</ele>
        <time>2013-02-09T09:01:31Z</time>
      </trkpt>
      <trkpt lat="44.85498" lon="5.53204">
        <ele>1469</ele>
        <time>2013-02-09T09:01:36Z</time>
      </trkpt>
      <trkpt lat="44.85496" lon="5.53204">
        <ele>1470</ele>
        <time>2013-02-09T09:01:41Z</time>
      </trkpt>
      <trkpt lat="44.85492" lon="5.53202">
        <ele>1470</ele>
        <time>2013-02-09T09:01:46Z</time>
      </trkpt>
      <trkpt lat="44.85489" lon="5.532">
        <ele>1470</ele>
        <time>2013-02-09T09:01:51Z</time>
      </trkpt>
      <trkpt lat="44.85487" lon="5.53199">
        <ele>1470</ele>
        <time>2013-02-09T09:01:56Z</time>
      </trkpt>
      <trkpt lat="44.85487" lon="5.53197">
        <ele>1470</ele>
        <time>2013-02-09T09:08:36Z</time>
      </trkpt>
      <trkpt lat="44.85487" lon="5.53197">
        <ele>1471</ele>
        <time>2013-02-09T09:08:41Z</time>
      </trkpt>
      <trkpt lat="44.85487" lon="5.53198">
        <ele>1471</ele>
        <time>2013-02-09T09:08:46Z</time>
      </trkpt>
      <trkpt lat="44.85487" lon="5.53197">
        <ele>1471</ele>
        <time>2013-02-09T09:08:51Z</time>
      </trkpt>
      <trkpt lat="44.85486" lon="5.53194">
        <ele>1471</ele>
        <time>2013-02-09T09:08:56Z</time>
      </trkpt>
      <trkpt lat="44.85486" lon="5.53193">
        <ele>1472</ele>
        <time>2013-02-09T09:09:01Z</time>
      </trkpt>
      <trkpt lat="44.85486" lon="5.53193">
        <ele>1472</ele>
        <time>2013-02-09T09:09:06Z</time>
      </trkpt>
      <trkpt lat="44.85484" lon="5.53191">
        <ele>1472</ele>
        <time>2013-02-09T09:09:11Z</time>
      </trkpt>
      <trkpt lat="44.85482" lon="5.5319">
        <ele>1473</ele>
        <time>2013-02-09T09:09:16Z</time>
      </trkpt>
      <trkpt lat="44.8548" lon="5.53188">
        <ele>1474</ele>
        <time>2013-02-09T09:09:21Z</time>
      </trkpt>
      <trkpt lat="44.85479" lon="5.53187">
        <ele>1475</ele>
        <time>2013-02-09T09:09:26Z</time>
      </trkpt>
      <trkpt lat="44.85479" lon="5.53187">
        <ele>1475</ele>
        <time>2013-02-09T09:09:31Z</time>
      </trkpt>
      <trkpt lat="44.85477" lon="5.53185">
        <ele>1476</ele>
        <time>2013-02-09T09:09:36Z</time>
      </trkpt>
      <trkpt lat="44.85476" lon="5.53184">
        <ele>1476</ele>
        <time>2013-02-09T09:09:41Z</time>
      </trkpt>
      <trkpt lat="44.85475" lon="5.53183">
        <ele>1477</ele>
        <time>2013-02-09T09:09:46Z</time>
      </trkpt>
      <trkpt lat="44.85474" lon="5.53183">
        <ele>1477</ele>
        <time>2013-02-09T09:09:51Z</time>
      </trkpt>
      <trkpt lat="44.85473" lon="5.53183">
        <ele>1477</ele>
        <time>2013-02-09T09:09:56Z</time>
      </trkpt>
      <trkpt lat="44.85472" lon="5.53184">
        <ele>1478</ele>
        <time>2013-02-09T09:10:01Z</time>
      </trkpt>
      <trkpt lat="44.85471" lon="5.53184">
        <ele>1478</ele>
        <time>2013-02-09T09:10:06Z</time>
      </trkpt>
      <trkpt lat="44.85471" lon="5.53182">
        <ele>1478</ele>
        <time>2013-02-09T09:10:11Z</time>
      </trkpt>
      <trkpt lat="44.85471" lon="5.53183">
        <ele>1479</ele>
        <time>2013-02-09T09:10:16Z</time>
      </trkpt>
      <trkpt lat="44.85471" lon="5.53181">
        <ele>1479</ele>
        <time>2013-02-09T09:10:21Z</time>
      </trkpt>
      <trkpt lat="44.8547" lon="5.53181">
        <ele>1479</ele>
        <time>2013-02-09T09:10:26Z</time>
      </trkpt>
      <trkpt lat="44.85468" lon="5.53181">
        <ele>1480</ele>
        <time>2013-02-09T09:10:31Z</time>
      </trkpt>
      <trkpt lat="44.85467" lon="5.53181">
        <ele>1481</ele>
        <time>2013-02-09T09:10:36Z</time>
      </trkpt>
      <trkpt lat="44.85467" lon="5.53181">
        <ele>1481</ele>
        <time>2013-02-09T09:10:41Z</time>
      </trkpt>
      <trkpt lat="44.85466" lon="5.53179">
        <ele>1481</ele>
        <time>2013-02-09T09:10:46Z</time>
      </trkpt>
      <trkpt lat="44.85466" lon="5.53177">
        <ele>1482</ele>
        <time>2013-02-09T09:10:51Z</time>
      </trkpt>
      <trkpt lat="44.85464" lon="5.53176">
        <ele>1483</ele>
        <time>2013-02-09T09:10:56Z</time>
      </trkpt>
      <trkpt lat="44.85462" lon="5.53175">
        <ele>1484</ele>
        <time>2013-02-09T09:11:01Z</time>
      </trkpt>
      <trkpt lat="44.8546" lon="5.53173">
        <ele>1485</ele>
        <time>2013-02-09T09:11:06Z</time>
      </trkpt>
      <trkpt lat="44.8546" lon="5.5317">
        <ele>1486</ele>
        <time>2013-02-09T09:11:11Z</time>
      </trkpt>
      <trkpt lat="44.85461" lon="5.53167">
        <ele>1487</ele>
        <time>2013-02-09T09:11:16Z</time>
      </trkpt>
      <trkpt lat="44.85462" lon="5.53164">
        <ele>1488</ele>
        <time>2013-02-09T09:11:21Z</time>
      </trkpt>
      <trkpt lat="44.85463" lon="5.53162">
        <ele>1488</ele>
        <time>2013-02-09T09:11:26Z</time>
      </trkpt>
      <trkpt lat="44.85462" lon="5.5316">
        <ele>1489</ele>
        <time>2013-02-09T09:11:31Z</time>
      </trkpt>
      <trkpt lat="44.8546" lon="5.53158">
        <ele>1490</ele>
        <time>2013-02-09T09:11:36Z</time>
      </trkpt>
      <trkpt lat="44.85458" lon="5.53156">
        <ele>1491</ele>
        <time>2013-02-09T09:11:41Z</time>
      </trkpt>
      <trkpt lat="44.85457" lon="5.53154">
        <ele>1492</ele>
        <time>2013-02-09T09:11:46Z</time>
      </trkpt>
      <trkpt lat="44.85457" lon="5.53149">
        <ele>1493</ele>
        <time>2013-02-09T09:11:51Z</time>
      </trkpt>
      <trkpt lat="44.85458" lon="5.53144">
        <ele>1492</ele>
        <time>2013-02-09T09:11:56Z</time>
      </trkpt>
      <trkpt lat="44.85458" lon="5.53136">
        <ele>1492</ele>
        <time>2013-02-09T09:12:01Z</time>
      </trkpt>
      <trkpt lat="44.85459" lon="5.53131">
        <ele>1493</ele>
        <time>2013-02-09T09:12:06Z</time>
      </trkpt>
      <trkpt lat="44.8546" lon="5.53128">
        <ele>1494</ele>
        <time>2013-02-09T09:12:11Z</time>
      </trkpt>
      <trkpt lat="44.85462" lon="5.53124">
        <ele>1494</ele>
        <time>2013-02-09T09:12:16Z</time>
      </trkpt>
      <trkpt lat="44.85463" lon="5.5312">
        <ele>1495</ele>
        <time>2013-02-09T09:12:21Z</time>
      </trkpt>
      <trkpt lat="44.85465" lon="5.53117">
        <ele>1497</ele>
        <time>2013-02-09T09:12:26Z</time>
      </trkpt>
      <trkpt lat="44.85466" lon="5.53114">
        <ele>1498</ele>
        <time>2013-02-09T09:12:31Z</time>
      </trkpt>
      <trkpt lat="44.85467" lon="5.53111">
        <ele>1499</ele>
        <time>2013-02-09T09:12:36Z</time>
      </trkpt>
      <trkpt lat="44.85468" lon="5.53109">
        <ele>1499</ele>
        <time>2013-02-09T09:12:41Z</time>
      </trkpt>
      <trkpt lat="44.85468" lon="5.53107">
        <ele>1500</ele>
        <time>2013-02-09T09:12:46Z</time>
      </trkpt>
      <trkpt lat="44.85469" lon="5.53106">
        <ele>1500</ele>
        <time>2013-02-09T09:12:51Z</time>
      </trkpt>
      <trkpt lat="44.85469" lon="5.53104">
        <ele>1501</ele>
        <time>2013-02-09T09:12:56Z</time>
      </trkpt>
      <trkpt lat="44.85469" lon="5.531">
        <ele>1502</ele>
        <time>2013-02-09T09:13:01Z</time>
      </trkpt>
      <trkpt lat="44.8547" lon="5.53098">
        <ele>1502</ele>
        <time>2013-02-09T09:13:06Z</time>
      </trkpt>
      <trkpt lat="44.8547" lon="5.53095">
        <ele>1503</ele>
        <time>2013-02-09T09:13:11Z</time>
      </trkpt>
      <trkpt lat="44.85471" lon="5.53092">
        <ele>1504</ele>
        <time>2013-02-09T09:13:16Z</time>
      </trkpt>
      <trkpt lat="44.85471" lon="5.53089">
        <ele>1504</ele>
        <time>2013-02-09T09:13:21Z</time>
      </trkpt>
      <trkpt lat="44.85472" lon="5.53086">
        <ele>1505</ele>
        <time>2013-02-09T09:13:26Z</time>
      </trkpt>
      <trkpt lat="44.85474" lon="5.53083">
        <ele>1506</ele>
        <time>2013-02-09T09:13:31Z</time>
      </trkpt>
      <trkpt lat="44.85476" lon="5.5308">
        <ele>1507</ele>
        <time>2013-02-09T09:13:36Z</time>
      </trkpt>
      <trkpt lat="44.85478" lon="5.53075">
        <ele>1507</ele>
        <time>2013-02-09T09:13:41Z</time>
      </trkpt>
      <trkpt lat="44.85479" lon="5.53069">
        <ele>1506</ele>
        <time>2013-02-09T09:13:46Z</time>
      </trkpt>
      <trkpt lat="44.85481" lon="5.53064">
        <ele>1506</ele>
        <time>2013-02-09T09:13:51Z</time>
      </trkpt>
      <trkpt lat="44.85483" lon="5.53057">
        <ele>1506</ele>
        <time>2013-02-09T09:13:56Z</time>
      </trkpt>
      <trkpt lat="44.85485" lon="5.5305">
        <ele>1505</ele>
        <time>2013-02-09T09:14:01Z</time>
      </trkpt>
      <trkpt lat="44.85485" lon="5.53047">
        <ele>1504</ele>
        <time>2013-02-09T09:14:06Z</time>
      </trkpt>
      <trkpt lat="44.85485" lon="5.53047">
        <ele>1504</ele>
        <time>2013-02-09T09:14:11Z</time>
      </trkpt>
      <trkpt lat="44.85484" lon="5.53046">
        <ele>1504</ele>
        <time>2013-02-09T09:14:16Z</time>
      </trkpt>
      <trkpt lat="44.85484" lon="5.53046">
        <ele>1504</ele>
        <time>2013-02-09T09:14:21Z</time>
      </trkpt>
      <trkpt lat="44.85484" lon="5.53046">
        <ele>1504</ele>
        <time>2013-02-09T09:14:26Z</time>
      </trkpt>
      <trkpt lat="44.85485" lon="5.53046">
        <ele>1504</ele>
        <time>2013-02-09T09:14:31Z</time>
      </trkpt>
      <trkpt lat="44.85485" lon="5.53046">
        <ele>1504</ele>
        <time>2013-02-09T09:14:36Z</time>
      </trkpt>
      <trkpt lat="44.85485" lon="5.53043">
        <ele>1504</ele>
        <time>2013-02-09T09:14:41Z</time>
      </trkpt>
      <trkpt lat="44.85485" lon="5.53042">
        <ele>1504</ele>
        <time>2013-02-09T09:14:46Z</time>
      </trkpt>
      <trkpt lat="44.85486" lon="5.53041">
        <ele>1504</ele>
        <time>2013-02-09T09:14:51Z</time>
      </trkpt>
      <trkpt lat="44.85486" lon="5.5304">
        <ele>1504</ele>
        <time>2013-02-09T09:14:56Z</time>
      </trkpt>
      <trkpt lat="44.8549" lon="5.53036">
        <ele>1503</ele>
        <time>2013-02-09T09:15:01Z</time>
      </trkpt>
      <trkpt lat="44.8549" lon="5.53032">
        <ele>1504</ele>
        <time>2013-02-09T09:15:06Z</time>
      </trkpt>
      <trkpt lat="44.8549" lon="5.53029">
        <ele>1505</ele>
        <time>2013-02-09T09:15:11Z</time>
      </trkpt>
      <trkpt lat="44.8549" lon="5.5303">
        <ele>1505</ele>
        <time>2013-02-09T09:15:16Z</time>
      </trkpt>
      <trkpt lat="44.8549" lon="5.53029">
        <ele>1505</ele>
        <time>2013-02-09T09:15:21Z</time>
      </trkpt>
      <trkpt lat="44.85491" lon="5.53026">
        <ele>1506</ele>
        <time>2013-02-09T09:15:26Z</time>
      </trkpt>
      <trkpt lat="44.85491" lon="5.53025">
        <ele>1506</ele>
        <time>2013-02-09T09:15:31Z</time>
      </trkpt>
      <trkpt lat="44.85491" lon="5.53025">
        <ele>1507</ele>
        <time>2013-02-09T09:15:36Z</time>
      </trkpt>
      <trkpt lat="44.85491" lon="5.53025">
        <ele>1507</ele>
        <time>2013-02-09T09:15:41Z</time>
      </trkpt>
      <trkpt lat="44.8549" lon="5.53025">
        <ele>1508</ele>
        <time>2013-02-09T09:15:46Z</time>
      </trkpt>
      <trkpt lat="44.85487" lon="5.53025">
        <ele>1509</ele>
        <time>2013-02-09T09:15:51Z</time>
      </trkpt>
      <trkpt lat="44.85485" lon="5.53025">
        <ele>1510</ele>
        <time>2013-02-09T09:15:56Z</time>
      </trkpt>
      <trkpt lat="44.85483" lon="5.53023">
        <ele>1511</ele>
        <time>2013-02-09T09:16:01Z</time>
      </trkpt>
      <trkpt lat="44.85481" lon="5.53022">
        <ele>1513</ele>
        <time>2013-02-09T09:16:06Z</time>
      </trkpt>
      <trkpt lat="44.85479" lon="5.5302">
        <ele>1514</ele>
        <time>2013-02-09T09:16:11Z</time>
      </trkpt>
      <trkpt lat="44.85478" lon="5.53018">
        <ele>1514</ele>
        <time>2013-02-09T09:16:16Z</time>
      </trkpt>
      <trkpt lat="44.85477" lon="5.53015">
        <ele>1515</ele>
        <time>2013-02-09T09:16:21Z</time>
      </trkpt>
      <trkpt lat="44.85476" lon="5.53013">
        <ele>1516</ele>
        <time>2013-02-09T09:16:26Z</time>
      </trkpt>
      <trkpt lat="44.85475" lon="5.5301">
        <ele>1517</ele>
        <time>2013-02-09T09:16:31Z</time>
      </trkpt>
      <trkpt lat="44.85474" lon="5.53006">
        <ele>1517</ele>
        <time>2013-02-09T09:16:36Z</time>
      </trkpt>
      <trkpt lat="44.85475" lon="5.53002">
        <ele>1518</ele>
        <time>2013-02-09T09:16:41Z</time>
      </trkpt>
      <trkpt lat="44.85476" lon="5.52998">
        <ele>1518</ele>
        <time>2013-02-09T09:16:46Z</time>
      </trkpt>
      <trkpt lat="44.85477" lon="5.52995">
        <ele>1519</ele>
        <time>2013-02-09T09:16:51Z</time>
      </trkpt>
      <trkpt lat="44.85478" lon="5.52995">
        <ele>1519</ele>
        <time>2013-02-09T09:16:56Z</time>
      </trkpt>
      <trkpt lat="44.85477" lon="5.52994">
        <ele>1519</ele>
        <time>2013-02-09T09:17:01Z</time>
      </trkpt>
      <trkpt lat="44.85475" lon="5.52994">
        <ele>1519</ele>
        <time>2013-02-09T09:17:06Z</time>
      </trkpt>
      <trkpt lat="44.85475" lon="5.52993">
        <ele>1520</ele>
        <time>2013-02-09T09:17:11Z</time>
      </trkpt>
      <trkpt lat="44.85476" lon="5.52991">
        <ele>1521</ele>
        <time>2013-02-09T09:17:16Z</time>
      </trkpt>
      <trkpt lat="44.85478" lon="5.52989">
        <ele>1521</ele>
        <time>2013-02-09T09:17:21Z</time>
      </trkpt>
      <trkpt lat="44.85479" lon="5.52986">
        <ele>1522</ele>
        <time>2013-02-09T09:17:26Z</time>
      </trkpt>
      <trkpt lat="44.85478" lon="5.52984">
        <ele>1523</ele>
        <time>2013-02-09T09:17:31Z</time>
      </trkpt>
      <trkpt lat="44.85477" lon="5.52981">
        <ele>1524</ele>
        <time>2013-02-09T09:17:36Z</time>
      </trkpt>
      <trkpt lat="44.85475" lon="5.5298">
        <ele>1524</ele>
        <time>2013-02-09T09:17:41Z</time>
      </trkpt>
      <trkpt lat="44.85474" lon="5.52978">
        <ele>1525</ele>
        <time>2013-02-09T09:17:46Z</time>
      </trkpt>
      <trkpt lat="44.85473" lon="5.52975">
        <ele>1526</ele>
        <time>2013-02-09T09:17:51Z</time>
      </trkpt>
      <trkpt lat="44.85473" lon="5.52972">
        <ele>1526</ele>
        <time>2013-02-09T09:17:56Z</time>
      </trkpt>
      <trkpt lat="44.85475" lon="5.52971">
        <ele>1527</ele>
        <time>2013-02-09T09:18:01Z</time>
      </trkpt>
      <trkpt lat="44.85478" lon="5.5297">
        <ele>1528</ele>
        <time>2013-02-09T09:18:06Z</time>
      </trkpt>
      <trkpt lat="44.85479" lon="5.52967">
        <ele>1529</ele>
        <time>2013-02-09T09:18:11Z</time>
      </trkpt>
      <trkpt lat="44.85478" lon="5.52965">
        <ele>1530</ele>
        <time>2013-02-09T09:18:16Z</time>
      </trkpt>
      <trkpt lat="44.85476" lon="5.52963">
        <ele>1531</ele>
        <time>2013-02-09T09:18:21Z</time>
      </trkpt>
      <trkpt lat="44.85477" lon="5.52961">
        <ele>1532</ele>
        <time>2013-02-09T09:18:26Z</time>
      </trkpt>
      <trkpt lat="44.85478" lon="5.52959">
        <ele>1532</ele>
        <time>2013-02-09T09:18:31Z</time>
      </trkpt>
      <trkpt lat="44.85478" lon="5.52956">
        <ele>1533</ele>
        <time>2013-02-09T09:18:36Z</time>
      </trkpt>
      <trkpt lat="44.85478" lon="5.52953">
        <ele>1534</ele>
        <time>2013-02-09T09:18:41Z</time>
      </trkpt>
      <trkpt lat="44.85478" lon="5.52952">
        <ele>1534</ele>
        <time>2013-02-09T09:18:46Z</time>
      </trkpt>
      <trkpt lat="44.85478" lon="5.52953">
        <ele>1534</ele>
        <time>2013-02-09T09:18:51Z</time>
      </trkpt>
      <trkpt lat="44.85478" lon="5.52951">
        <ele>1535</ele>
        <time>2013-02-09T09:18:56Z</time>
      </trkpt>
      <trkpt lat="44.85479" lon="5.52948">
        <ele>1536</ele>
        <time>2013-02-09T09:19:01Z</time>
      </trkpt>
      <trkpt lat="44.85478" lon="5.52944">
        <ele>1536</ele>
        <time>2013-02-09T09:19:06Z</time>
      </trkpt>
      <trkpt lat="44.85476" lon="5.5294">
        <ele>1537</ele>
        <time>2013-02-09T09:19:11Z</time>
      </trkpt>
      <trkpt lat="44.85475" lon="5.52936">
        <ele>1538</ele>
        <time>2013-02-09T09:19:16Z</time>
      </trkpt>
      <trkpt lat="44.85475" lon="5.52932">
        <ele>1539</ele>
        <time>2013-02-09T09:19:21Z</time>
      </trkpt>
      <trkpt lat="44.85476" lon="5.52928">
        <ele>1539</ele>
        <time>2013-02-09T09:19:26Z</time>
      </trkpt>
      <trkpt lat="44.85476" lon="5.52924">
        <ele>1540</ele>
        <time>2013-02-09T09:19:31Z</time>
      </trkpt>
      <trkpt lat="44.85475" lon="5.52921">
        <ele>1541</ele>
        <time>2013-02-09T09:19:36Z</time>
      </trkpt>
      <trkpt lat="44.85474" lon="5.52917">
        <ele>1542</ele>
        <time>2013-02-09T09:19:41Z</time>
      </trkpt>
      <trkpt lat="44.85476" lon="5.52914">
        <ele>1543</ele>
        <time>2013-02-09T09:19:46Z</time>
      </trkpt>
      <trkpt lat="44.85477" lon="5.5291">
        <ele>1544</ele>
        <time>2013-02-09T09:19:51Z</time>
      </trkpt>
      <trkpt lat="44.85477" lon="5.52907">
        <ele>1545</ele>
        <time>2013-02-09T09:19:56Z</time>
      </trkpt>
      <trkpt lat="44.85478" lon="5.52903">
        <ele>1546</ele>
        <time>2013-02-09T09:20:01Z</time>
      </trkpt>
      <trkpt lat="44.85477" lon="5.52901">
        <ele>1547</ele>
        <time>2013-02-09T09:20:06Z</time>
      </trkpt>
      <trkpt lat="44.85477" lon="5.52898">
        <ele>1548</ele>
        <time>2013-02-09T09:20:11Z</time>
      </trkpt>
      <trkpt lat="44.85476" lon="5.52895">
        <ele>1549</ele>
        <time>2013-02-09T09:20:16Z</time>
      </trkpt>
      <trkpt lat="44.85475" lon="5.52893">
        <ele>1550</ele>
        <time>2013-02-09T09:20:21Z</time>
      </trkpt>
      <trkpt lat="44.85473" lon="5.52891">
        <ele>1550</ele>
        <time>2013-02-09T09:20:26Z</time>
      </trkpt>
      <trkpt lat="44.8547" lon="5.52889">
        <ele>1551</ele>
        <time>2013-02-09T09:20:31Z</time>
      </trkpt>
      <trkpt lat="44.85468" lon="5.52887">
        <ele>1552</ele>
        <time>2013-02-09T09:20:36Z</time>
      </trkpt>
      <trkpt lat="44.85466" lon="5.52885">
        <ele>1553</ele>
        <time>2013-02-09T09:20:41Z</time>
      </trkpt>
      <trkpt lat="44.85463" lon="5.52884">
        <ele>1553</ele>
        <time>2013-02-09T09:20:46Z</time>
      </trkpt>
      <trkpt lat="44.85461" lon="5.52882">
        <ele>1554</ele>
        <time>2013-02-09T09:20:51Z</time>
      </trkpt>
      <trkpt lat="44.85459" lon="5.52878">
        <ele>1555</ele>
        <time>2013-02-09T09:20:56Z</time>
      </trkpt>
      <trkpt lat="44.85458" lon="5.52875">
        <ele>1556</ele>
        <time>2013-02-09T09:21:01Z</time>
      </trkpt>
      <trkpt lat="44.85457" lon="5.52872">
        <ele>1556</ele>
        <time>2013-02-09T09:21:06Z</time>
      </trkpt>
      <trkpt lat="44.85455" lon="5.5287">
        <ele>1557</ele>
        <time>2013-02-09T09:21:11Z</time>
      </trkpt>
      <trkpt lat="44.85453" lon="5.52867">
        <ele>1558</ele>
        <time>2013-02-09T09:21:16Z</time>
      </trkpt>
      <trkpt lat="44.85451" lon="5.52865">
        <ele>1559</ele>
        <time>2013-02-09T09:21:21Z</time>
      </trkpt>
      <trkpt lat="44.85449" lon="5.52862">
        <ele>1560</ele>
        <time>2013-02-09T09:21:26Z</time>
      </trkpt>
      <trkpt lat="44.85447" lon="5.5286">
        <ele>1561</ele>
        <time>2013-02-09T09:21:31Z</time>
      </trkpt>
      <trkpt lat="44.85445" lon="5.52858">
        <ele>1561</ele>
        <time>2013-02-09T09:21:36Z</time>
      </trkpt>
      <trkpt lat="44.85444" lon="5.52855">
        <ele>1562</ele>
        <time>2013-02-09T09:21:41Z</time>
      </trkpt>
      <trkpt lat="44.85443" lon="5.52853">
        <ele>1563</ele>
        <time>2013-02-09T09:21:46Z</time>
      </trkpt>
      <trkpt lat="44.85441" lon="5.52851">
        <ele>1564</ele>
        <time>2013-02-09T09:21:51Z</time>
      </trkpt>
      <trkpt lat="44.85439" lon="5.52849">
        <ele>1565</ele>
        <time>2013-02-09T09:21:56Z</time>
      </trkpt>
      <trkpt lat="44.85437" lon="5.52847">
        <ele>1565</ele>
        <time>2013-02-09T09:22:01Z</time>
      </trkpt>
      <trkpt lat="44.85435" lon="5.52844">
        <ele>1566</ele>
        <time>2013-02-09T09:22:06Z</time>
      </trkpt>
      <trkpt lat="44.85434" lon="5.52841">
        <ele>1567</ele>
        <time>2013-02-09T09:22:11Z</time>
      </trkpt>
      <trkpt lat="44.85434" lon="5.52838">
        <ele>1568</ele>
        <time>2013-02-09T09:22:16Z</time>
      </trkpt>
      <trkpt lat="44.85433" lon="5.52836">
        <ele>1568</ele>
        <time>2013-02-09T09:22:21Z</time>
      </trkpt>
      <trkpt lat="44.8543" lon="5.52835">
        <ele>1569</ele>
        <time>2013-02-09T09:22:26Z</time>
      </trkpt>
      <trkpt lat="44.85428" lon="5.52833">
        <ele>1570</ele>
        <time>2013-02-09T09:22:31Z</time>
      </trkpt>
      <trkpt lat="44.85428" lon="5.52829">
        <ele>1570</ele>
        <time>2013-02-09T09:22:36Z</time>
      </trkpt>
      <trkpt lat="44.85428" lon="5.52826">
        <ele>1571</ele>
        <time>2013-02-09T09:22:41Z</time>
      </trkpt>
      <trkpt lat="44.85426" lon="5.52825">
        <ele>1572</ele>
        <time>2013-02-09T09:22:46Z</time>
      </trkpt>
      <trkpt lat="44.85424" lon="5.52823">
        <ele>1573</ele>
        <time>2013-02-09T09:22:51Z</time>
      </trkpt>
      <trkpt lat="44.85423" lon="5.5282">
        <ele>1573</ele>
        <time>2013-02-09T09:22:56Z</time>
      </trkpt>
      <trkpt lat="44.85423" lon="5.52818">
        <ele>1574</ele>
        <time>2013-02-09T09:23:01Z</time>
      </trkpt>
      <trkpt lat="44.85423" lon="5.52815">
        <ele>1575</ele>
        <time>2013-02-09T09:23:06Z</time>
      </trkpt>
      <trkpt lat="44.85421" lon="5.52812">
        <ele>1576</ele>
        <time>2013-02-09T09:23:11Z</time>
      </trkpt>
      <trkpt lat="44.8542" lon="5.5281">
        <ele>1576</ele>
        <time>2013-02-09T09:23:16Z</time>
      </trkpt>
      <trkpt lat="44.85418" lon="5.52807">
        <ele>1577</ele>
        <time>2013-02-09T09:23:21Z</time>
      </trkpt>
      <trkpt lat="44.85417" lon="5.52804">
        <ele>1578</ele>
        <time>2013-02-09T09:23:26Z</time>
      </trkpt>
      <trkpt lat="44.85416" lon="5.528">
        <ele>1578</ele>
        <time>2013-02-09T09:23:31Z</time>
      </trkpt>
      <trkpt lat="44.85415" lon="5.52797">
        <ele>1579</ele>
        <time>2013-02-09T09:23:36Z</time>
      </trkpt>
      <trkpt lat="44.85413" lon="5.52795">
        <ele>1580</ele>
        <time>2013-02-09T09:23:41Z</time>
      </trkpt>
      <trkpt lat="44.85412" lon="5.52792">
        <ele>1581</ele>
        <time>2013-02-09T09:23:46Z</time>
      </trkpt>
      <trkpt lat="44.85412" lon="5.52789">
        <ele>1582</ele>
        <time>2013-02-09T09:23:51Z</time>
      </trkpt>
      <trkpt lat="44.85411" lon="5.52788">
        <ele>1583</ele>
        <time>2013-02-09T09:23:56Z</time>
      </trkpt>
      <trkpt lat="44.85408" lon="5.52786">
        <ele>1583</ele>
        <time>2013-02-09T09:24:01Z</time>
      </trkpt>
      <trkpt lat="44.85408" lon="5.52783">
        <ele>1584</ele>
        <time>2013-02-09T09:24:06Z</time>
      </trkpt>
      <trkpt lat="44.85407" lon="5.52781">
        <ele>1585</ele>
        <time>2013-02-09T09:24:11Z</time>
      </trkpt>
      <trkpt lat="44.85405" lon="5.52778">
        <ele>1586</ele>
        <time>2013-02-09T09:24:16Z</time>
      </trkpt>
      <trkpt lat="44.85403" lon="5.52776">
        <ele>1587</ele>
        <time>2013-02-09T09:24:21Z</time>
      </trkpt>
      <trkpt lat="44.85401" lon="5.52774">
        <ele>1587</ele>
        <time>2013-02-09T09:24:26Z</time>
      </trkpt>
      <trkpt lat="44.85399" lon="5.52773">
        <ele>1588</ele>
        <time>2013-02-09T09:24:31Z</time>
      </trkpt>
      <trkpt lat="44.85397" lon="5.52772">
        <ele>1589</ele>
        <time>2013-02-09T09:24:36Z</time>
      </trkpt>
      <trkpt lat="44.85395" lon="5.5277">
        <ele>1590</ele>
        <time>2013-02-09T09:24:41Z</time>
      </trkpt>
      <trkpt lat="44.85394" lon="5.52767">
        <ele>1590</ele>
        <time>2013-02-09T09:24:46Z</time>
      </trkpt>
      <trkpt lat="44.85393" lon="5.52764">
        <ele>1591</ele>
        <time>2013-02-09T09:24:51Z</time>
      </trkpt>
      <trkpt lat="44.85392" lon="5.52761">
        <ele>1592</ele>
        <time>2013-02-09T09:24:56Z</time>
      </trkpt>
      <trkpt lat="44.85392" lon="5.52758">
        <ele>1593</ele>
        <time>2013-02-09T09:25:01Z</time>
      </trkpt>
      <trkpt lat="44.8539" lon="5.52757">
        <ele>1593</ele>
        <time>2013-02-09T09:25:06Z</time>
      </trkpt>
      <trkpt lat="44.85388" lon="5.52757">
        <ele>1594</ele>
        <time>2013-02-09T09:25:11Z</time>
      </trkpt>
      <trkpt lat="44.85388" lon="5.52755">
        <ele>1594</ele>
        <time>2013-02-09T09:25:16Z</time>
      </trkpt>
      <trkpt lat="44.85387" lon="5.52752">
        <ele>1595</ele>
        <time>2013-02-09T09:25:21Z</time>
      </trkpt>
      <trkpt lat="44.85386" lon="5.52749">
        <ele>1596</ele>
        <time>2013-02-09T09:25:26Z</time>
      </trkpt>
      <trkpt lat="44.85385" lon="5.52747">
        <ele>1597</ele>
        <time>2013-02-09T09:25:31Z</time>
      </trkpt>
      <trkpt lat="44.85384" lon="5.52744">
        <ele>1598</ele>
        <time>2013-02-09T09:25:36Z</time>
      </trkpt>
      <trkpt lat="44.85382" lon="5.52742">
        <ele>1598</ele>
        <time>2013-02-09T09:25:41Z</time>
      </trkpt>
      <trkpt lat="44.85381" lon="5.5274">
        <ele>1599</ele>
        <time>2013-02-09T09:25:46Z</time>
      </trkpt>
      <trkpt lat="44.85379" lon="5.52737">
        <ele>1600</ele>
        <time>2013-02-09T09:25:51Z</time>
      </trkpt>
      <trkpt lat="44.85378" lon="5.52735">
        <ele>1601</ele>
        <time>2013-02-09T09:25:56Z</time>
      </trkpt>
      <trkpt lat="44.85378" lon="5.52733">
        <ele>1601</ele>
        <time>2013-02-09T09:26:01Z</time>
      </trkpt>
      <trkpt lat="44.85376" lon="5.5273">
        <ele>1602</ele>
        <time>2013-02-09T09:26:06Z</time>
      </trkpt>
      <trkpt lat="44.85376" lon="5.52727">
        <ele>1603</ele>
        <time>2013-02-09T09:26:11Z</time>
      </trkpt>
      <trkpt lat="44.85375" lon="5.52725">
        <ele>1604</ele>
        <time>2013-02-09T09:26:16Z</time>
      </trkpt>
      <trkpt lat="44.85375" lon="5.52722">
        <ele>1604</ele>
        <time>2013-02-09T09:26:21Z</time>
      </trkpt>
      <trkpt lat="44.85374" lon="5.5272">
        <ele>1605</ele>
        <time>2013-02-09T09:26:26Z</time>
      </trkpt>
      <trkpt lat="44.85373" lon="5.52718">
        <ele>1606</ele>
        <time>2013-02-09T09:26:31Z</time>
      </trkpt>
      <trkpt lat="44.85372" lon="5.52717">
        <ele>1606</ele>
        <time>2013-02-09T09:26:36Z</time>
      </trkpt>
      <trkpt lat="44.85371" lon="5.52716">
        <ele>1607</ele>
        <time>2013-02-09T09:26:41Z</time>
      </trkpt>
      <trkpt lat="44.85369" lon="5.52717">
        <ele>1608</ele>
        <time>2013-02-09T09:26:46Z</time>
      </trkpt>
      <trkpt lat="44.85368" lon="5.52718">
        <ele>1609</ele>
        <time>2013-02-09T09:26:51Z</time>
      </trkpt>
      <trkpt lat="44.85366" lon="5.52719">
        <ele>1609</ele>
        <time>2013-02-09T09:26:56Z</time>
      </trkpt>
      <trkpt lat="44.85365" lon="5.5272">
        <ele>1609</ele>
        <time>2013-02-09T09:27:01Z</time>
      </trkpt>
      <trkpt lat="44.85364" lon="5.52721">
        <ele>1610</ele>
        <time>2013-02-09T09:27:06Z</time>
      </trkpt>
      <trkpt lat="44.85362" lon="5.52722">
        <ele>1610</ele>
        <time>2013-02-09T09:27:11Z</time>
      </trkpt>
      <trkpt lat="44.8536" lon="5.52722">
        <ele>1611</ele>
        <time>2013-02-09T09:27:16Z</time>
      </trkpt>
      <trkpt lat="44.85358" lon="5.52721">
        <ele>1611</ele>
        <time>2013-02-09T09:27:21Z</time>
      </trkpt>
      <trkpt lat="44.85356" lon="5.5272">
        <ele>1612</ele>
        <time>2013-02-09T09:27:26Z</time>
      </trkpt>
      <trkpt lat="44.85355" lon="5.52719">
        <ele>1613</ele>
        <time>2013-02-09T09:27:31Z</time>
      </trkpt>
      <trkpt lat="44.85354" lon="5.52717">
        <ele>1613</ele>
        <time>2013-02-09T09:27:36Z</time>
      </trkpt>
      <trkpt lat="44.85352" lon="5.52716">
        <ele>1614</ele>
        <time>2013-02-09T09:27:41Z</time>
      </trkpt>
      <trkpt lat="44.8535" lon="5.52715">
        <ele>1615</ele>
        <time>2013-02-09T09:27:46Z</time>
      </trkpt>
      <trkpt lat="44.85348" lon="5.52714">
        <ele>1615</ele>
        <time>2013-02-09T09:27:51Z</time>
      </trkpt>
      <trkpt lat="44.85346" lon="5.52713">
        <ele>1616</ele>
        <time>2013-02-09T09:27:56Z</time>
      </trkpt>
      <trkpt lat="44.85344" lon="5.52711">
        <ele>1617</ele>
        <time>2013-02-09T09:28:01Z</time>
      </trkpt>
      <trkpt lat="44.85342" lon="5.5271">
        <ele>1617</ele>
        <time>2013-02-09T09:28:06Z</time>
      </trkpt>
      <trkpt lat="44.85341" lon="5.52708">
        <ele>1618</ele>
        <time>2013-02-09T09:28:11Z</time>
      </trkpt>
      <trkpt lat="44.85339" lon="5.52706">
        <ele>1619</ele>
        <time>2013-02-09T09:28:16Z</time>
      </trkpt>
      <trkpt lat="44.85338" lon="5.52704">
        <ele>1620</ele>
        <time>2013-02-09T09:28:21Z</time>
      </trkpt>
      <trkpt lat="44.85337" lon="5.52702">
        <ele>1620</ele>
        <time>2013-02-09T09:28:26Z</time>
      </trkpt>
      <trkpt lat="44.85336" lon="5.52701">
        <ele>1621</ele>
        <time>2013-02-09T09:28:31Z</time>
      </trkpt>
      <trkpt lat="44.85334" lon="5.527">
        <ele>1622</ele>
        <time>2013-02-09T09:28:36Z</time>
      </trkpt>
      <trkpt lat="44.85332" lon="5.52698">
        <ele>1623</ele>
        <time>2013-02-09T09:28:41Z</time>
      </trkpt>
      <trkpt lat="44.85331" lon="5.52696">
        <ele>1624</ele>
        <time>2013-02-09T09:28:46Z</time>
      </trkpt>
      <trkpt lat="44.8533" lon="5.52694">
        <ele>1624</ele>
        <time>2013-02-09T09:28:51Z</time>
      </trkpt>
      <trkpt lat="44.8533" lon="5.52692">
        <ele>1625</ele>
        <time>2013-02-09T09:28:56Z</time>
      </trkpt>
      <trkpt lat="44.85329" lon="5.52689">
        <ele>1626</ele>
        <time>2013-02-09T09:29:01Z</time>
      </trkpt>
      <trkpt lat="44.85328" lon="5.52687">
        <ele>1627</ele>
        <time>2013-02-09T09:29:06Z</time>
      </trkpt>
      <trkpt lat="44.85326" lon="5.52689">
        <ele>1627</ele>
        <time>2013-02-09T09:29:11Z</time>
      </trkpt>
      <trkpt lat="44.85325" lon="5.52691">
        <ele>1628</ele>
        <time>2013-02-09T09:29:16Z</time>
      </trkpt>
      <trkpt lat="44.85323" lon="5.52693">
        <ele>1629</ele>
        <time>2013-02-09T09:29:21Z</time>
      </trkpt>
      <trkpt lat="44.85321" lon="5.52695">
        <ele>1630</ele>
        <time>2013-02-09T09:29:26Z</time>
      </trkpt>
      <trkpt lat="44.8532" lon="5.52697">
        <ele>1631</ele>
        <time>2013-02-09T09:29:31Z</time>
      </trkpt>
      <trkpt lat="44.85319" lon="5.52699">
        <ele>1632</ele>
        <time>2013-02-09T09:29:36Z</time>
      </trkpt>
      <trkpt lat="44.85318" lon="5.52702">
        <ele>1632</ele>
        <time>2013-02-09T09:29:41Z</time>
      </trkpt>
      <trkpt lat="44.85317" lon="5.52705">
        <ele>1633</ele>
        <time>2013-02-09T09:29:46Z</time>
      </trkpt>
      <trkpt lat="44.85315" lon="5.52707">
        <ele>1634</ele>
        <time>2013-02-09T09:29:51Z</time>
      </trkpt>
      <trkpt lat="44.85313" lon="5.52709">
        <ele>1635</ele>
        <time>2013-02-09T09:29:56Z</time>
      </trkpt>
      <trkpt lat="44.85312" lon="5.52711">
        <ele>1635</ele>
        <time>2013-02-09T09:30:01Z</time>
      </trkpt>
      <trkpt lat="44.8531" lon="5.52713">
        <ele>1636</ele>
        <time>2013-02-09T09:30:06Z</time>
      </trkpt>
      <trkpt lat="44.8531" lon="5.52714">
        <ele>1636</ele>
        <time>2013-02-09T09:30:11Z</time>
      </trkpt>
      <trkpt lat="44.85309" lon="5.52715">
        <ele>1636</ele>
        <time>2013-02-09T09:30:16Z</time>
      </trkpt>
      <trkpt lat="44.85307" lon="5.52717">
        <ele>1637</ele>
        <time>2013-02-09T09:30:21Z</time>
      </trkpt>
      <trkpt lat="44.85307" lon="5.52716">
        <ele>1637</ele>
        <time>2013-02-09T09:30:26Z</time>
      </trkpt>
      <trkpt lat="44.85305" lon="5.52714">
        <ele>1638</ele>
        <time>2013-02-09T09:30:31Z</time>
      </trkpt>
      <trkpt lat="44.85304" lon="5.52711">
        <ele>1639</ele>
        <time>2013-02-09T09:30:36Z</time>
      </trkpt>
      <trkpt lat="44.85303" lon="5.52709">
        <ele>1640</ele>
        <time>2013-02-09T09:30:41Z</time>
      </trkpt>
      <trkpt lat="44.85302" lon="5.52706">
        <ele>1640</ele>
        <time>2013-02-09T09:30:46Z</time>
      </trkpt>
      <trkpt lat="44.85301" lon="5.52703">
        <ele>1641</ele>
        <time>2013-02-09T09:30:51Z</time>
      </trkpt>
      <trkpt lat="44.853" lon="5.527">
        <ele>1642</ele>
        <time>2013-02-09T09:30:56Z</time>
      </trkpt>
      <trkpt lat="44.85299" lon="5.52698">
        <ele>1643</ele>
        <time>2013-02-09T09:31:01Z</time>
      </trkpt>
      <trkpt lat="44.85297" lon="5.52695">
        <ele>1644</ele>
        <time>2013-02-09T09:31:06Z</time>
      </trkpt>
      <trkpt lat="44.85296" lon="5.52693">
        <ele>1644</ele>
        <time>2013-02-09T09:31:11Z</time>
      </trkpt>
      <trkpt lat="44.85295" lon="5.52691">
        <ele>1645</ele>
        <time>2013-02-09T09:31:16Z</time>
      </trkpt>
      <trkpt lat="44.85294" lon="5.52688">
        <ele>1645</ele>
        <time>2013-02-09T09:31:21Z</time>
      </trkpt>
      <trkpt lat="44.85294" lon="5.52685">
        <ele>1646</ele>
        <time>2013-02-09T09:31:26Z</time>
      </trkpt>
      <trkpt lat="44.85293" lon="5.52683">
        <ele>1647</ele>
        <time>2013-02-09T09:31:31Z</time>
      </trkpt>
      <trkpt lat="44.85292" lon="5.5268">
        <ele>1647</ele>
        <time>2013-02-09T09:31:36Z</time>
      </trkpt>
      <trkpt lat="44.85291" lon="5.52677">
        <ele>1648</ele>
        <time>2013-02-09T09:31:41Z</time>
      </trkpt>
      <trkpt lat="44.8529" lon="5.52674">
        <ele>1649</ele>
        <time>2013-02-09T09:31:46Z</time>
      </trkpt>
      <trkpt lat="44.85289" lon="5.52672">
        <ele>1650</ele>
        <time>2013-02-09T09:31:51Z</time>
      </trkpt>
      <trkpt lat="44.85289" lon="5.52669">
        <ele>1651</ele>
        <time>2013-02-09T09:31:56Z</time>
      </trkpt>
      <trkpt lat="44.85288" lon="5.52666">
        <ele>1651</ele>
        <time>2013-02-09T09:32:01Z</time>
      </trkpt>
      <trkpt lat="44.85288" lon="5.52665">
        <ele>1652</ele>
        <time>2013-02-09T09:32:06Z</time>
      </trkpt>
      <trkpt lat="44.85288" lon="5.52661">
        <ele>1652</ele>
        <time>2013-02-09T09:32:11Z</time>
      </trkpt>
      <trkpt lat="44.85287" lon="5.52658">
        <ele>1653</ele>
        <time>2013-02-09T09:32:16Z</time>
      </trkpt>
      <trkpt lat="44.85286" lon="5.52655">
        <ele>1654</ele>
        <time>2013-02-09T09:32:21Z</time>
      </trkpt>
      <trkpt lat="44.85286" lon="5.52653">
        <ele>1655</ele>
        <time>2013-02-09T09:32:26Z</time>
      </trkpt>
      <trkpt lat="44.85285" lon="5.52649">
        <ele>1656</ele>
        <time>2013-02-09T09:32:31Z</time>
      </trkpt>
      <trkpt lat="44.85284" lon="5.52646">
        <ele>1656</ele>
        <time>2013-02-09T09:32:36Z</time>
      </trkpt>
      <trkpt lat="44.85284" lon="5.52643">
        <ele>1657</ele>
        <time>2013-02-09T09:32:41Z</time>
      </trkpt>
      <trkpt lat="44.85283" lon="5.52639">
        <ele>1658</ele>
        <time>2013-02-09T09:32:46Z</time>
      </trkpt>
      <trkpt lat="44.85281" lon="5.52636">
        <ele>1658</ele>
        <time>2013-02-09T09:32:51Z</time>
      </trkpt>
      <trkpt lat="44.85281" lon="5.52633">
        <ele>1659</ele>
        <time>2013-02-09T09:32:56Z</time>
      </trkpt>
      <trkpt lat="44.8528" lon="5.52631">
        <ele>1660</ele>
        <time>2013-02-09T09:33:01Z</time>
      </trkpt>
      <trkpt lat="44.85278" lon="5.52633">
        <ele>1661</ele>
        <time>2013-02-09T09:33:06Z</time>
      </trkpt>
      <trkpt lat="44.85277" lon="5.52634">
        <ele>1661</ele>
        <time>2013-02-09T09:33:11Z</time>
      </trkpt>
      <trkpt lat="44.85276" lon="5.52636">
        <ele>1661</ele>
        <time>2013-02-09T09:33:16Z</time>
      </trkpt>
      <trkpt lat="44.85273" lon="5.52638">
        <ele>1662</ele>
        <time>2013-02-09T09:33:21Z</time>
      </trkpt>
      <trkpt lat="44.85272" lon="5.5264">
        <ele>1662</ele>
        <time>2013-02-09T09:33:26Z</time>
      </trkpt>
      <trkpt lat="44.8527" lon="5.52641">
        <ele>1663</ele>
        <time>2013-02-09T09:33:31Z</time>
      </trkpt>
      <trkpt lat="44.85268" lon="5.52643">
        <ele>1664</ele>
        <time>2013-02-09T09:33:36Z</time>
      </trkpt>
      <trkpt lat="44.85267" lon="5.52644">
        <ele>1665</ele>
        <time>2013-02-09T09:33:41Z</time>
      </trkpt>
      <trkpt lat="44.85264" lon="5.52642">
        <ele>1658</ele>
        <time>2013-02-09T09:50:46Z</time>
      </trkpt>
      <trkpt lat="44.85262" lon="5.52643">
        <ele>1659</ele>
        <time>2013-02-09T09:50:51Z</time>
      </trkpt>
      <trkpt lat="44.85259" lon="5.52644">
        <ele>1661</ele>
        <time>2013-02-09T09:50:56Z</time>
      </trkpt>
      <trkpt lat="44.85257" lon="5.52645">
        <ele>1662</ele>
        <time>2013-02-09T09:51:01Z</time>
      </trkpt>
      <trkpt lat="44.85254" lon="5.52646">
        <ele>1664</ele>
        <time>2013-02-09T09:51:06Z</time>
      </trkpt>
      <trkpt lat="44.85252" lon="5.52647">
        <ele>1665</ele>
        <time>2013-02-09T09:51:11Z</time>
      </trkpt>
      <trkpt lat="44.8525" lon="5.52648">
        <ele>1667</ele>
        <time>2013-02-09T09:51:16Z</time>
      </trkpt>
      <trkpt lat="44.85248" lon="5.52649">
        <ele>1668</ele>
        <time>2013-02-09T09:51:21Z</time>
      </trkpt>
      <trkpt lat="44.85246" lon="5.5265">
        <ele>1669</ele>
        <time>2013-02-09T09:51:26Z</time>
      </trkpt>
      <trkpt lat="44.85244" lon="5.52651">
        <ele>1670</ele>
        <time>2013-02-09T09:51:31Z</time>
      </trkpt>
      <trkpt lat="44.85242" lon="5.52653">
        <ele>1672</ele>
        <time>2013-02-09T09:51:36Z</time>
      </trkpt>
      <trkpt lat="44.85241" lon="5.52653">
        <ele>1673</ele>
        <time>2013-02-09T09:51:41Z</time>
      </trkpt>
      <trkpt lat="44.8524" lon="5.52649">
        <ele>1673</ele>
        <time>2013-02-09T09:51:46Z</time>
      </trkpt>
      <trkpt lat="44.85238" lon="5.52646">
        <ele>1674</ele>
        <time>2013-02-09T09:51:51Z</time>
      </trkpt>
      <trkpt lat="44.85237" lon="5.52643">
        <ele>1675</ele>
        <time>2013-02-09T09:51:56Z</time>
      </trkpt>
      <trkpt lat="44.85235" lon="5.5264">
        <ele>1677</ele>
        <time>2013-02-09T09:52:01Z</time>
      </trkpt>
      <trkpt lat="44.85235" lon="5.52638">
        <ele>1678</ele>
        <time>2013-02-09T09:52:06Z</time>
      </trkpt>
      <trkpt lat="44.85233" lon="5.52636">
        <ele>1679</ele>
        <time>2013-02-09T09:52:11Z</time>
      </trkpt>
      <trkpt lat="44.85232" lon="5.52633">
        <ele>1679</ele>
        <time>2013-02-09T09:52:16Z</time>
      </trkpt>
      <trkpt lat="44.85232" lon="5.52631">
        <ele>1680</ele>
        <time>2013-02-09T09:52:21Z</time>
      </trkpt>
      <trkpt lat="44.85231" lon="5.52628">
        <ele>1681</ele>
        <time>2013-02-09T09:52:26Z</time>
      </trkpt>
      <trkpt lat="44.85229" lon="5.52625">
        <ele>1682</ele>
        <time>2013-02-09T09:52:31Z</time>
      </trkpt>
      <trkpt lat="44.85228" lon="5.52622">
        <ele>1682</ele>
        <time>2013-02-09T09:52:36Z</time>
      </trkpt>
      <trkpt lat="44.85227" lon="5.52618">
        <ele>1683</ele>
        <time>2013-02-09T09:52:41Z</time>
      </trkpt>
      <trkpt lat="44.85226" lon="5.52615">
        <ele>1684</ele>
        <time>2013-02-09T09:52:46Z</time>
      </trkpt>
      <trkpt lat="44.85225" lon="5.52613">
        <ele>1685</ele>
        <time>2013-02-09T09:52:51Z</time>
      </trkpt>
      <trkpt lat="44.85225" lon="5.52612">
        <ele>1685</ele>
        <time>2013-02-09T09:52:56Z</time>
      </trkpt>
      <trkpt lat="44.85224" lon="5.5261">
        <ele>1686</ele>
        <time>2013-02-09T09:53:01Z</time>
      </trkpt>
      <trkpt lat="44.85223" lon="5.52607">
        <ele>1687</ele>
        <time>2013-02-09T09:53:06Z</time>
      </trkpt>
      <trkpt lat="44.85222" lon="5.52604">
        <ele>1688</ele>
        <time>2013-02-09T09:53:11Z</time>
      </trkpt>
      <trkpt lat="44.85221" lon="5.52602">
        <ele>1689</ele>
        <time>2013-02-09T09:53:16Z</time>
      </trkpt>
      <trkpt lat="44.8522" lon="5.526">
        <ele>1690</ele>
        <time>2013-02-09T09:53:21Z</time>
      </trkpt>
      <trkpt lat="44.85219" lon="5.52597">
        <ele>1691</ele>
        <time>2013-02-09T09:53:26Z</time>
      </trkpt>
      <trkpt lat="44.85217" lon="5.52595">
        <ele>1691</ele>
        <time>2013-02-09T09:53:31Z</time>
      </trkpt>
      <trkpt lat="44.85216" lon="5.52592">
        <ele>1692</ele>
        <time>2013-02-09T09:53:36Z</time>
      </trkpt>
      <trkpt lat="44.85215" lon="5.5259">
        <ele>1693</ele>
        <time>2013-02-09T09:53:41Z</time>
      </trkpt>
      <trkpt lat="44.85215" lon="5.52588">
        <ele>1694</ele>
        <time>2013-02-09T09:53:46Z</time>
      </trkpt>
      <trkpt lat="44.85214" lon="5.52585">
        <ele>1695</ele>
        <time>2013-02-09T09:53:51Z</time>
      </trkpt>
      <trkpt lat="44.85213" lon="5.52583">
        <ele>1696</ele>
        <time>2013-02-09T09:53:56Z</time>
      </trkpt>
      <trkpt lat="44.85212" lon="5.52579">
        <ele>1697</ele>
        <time>2013-02-09T09:54:01Z</time>
      </trkpt>
      <trkpt lat="44.85212" lon="5.52576">
        <ele>1698</ele>
        <time>2013-02-09T09:54:06Z</time>
      </trkpt>
      <trkpt lat="44.85212" lon="5.52573">
        <ele>1698</ele>
        <time>2013-02-09T09:54:11Z</time>
      </trkpt>
      <trkpt lat="44.85212" lon="5.52571">
        <ele>1699</ele>
        <time>2013-02-09T09:54:16Z</time>
      </trkpt>
      <trkpt lat="44.85212" lon="5.52569">
        <ele>1700</ele>
        <time>2013-02-09T09:54:21Z</time>
      </trkpt>
      <trkpt lat="44.85211" lon="5.52566">
        <ele>1701</ele>
        <time>2013-02-09T09:54:26Z</time>
      </trkpt>
      <trkpt lat="44.8521" lon="5.52563">
        <ele>1702</ele>
        <time>2013-02-09T09:54:31Z</time>
      </trkpt>
      <trkpt lat="44.85209" lon="5.52561">
        <ele>1702</ele>
        <time>2013-02-09T09:54:36Z</time>
      </trkpt>
      <trkpt lat="44.85208" lon="5.52559">
        <ele>1703</ele>
        <time>2013-02-09T09:54:41Z</time>
      </trkpt>
      <trkpt lat="44.85207" lon="5.52557">
        <ele>1704</ele>
        <time>2013-02-09T09:54:46Z</time>
      </trkpt>
      <trkpt lat="44.85206" lon="5.52556">
        <ele>1704</ele>
        <time>2013-02-09T09:54:51Z</time>
      </trkpt>
      <trkpt lat="44.85205" lon="5.52554">
        <ele>1705</ele>
        <time>2013-02-09T09:54:56Z</time>
      </trkpt>
      <trkpt lat="44.85204" lon="5.52552">
        <ele>1706</ele>
        <time>2013-02-09T09:55:01Z</time>
      </trkpt>
      <trkpt lat="44.85202" lon="5.52551">
        <ele>1706</ele>
        <time>2013-02-09T09:55:06Z</time>
      </trkpt>
      <trkpt lat="44.85202" lon="5.52549">
        <ele>1707</ele>
        <time>2013-02-09T09:55:11Z</time>
      </trkpt>
      <trkpt lat="44.85201" lon="5.52547">
        <ele>1708</ele>
        <time>2013-02-09T09:55:16Z</time>
      </trkpt>
      <trkpt lat="44.85199" lon="5.52545">
        <ele>1708</ele>
        <time>2013-02-09T09:55:21Z</time>
      </trkpt>
      <trkpt lat="44.85198" lon="5.52543">
        <ele>1709</ele>
        <time>2013-02-09T09:55:26Z</time>
      </trkpt>
      <trkpt lat="44.85197" lon="5.52541">
        <ele>1710</ele>
        <time>2013-02-09T09:55:31Z</time>
      </trkpt>
      <trkpt lat="44.85196" lon="5.5254">
        <ele>1711</ele>
        <time>2013-02-09T09:55:36Z</time>
      </trkpt>
      <trkpt lat="44.85196" lon="5.52538">
        <ele>1711</ele>
        <time>2013-02-09T09:55:41Z</time>
      </trkpt>
      <trkpt lat="44.85195" lon="5.52535">
        <ele>1712</ele>
        <time>2013-02-09T09:55:46Z</time>
      </trkpt>
      <trkpt lat="44.85194" lon="5.52533">
        <ele>1713</ele>
        <time>2013-02-09T09:55:51Z</time>
      </trkpt>
      <trkpt lat="44.85193" lon="5.52531">
        <ele>1713</ele>
        <time>2013-02-09T09:55:56Z</time>
      </trkpt>
      <trkpt lat="44.85192" lon="5.52529">
        <ele>1714</ele>
        <time>2013-02-09T09:56:01Z</time>
      </trkpt>
      <trkpt lat="44.85191" lon="5.52527">
        <ele>1714</ele>
        <time>2013-02-09T09:56:06Z</time>
      </trkpt>
      <trkpt lat="44.8519" lon="5.52525">
        <ele>1715</ele>
        <time>2013-02-09T09:56:11Z</time>
      </trkpt>
      <trkpt lat="44.85189" lon="5.52522">
        <ele>1715</ele>
        <time>2013-02-09T09:56:16Z</time>
      </trkpt>
      <trkpt lat="44.85188" lon="5.5252">
        <ele>1716</ele>
        <time>2013-02-09T09:56:21Z</time>
      </trkpt>
      <trkpt lat="44.85186" lon="5.52518">
        <ele>1717</ele>
        <time>2013-02-09T09:56:26Z</time>
      </trkpt>
      <trkpt lat="44.85186" lon="5.52516">
        <ele>1717</ele>
        <time>2013-02-09T09:56:31Z</time>
      </trkpt>
      <trkpt lat="44.85185" lon="5.52513">
        <ele>1718</ele>
        <time>2013-02-09T09:56:36Z</time>
      </trkpt>
      <trkpt lat="44.85185" lon="5.52514">
        <ele>1718</ele>
        <time>2013-02-09T09:56:41Z</time>
      </trkpt>
      <trkpt lat="44.85185" lon="5.52513">
        <ele>1717</ele>
        <time>2013-02-09T09:56:46Z</time>
      </trkpt>
      <trkpt lat="44.85186" lon="5.52512">
        <ele>1715</ele>
        <time>2013-02-09T09:56:51Z</time>
      </trkpt>
      <trkpt lat="44.85186" lon="5.52513">
        <ele>1715</ele>
        <time>2013-02-09T09:56:56Z</time>
      </trkpt>
      <trkpt lat="44.85186" lon="5.52512">
        <ele>1714</ele>
        <time>2013-02-09T09:57:01Z</time>
      </trkpt>
      <trkpt lat="44.85185" lon="5.52511">
        <ele>1714</ele>
        <time>2013-02-09T09:57:06Z</time>
      </trkpt>
      <trkpt lat="44.85185" lon="5.52513">
        <ele>1716</ele>
        <time>2013-02-09T09:57:11Z</time>
      </trkpt>
      <trkpt lat="44.85185" lon="5.52514">
        <ele>1716</ele>
        <time>2013-02-09T09:57:16Z</time>
      </trkpt>
      <trkpt lat="44.85185" lon="5.52513">
        <ele>1716</ele>
        <time>2013-02-09T09:57:21Z</time>
      </trkpt>
      <trkpt lat="44.85185" lon="5.52512">
        <ele>1714</ele>
        <time>2013-02-09T09:57:26Z</time>
      </trkpt>
      <trkpt lat="44.85184" lon="5.52511">
        <ele>1711</ele>
        <time>2013-02-09T09:57:31Z</time>
      </trkpt>
      <trkpt lat="44.85183" lon="5.52509">
        <ele>1708</ele>
        <time>2013-02-09T09:57:36Z</time>
      </trkpt>
      <trkpt lat="44.85183" lon="5.52509">
        <ele>1707</ele>
        <time>2013-02-09T09:57:41Z</time>
      </trkpt>
      <trkpt lat="44.85184" lon="5.52505">
        <ele>1703</ele>
        <time>2013-02-09T09:57:46Z</time>
      </trkpt>
      <trkpt lat="44.85185" lon="5.52504">
        <ele>1701</ele>
        <time>2013-02-09T09:57:51Z</time>
      </trkpt>
      <trkpt lat="44.85185" lon="5.52504">
        <ele>1700</ele>
        <time>2013-02-09T09:57:56Z</time>
      </trkpt>
      <trkpt lat="44.85184" lon="5.52506">
        <ele>1703</ele>
        <time>2013-02-09T09:58:01Z</time>
      </trkpt>
      <trkpt lat="44.85183" lon="5.52507">
        <ele>1704</ele>
        <time>2013-02-09T09:58:06Z</time>
      </trkpt>
      <trkpt lat="44.85182" lon="5.52508">
        <ele>1706</ele>
        <time>2013-02-09T09:58:11Z</time>
      </trkpt>
      <trkpt lat="44.85183" lon="5.52507">
        <ele>1705</ele>
        <time>2013-02-09T09:58:16Z</time>
      </trkpt>
      <trkpt lat="44.85183" lon="5.52509">
        <ele>1707</ele>
        <time>2013-02-09T09:58:21Z</time>
      </trkpt>
      <trkpt lat="44.85183" lon="5.52509">
        <ele>1708</ele>
        <time>2013-02-09T09:58:26Z</time>
      </trkpt>
      <trkpt lat="44.85183" lon="5.52509">
        <ele>1711</ele>
        <time>2013-02-09T09:58:31Z</time>
      </trkpt>
      <trkpt lat="44.85181" lon="5.52507">
        <ele>1713</ele>
        <time>2013-02-09T09:58:36Z</time>
      </trkpt>
      <trkpt lat="44.85179" lon="5.52504">
        <ele>1714</ele>
        <time>2013-02-09T09:58:41Z</time>
      </trkpt>
      <trkpt lat="44.85177" lon="5.52501">
        <ele>1716</ele>
        <time>2013-02-09T09:58:46Z</time>
      </trkpt>
      <trkpt lat="44.85176" lon="5.52499">
        <ele>1718</ele>
        <time>2013-02-09T09:58:51Z</time>
      </trkpt>
      <trkpt lat="44.85175" lon="5.52496">
        <ele>1719</ele>
        <time>2013-02-09T09:58:56Z</time>
      </trkpt>
      <trkpt lat="44.85173" lon="5.52493">
        <ele>1720</ele>
        <time>2013-02-09T09:59:01Z</time>
      </trkpt>
      <trkpt lat="44.85172" lon="5.5249">
        <ele>1722</ele>
        <time>2013-02-09T09:59:06Z</time>
      </trkpt>
      <trkpt lat="44.85171" lon="5.52487">
        <ele>1723</ele>
        <time>2013-02-09T09:59:11Z</time>
      </trkpt>
      <trkpt lat="44.8517" lon="5.52484">
        <ele>1724</ele>
        <time>2013-02-09T09:59:16Z</time>
      </trkpt>
      <trkpt lat="44.85169" lon="5.52481">
        <ele>1725</ele>
        <time>2013-02-09T09:59:21Z</time>
      </trkpt>
      <trkpt lat="44.85167" lon="5.52478">
        <ele>1726</ele>
        <time>2013-02-09T09:59:26Z</time>
      </trkpt>
      <trkpt lat="44.85166" lon="5.52475">
        <ele>1727</ele>
        <time>2013-02-09T09:59:31Z</time>
      </trkpt>
      <trkpt lat="44.85165" lon="5.52472">
        <ele>1728</ele>
        <time>2013-02-09T09:59:36Z</time>
      </trkpt>
      <trkpt lat="44.85164" lon="5.52469">
        <ele>1730</ele>
        <time>2013-02-09T09:59:41Z</time>
      </trkpt>
      <trkpt lat="44.85162" lon="5.52467">
        <ele>1731</ele>
        <time>2013-02-09T09:59:46Z</time>
      </trkpt>
      <trkpt lat="44.8516" lon="5.52468">
        <ele>1732</ele>
        <time>2013-02-09T09:59:51Z</time>
      </trkpt>
      <trkpt lat="44.85159" lon="5.52468">
        <ele>1732</ele>
        <time>2013-02-09T09:59:56Z</time>
      </trkpt>
      <trkpt lat="44.85158" lon="5.52469">
        <ele>1733</ele>
        <time>2013-02-09T10:00:01Z</time>
      </trkpt>
      <trkpt lat="44.85157" lon="5.52471">
        <ele>1734</ele>
        <time>2013-02-09T10:00:06Z</time>
      </trkpt>
      <trkpt lat="44.85156" lon="5.52472">
        <ele>1735</ele>
        <time>2013-02-09T10:00:11Z</time>
      </trkpt>
      <trkpt lat="44.85154" lon="5.52469">
        <ele>1735</ele>
        <time>2013-02-09T10:00:16Z</time>
      </trkpt>
      <trkpt lat="44.85154" lon="5.52465">
        <ele>1736</ele>
        <time>2013-02-09T10:00:21Z</time>
      </trkpt>
      <trkpt lat="44.85154" lon="5.52461">
        <ele>1737</ele>
        <time>2013-02-09T10:00:26Z</time>
      </trkpt>
      <trkpt lat="44.85153" lon="5.52458">
        <ele>1738</ele>
        <time>2013-02-09T10:00:31Z</time>
      </trkpt>
      <trkpt lat="44.85153" lon="5.52454">
        <ele>1738</ele>
        <time>2013-02-09T10:00:36Z</time>
      </trkpt>
      <trkpt lat="44.85153" lon="5.52451">
        <ele>1739</ele>
        <time>2013-02-09T10:00:41Z</time>
      </trkpt>
      <trkpt lat="44.85151" lon="5.5245">
        <ele>1740</ele>
        <time>2013-02-09T10:00:46Z</time>
      </trkpt>
      <trkpt lat="44.85148" lon="5.5245">
        <ele>1741</ele>
        <time>2013-02-09T10:00:51Z</time>
      </trkpt>
      <trkpt lat="44.85147" lon="5.52451">
        <ele>1742</ele>
        <time>2013-02-09T10:00:56Z</time>
      </trkpt>
      <trkpt lat="44.85145" lon="5.52453">
        <ele>1743</ele>
        <time>2013-02-09T10:01:01Z</time>
      </trkpt>
      <trkpt lat="44.85144" lon="5.52455">
        <ele>1744</ele>
        <time>2013-02-09T10:01:06Z</time>
      </trkpt>
      <trkpt lat="44.85143" lon="5.52452">
        <ele>1744</ele>
        <time>2013-02-09T10:01:11Z</time>
      </trkpt>
      <trkpt lat="44.85142" lon="5.52448">
        <ele>1745</ele>
        <time>2013-02-09T10:01:16Z</time>
      </trkpt>
      <trkpt lat="44.85141" lon="5.52444">
        <ele>1745</ele>
        <time>2013-02-09T10:01:21Z</time>
      </trkpt>
      <trkpt lat="44.8514" lon="5.5244">
        <ele>1746</ele>
        <time>2013-02-09T10:01:26Z</time>
      </trkpt>
      <trkpt lat="44.85139" lon="5.52437">
        <ele>1747</ele>
        <time>2013-02-09T10:01:31Z</time>
      </trkpt>
      <trkpt lat="44.85138" lon="5.52434">
        <ele>1748</ele>
        <time>2013-02-09T10:01:36Z</time>
      </trkpt>
      <trkpt lat="44.85136" lon="5.52434">
        <ele>1749</ele>
        <time>2013-02-09T10:01:41Z</time>
      </trkpt>
      <trkpt lat="44.85134" lon="5.52434">
        <ele>1749</ele>
        <time>2013-02-09T10:01:46Z</time>
      </trkpt>
      <trkpt lat="44.85133" lon="5.52432">
        <ele>1750</ele>
        <time>2013-02-09T10:01:51Z</time>
      </trkpt>
      <trkpt lat="44.85132" lon="5.52429">
        <ele>1751</ele>
        <time>2013-02-09T10:01:56Z</time>
      </trkpt>
      <trkpt lat="44.85133" lon="5.52426">
        <ele>1751</ele>
        <time>2013-02-09T10:02:01Z</time>
      </trkpt>
      <trkpt lat="44.85133" lon="5.52423">
        <ele>1752</ele>
        <time>2013-02-09T10:02:06Z</time>
      </trkpt>
      <trkpt lat="44.85131" lon="5.52423">
        <ele>1753</ele>
        <time>2013-02-09T10:02:11Z</time>
      </trkpt>
      <trkpt lat="44.85129" lon="5.52423">
        <ele>1753</ele>
        <time>2013-02-09T10:02:16Z</time>
      </trkpt>
      <trkpt lat="44.85127" lon="5.52423">
        <ele>1754</ele>
        <time>2013-02-09T10:02:21Z</time>
      </trkpt>
      <trkpt lat="44.85125" lon="5.52423">
        <ele>1755</ele>
        <time>2013-02-09T10:02:26Z</time>
      </trkpt>
      <trkpt lat="44.85124" lon="5.52423">
        <ele>1755</ele>
        <time>2013-02-09T10:02:31Z</time>
      </trkpt>
      <trkpt lat="44.85124" lon="5.52423">
        <ele>1755</ele>
        <time>2013-02-09T10:02:36Z</time>
      </trkpt>
      <trkpt lat="44.85123" lon="5.52424">
        <ele>1755</ele>
        <time>2013-02-09T10:02:41Z</time>
      </trkpt>
      <trkpt lat="44.85122" lon="5.52425">
        <ele>1756</ele>
        <time>2013-02-09T10:02:46Z</time>
      </trkpt>
      <trkpt lat="44.85121" lon="5.52425">
        <ele>1756</ele>
        <time>2013-02-09T10:02:51Z</time>
      </trkpt>
      <trkpt lat="44.8512" lon="5.52423">
        <ele>1757</ele>
        <time>2013-02-09T10:02:56Z</time>
      </trkpt>
      <trkpt lat="44.85119" lon="5.5242">
        <ele>1758</ele>
        <time>2013-02-09T10:03:01Z</time>
      </trkpt>
      <trkpt lat="44.85118" lon="5.52416">
        <ele>1758</ele>
        <time>2013-02-09T10:03:06Z</time>
      </trkpt>
      <trkpt lat="44.85117" lon="5.52414">
        <ele>1759</ele>
        <time>2013-02-09T10:03:11Z</time>
      </trkpt>
      <trkpt lat="44.85117" lon="5.52412">
        <ele>1760</ele>
        <time>2013-02-09T10:03:16Z</time>
      </trkpt>
      <trkpt lat="44.85115" lon="5.52411">
        <ele>1761</ele>
        <time>2013-02-09T10:03:21Z</time>
      </trkpt>
      <trkpt lat="44.85113" lon="5.52411">
        <ele>1761</ele>
        <time>2013-02-09T10:03:26Z</time>
      </trkpt>
      <trkpt lat="44.85111" lon="5.52411">
        <ele>1762</ele>
        <time>2013-02-09T10:03:31Z</time>
      </trkpt>
      <trkpt lat="44.85109" lon="5.52411">
        <ele>1764</ele>
        <time>2013-02-09T10:03:36Z</time>
      </trkpt>
      <trkpt lat="44.85106" lon="5.52412">
        <ele>1768</ele>
        <time>2013-02-09T10:03:41Z</time>
      </trkpt>
      <trkpt lat="44.85105" lon="5.5241">
        <ele>1768</ele>
        <time>2013-02-09T10:03:46Z</time>
      </trkpt>
      <trkpt lat="44.85104" lon="5.52409">
        <ele>1768</ele>
        <time>2013-02-09T10:03:51Z</time>
      </trkpt>
      <trkpt lat="44.85103" lon="5.52406">
        <ele>1769</ele>
        <time>2013-02-09T10:03:56Z</time>
      </trkpt>
      <trkpt lat="44.85101" lon="5.52406">
        <ele>1771</ele>
        <time>2013-02-09T10:04:01Z</time>
      </trkpt>
      <trkpt lat="44.851" lon="5.52404">
        <ele>1772</ele>
        <time>2013-02-09T10:04:06Z</time>
      </trkpt>
      <trkpt lat="44.85099" lon="5.52402">
        <ele>1773</ele>
        <time>2013-02-09T10:04:11Z</time>
      </trkpt>
      <trkpt lat="44.85098" lon="5.52401">
        <ele>1774</ele>
        <time>2013-02-09T10:04:16Z</time>
      </trkpt>
      <trkpt lat="44.85096" lon="5.524">
        <ele>1775</ele>
        <time>2013-02-09T10:04:21Z</time>
      </trkpt>
      <trkpt lat="44.85095" lon="5.52398">
        <ele>1775</ele>
        <time>2013-02-09T10:04:26Z</time>
      </trkpt>
      <trkpt lat="44.85094" lon="5.52395">
        <ele>1775</ele>
        <time>2013-02-09T10:04:31Z</time>
      </trkpt>
      <trkpt lat="44.85094" lon="5.52391">
        <ele>1775</ele>
        <time>2013-02-09T10:04:36Z</time>
      </trkpt>
      <trkpt lat="44.85095" lon="5.52389">
        <ele>1775</ele>
        <time>2013-02-09T10:04:41Z</time>
      </trkpt>
      <trkpt lat="44.85095" lon="5.52386">
        <ele>1775</ele>
        <time>2013-02-09T10:04:46Z</time>
      </trkpt>
      <trkpt lat="44.85093" lon="5.52385">
        <ele>1777</ele>
        <time>2013-02-09T10:04:51Z</time>
      </trkpt>
      <trkpt lat="44.85091" lon="5.52384">
        <ele>1779</ele>
        <time>2013-02-09T10:04:56Z</time>
      </trkpt>
      <trkpt lat="44.85089" lon="5.52383">
        <ele>1779</ele>
        <time>2013-02-09T10:05:01Z</time>
      </trkpt>
      <trkpt lat="44.85088" lon="5.52382">
        <ele>1779</ele>
        <time>2013-02-09T10:05:06Z</time>
      </trkpt>
      <trkpt lat="44.85087" lon="5.52382">
        <ele>1778</ele>
        <time>2013-02-09T10:05:11Z</time>
      </trkpt>
      <trkpt lat="44.85087" lon="5.52382">
        <ele>1778</ele>
        <time>2013-02-09T10:05:16Z</time>
      </trkpt>
      <trkpt lat="44.85086" lon="5.52381">
        <ele>1778</ele>
        <time>2013-02-09T10:05:21Z</time>
      </trkpt>
      <trkpt lat="44.85085" lon="5.5238">
        <ele>1778</ele>
        <time>2013-02-09T10:05:26Z</time>
      </trkpt>
      <trkpt lat="44.85085" lon="5.52377">
        <ele>1779</ele>
        <time>2013-02-09T10:05:31Z</time>
      </trkpt>
      <trkpt lat="44.85085" lon="5.52375">
        <ele>1780</ele>
        <time>2013-02-09T10:05:36Z</time>
      </trkpt>
      <trkpt lat="44.85085" lon="5.52373">
        <ele>1781</ele>
        <time>2013-02-09T10:05:41Z</time>
      </trkpt>
      <trkpt lat="44.85085" lon="5.52371">
        <ele>1781</ele>
        <time>2013-02-09T10:05:46Z</time>
      </trkpt>
      <trkpt lat="44.85086" lon="5.52368">
        <ele>1782</ele>
        <time>2013-02-09T10:05:51Z</time>
      </trkpt>
      <trkpt lat="44.85084" lon="5.52367">
        <ele>1783</ele>
        <time>2013-02-09T10:05:56Z</time>
      </trkpt>
      <trkpt lat="44.85082" lon="5.52366">
        <ele>1783</ele>
        <time>2013-02-09T10:06:01Z</time>
      </trkpt>
      <trkpt lat="44.8508" lon="5.52366">
        <ele>1783</ele>
        <time>2013-02-09T10:06:06Z</time>
      </trkpt>
      <trkpt lat="44.8508" lon="5.52366">
        <ele>1784</ele>
        <time>2013-02-09T10:06:11Z</time>
      </trkpt>
      <trkpt lat="44.85078" lon="5.52366">
        <ele>1784</ele>
        <time>2013-02-09T10:06:16Z</time>
      </trkpt>
      <trkpt lat="44.85076" lon="5.52365">
        <ele>1785</ele>
        <time>2013-02-09T10:06:21Z</time>
      </trkpt>
      <trkpt lat="44.85076" lon="5.52362">
        <ele>1785</ele>
        <time>2013-02-09T10:06:26Z</time>
      </trkpt>
      <trkpt lat="44.85076" lon="5.5236">
        <ele>1786</ele>
        <time>2013-02-09T10:06:31Z</time>
      </trkpt>
      <trkpt lat="44.85076" lon="5.52357">
        <ele>1786</ele>
        <time>2013-02-09T10:06:36Z</time>
      </trkpt>
      <trkpt lat="44.85077" lon="5.52354">
        <ele>1787</ele>
        <time>2013-02-09T10:06:41Z</time>
      </trkpt>
      <trkpt lat="44.85078" lon="5.52352">
        <ele>1788</ele>
        <time>2013-02-09T10:06:46Z</time>
      </trkpt>
      <trkpt lat="44.85079" lon="5.5235">
        <ele>1788</ele>
        <time>2013-02-09T10:06:51Z</time>
      </trkpt>
      <trkpt lat="44.85079" lon="5.52348">
        <ele>1789</ele>
        <time>2013-02-09T10:06:56Z</time>
      </trkpt>
      <trkpt lat="44.8508" lon="5.52346">
        <ele>1790</ele>
        <time>2013-02-09T10:07:01Z</time>
      </trkpt>
      <trkpt lat="44.85081" lon="5.52344">
        <ele>1790</ele>
        <time>2013-02-09T10:07:06Z</time>
      </trkpt>
      <trkpt lat="44.85082" lon="5.52343">
        <ele>1791</ele>
        <time>2013-02-09T10:07:11Z</time>
      </trkpt>
      <trkpt lat="44.85083" lon="5.52342">
        <ele>1791</ele>
        <time>2013-02-09T10:07:16Z</time>
      </trkpt>
      <trkpt lat="44.85083" lon="5.5234">
        <ele>1791</ele>
        <time>2013-02-09T10:07:21Z</time>
      </trkpt>
      <trkpt lat="44.85082" lon="5.52339">
        <ele>1792</ele>
        <time>2013-02-09T10:07:26Z</time>
      </trkpt>
      <trkpt lat="44.8508" lon="5.52337">
        <ele>1792</ele>
        <time>2013-02-09T10:07:31Z</time>
      </trkpt>
      <trkpt lat="44.85079" lon="5.52336">
        <ele>1793</ele>
        <time>2013-02-09T10:07:36Z</time>
      </trkpt>
      <trkpt lat="44.85078" lon="5.52336">
        <ele>1792</ele>
        <time>2013-02-09T10:07:41Z</time>
      </trkpt>
      <trkpt lat="44.85079" lon="5.52336">
        <ele>1791</ele>
        <time>2013-02-09T10:07:46Z</time>
      </trkpt>
      <trkpt lat="44.85079" lon="5.52336">
        <ele>1790</ele>
        <time>2013-02-09T10:07:51Z</time>
      </trkpt>
      <trkpt lat="44.85079" lon="5.52336">
        <ele>1789</ele>
        <time>2013-02-09T10:07:56Z</time>
      </trkpt>
      <trkpt lat="44.85079" lon="5.52336">
        <ele>1789</ele>
        <time>2013-02-09T10:08:01Z</time>
      </trkpt>
      <trkpt lat="44.85079" lon="5.52336">
        <ele>1789</ele>
        <time>2013-02-09T10:08:06Z</time>
      </trkpt>
      <trkpt lat="44.85079" lon="5.52336">
        <ele>1789</ele>
        <time>2013-02-09T10:08:11Z</time>
      </trkpt>
      <trkpt lat="44.85079" lon="5.52336">
        <ele>1789</ele>
        <time>2013-02-09T10:08:16Z</time>
      </trkpt>
      <trkpt lat="44.85079" lon="5.52336">
        <ele>1789</ele>
        <time>2013-02-09T10:08:21Z</time>
      </trkpt>
      <trkpt lat="44.85079" lon="5.52336">
        <ele>1789</ele>
        <time>2013-02-09T10:08:26Z</time>
      </trkpt>
      <trkpt lat="44.85078" lon="5.52335">
        <ele>1789</ele>
        <time>2013-02-09T10:08:31Z</time>
      </trkpt>
      <trkpt lat="44.85077" lon="5.52333">
        <ele>1790</ele>
        <time>2013-02-09T10:08:36Z</time>
      </trkpt>
      <trkpt lat="44.85075" lon="5.52331">
        <ele>1792</ele>
        <time>2013-02-09T10:08:41Z</time>
      </trkpt>
      <trkpt lat="44.85072" lon="5.52329">
        <ele>1793</ele>
        <time>2013-02-09T10:08:46Z</time>
      </trkpt>
      <trkpt lat="44.8507" lon="5.52326">
        <ele>1794</ele>
        <time>2013-02-09T10:08:51Z</time>
      </trkpt>
      <trkpt lat="44.85068" lon="5.52324">
        <ele>1795</ele>
        <time>2013-02-09T10:08:56Z</time>
      </trkpt>
      <trkpt lat="44.85066" lon="5.52322">
        <ele>1796</ele>
        <time>2013-02-09T10:09:01Z</time>
      </trkpt>
      <trkpt lat="44.85063" lon="5.5232">
        <ele>1797</ele>
        <time>2013-02-09T10:09:06Z</time>
      </trkpt>
      <trkpt lat="44.85062" lon="5.52318">
        <ele>1798</ele>
        <time>2013-02-09T10:09:11Z</time>
      </trkpt>
      <trkpt lat="44.8506" lon="5.52317">
        <ele>1799</ele>
        <time>2013-02-09T10:09:16Z</time>
      </trkpt>
      <trkpt lat="44.85058" lon="5.52315">
        <ele>1800</ele>
        <time>2013-02-09T10:09:21Z</time>
      </trkpt>
      <trkpt lat="44.85057" lon="5.52314">
        <ele>1801</ele>
        <time>2013-02-09T10:09:26Z</time>
      </trkpt>
      <trkpt lat="44.85056" lon="5.52312">
        <ele>1801</ele>
        <time>2013-02-09T10:09:31Z</time>
      </trkpt>
      <trkpt lat="44.85054" lon="5.52311">
        <ele>1802</ele>
        <time>2013-02-09T10:09:36Z</time>
      </trkpt>
      <trkpt lat="44.85052" lon="5.52312">
        <ele>1803</ele>
        <time>2013-02-09T10:09:41Z</time>
      </trkpt>
      <trkpt lat="44.8505" lon="5.52312">
        <ele>1803</ele>
        <time>2013-02-09T10:09:46Z</time>
      </trkpt>
      <trkpt lat="44.85048" lon="5.52313">
        <ele>1804</ele>
        <time>2013-02-09T10:09:51Z</time>
      </trkpt>
      <trkpt lat="44.85046" lon="5.52314">
        <ele>1805</ele>
        <time>2013-02-09T10:09:56Z</time>
      </trkpt>
      <trkpt lat="44.85045" lon="5.52313">
        <ele>1804</ele>
        <time>2013-02-09T10:10:01Z</time>
      </trkpt>
      <trkpt lat="44.85045" lon="5.5231">
        <ele>1805</ele>
        <time>2013-02-09T10:10:06Z</time>
      </trkpt>
      <trkpt lat="44.85045" lon="5.52306">
        <ele>1806</ele>
        <time>2013-02-09T10:10:11Z</time>
      </trkpt>
      <trkpt lat="44.85044" lon="5.52303">
        <ele>1808</ele>
        <time>2013-02-09T10:10:16Z</time>
      </trkpt>
      <trkpt lat="44.85044" lon="5.523">
        <ele>1809</ele>
        <time>2013-02-09T10:10:21Z</time>
      </trkpt>
      <trkpt lat="44.85042" lon="5.52299">
        <ele>1809</ele>
        <time>2013-02-09T10:10:26Z</time>
      </trkpt>
      <trkpt lat="44.8504" lon="5.52301">
        <ele>1810</ele>
        <time>2013-02-09T10:10:31Z</time>
      </trkpt>
      <trkpt lat="44.85037" lon="5.52303">
        <ele>1811</ele>
        <time>2013-02-09T10:10:36Z</time>
      </trkpt>
      <trkpt lat="44.85035" lon="5.52304">
        <ele>1811</ele>
        <time>2013-02-09T10:10:41Z</time>
      </trkpt>
      <trkpt lat="44.85033" lon="5.52306">
        <ele>1812</ele>
        <time>2013-02-09T10:10:46Z</time>
      </trkpt>
      <trkpt lat="44.85032" lon="5.52307">
        <ele>1812</ele>
        <time>2013-02-09T10:10:51Z</time>
      </trkpt>
      <trkpt lat="44.8503" lon="5.52309">
        <ele>1812</ele>
        <time>2013-02-09T10:10:56Z</time>
      </trkpt>
      <trkpt lat="44.85031" lon="5.52308">
        <ele>1812</ele>
        <time>2013-02-09T10:11:01Z</time>
      </trkpt>
      <trkpt lat="44.8503" lon="5.52308">
        <ele>1811</ele>
        <time>2013-02-09T10:11:06Z</time>
      </trkpt>
      <trkpt lat="44.85028" lon="5.5231">
        <ele>1811</ele>
        <time>2013-02-09T10:11:11Z</time>
      </trkpt>
      <trkpt lat="44.85027" lon="5.52307">
        <ele>1812</ele>
        <time>2013-02-09T10:11:16Z</time>
      </trkpt>
      <trkpt lat="44.85025" lon="5.52304">
        <ele>1813</ele>
        <time>2013-02-09T10:11:21Z</time>
      </trkpt>
      <trkpt lat="44.85024" lon="5.52302">
        <ele>1813</ele>
        <time>2013-02-09T10:11:26Z</time>
      </trkpt>
      <trkpt lat="44.85023" lon="5.52299">
        <ele>1814</ele>
        <time>2013-02-09T10:11:31Z</time>
      </trkpt>
      <trkpt lat="44.85021" lon="5.52296">
        <ele>1815</ele>
        <time>2013-02-09T10:11:36Z</time>
      </trkpt>
      <trkpt lat="44.8502" lon="5.52294">
        <ele>1815</ele>
        <time>2013-02-09T10:11:41Z</time>
      </trkpt>
      <trkpt lat="44.85018" lon="5.52291">
        <ele>1816</ele>
        <time>2013-02-09T10:11:46Z</time>
      </trkpt>
      <trkpt lat="44.85017" lon="5.5229">
        <ele>1817</ele>
        <time>2013-02-09T10:11:51Z</time>
      </trkpt>
      <trkpt lat="44.85016" lon="5.52288">
        <ele>1817</ele>
        <time>2013-02-09T10:11:56Z</time>
      </trkpt>
      <trkpt lat="44.85014" lon="5.52287">
        <ele>1818</ele>
        <time>2013-02-09T10:12:01Z</time>
      </trkpt>
      <trkpt lat="44.85014" lon="5.52287">
        <ele>1818</ele>
        <time>2013-02-09T10:12:06Z</time>
      </trkpt>
      <trkpt lat="44.85014" lon="5.52287">
        <ele>1818</ele>
        <time>2013-02-09T10:12:11Z</time>
      </trkpt>
      <trkpt lat="44.85013" lon="5.52286">
        <ele>1819</ele>
        <time>2013-02-09T10:12:16Z</time>
      </trkpt>
      <trkpt lat="44.85011" lon="5.52285">
        <ele>1819</ele>
        <time>2013-02-09T10:12:21Z</time>
      </trkpt>
      <trkpt lat="44.8501" lon="5.52287">
        <ele>1820</ele>
        <time>2013-02-09T10:12:26Z</time>
      </trkpt>
      <trkpt lat="44.85009" lon="5.52289">
        <ele>1821</ele>
        <time>2013-02-09T10:12:31Z</time>
      </trkpt>
      <trkpt lat="44.85008" lon="5.52291">
        <ele>1821</ele>
        <time>2013-02-09T10:12:36Z</time>
      </trkpt>
      <trkpt lat="44.85007" lon="5.52293">
        <ele>1822</ele>
        <time>2013-02-09T10:12:41Z</time>
      </trkpt>
      <trkpt lat="44.85007" lon="5.52295">
        <ele>1823</ele>
        <time>2013-02-09T10:12:46Z</time>
      </trkpt>
      <trkpt lat="44.85005" lon="5.52297">
        <ele>1824</ele>
        <time>2013-02-09T10:12:51Z</time>
      </trkpt>
      <trkpt lat="44.85004" lon="5.52296">
        <ele>1824</ele>
        <time>2013-02-09T10:12:56Z</time>
      </trkpt>
      <trkpt lat="44.85002" lon="5.52293">
        <ele>1825</ele>
        <time>2013-02-09T10:13:01Z</time>
      </trkpt>
      <trkpt lat="44.85" lon="5.5229">
        <ele>1826</ele>
        <time>2013-02-09T10:13:06Z</time>
      </trkpt>
      <trkpt lat="44.84998" lon="5.52288">
        <ele>1827</ele>
        <time>2013-02-09T10:13:11Z</time>
      </trkpt>
      <trkpt lat="44.84997" lon="5.52287">
        <ele>1827</ele>
        <time>2013-02-09T10:13:16Z</time>
      </trkpt>
      <trkpt lat="44.84997" lon="5.52286">
        <ele>1828</ele>
        <time>2013-02-09T10:13:21Z</time>
      </trkpt>
      <trkpt lat="44.84995" lon="5.52285">
        <ele>1829</ele>
        <time>2013-02-09T10:13:26Z</time>
      </trkpt>
      <trkpt lat="44.84994" lon="5.52285">
        <ele>1829</ele>
        <time>2013-02-09T10:13:31Z</time>
      </trkpt>
      <trkpt lat="44.84992" lon="5.52286">
        <ele>1830</ele>
        <time>2013-02-09T10:13:36Z</time>
      </trkpt>
      <trkpt lat="44.84991" lon="5.52286">
        <ele>1831</ele>
        <time>2013-02-09T10:13:41Z</time>
      </trkpt>
      <trkpt lat="44.8499" lon="5.52285">
        <ele>1831</ele>
        <time>2013-02-09T10:13:46Z</time>
      </trkpt>
      <trkpt lat="44.84988" lon="5.52284">
        <ele>1832</ele>
        <time>2013-02-09T10:13:51Z</time>
      </trkpt>
      <trkpt lat="44.84987" lon="5.52282">
        <ele>1833</ele>
        <time>2013-02-09T10:13:56Z</time>
      </trkpt>
      <trkpt lat="44.84985" lon="5.52281">
        <ele>1833</ele>
        <time>2013-02-09T10:14:01Z</time>
      </trkpt>
      <trkpt lat="44.84985" lon="5.5228">
        <ele>1834</ele>
        <time>2013-02-09T10:14:06Z</time>
      </trkpt>
      <trkpt lat="44.84983" lon="5.52279">
        <ele>1834</ele>
        <time>2013-02-09T10:14:11Z</time>
      </trkpt>
      <trkpt lat="44.8498" lon="5.52279">
        <ele>1836</ele>
        <time>2013-02-09T10:14:16Z</time>
      </trkpt>
      <trkpt lat="44.84977" lon="5.52278">
        <ele>1837</ele>
        <time>2013-02-09T10:14:21Z</time>
      </trkpt>
      <trkpt lat="44.84974" lon="5.52277">
        <ele>1838</ele>
        <time>2013-02-09T10:14:26Z</time>
      </trkpt>
      <trkpt lat="44.84972" lon="5.52276">
        <ele>1839</ele>
        <time>2013-02-09T10:14:31Z</time>
      </trkpt>
      <trkpt lat="44.84972" lon="5.52276">
        <ele>1839</ele>
        <time>2013-02-09T10:14:36Z</time>
      </trkpt>
      <trkpt lat="44.84971" lon="5.52276">
        <ele>1839</ele>
        <time>2013-02-09T10:14:41Z</time>
      </trkpt>
      <trkpt lat="44.84971" lon="5.52276">
        <ele>1839</ele>
        <time>2013-02-09T10:14:46Z</time>
      </trkpt>
      <trkpt lat="44.84971" lon="5.52276">
        <ele>1839</ele>
        <time>2013-02-09T10:14:51Z</time>
      </trkpt>
      <trkpt lat="44.84971" lon="5.52273">
        <ele>1839</ele>
        <time>2013-02-09T10:14:56Z</time>
      </trkpt>
      <trkpt lat="44.84968" lon="5.5227">
        <ele>1840</ele>
        <time>2013-02-09T10:15:01Z</time>
      </trkpt>
      <trkpt lat="44.84966" lon="5.52268">
        <ele>1841</ele>
        <time>2013-02-09T10:15:06Z</time>
      </trkpt>
      <trkpt lat="44.84964" lon="5.52266">
        <ele>1842</ele>
        <time>2013-02-09T10:15:11Z</time>
      </trkpt>
      <trkpt lat="44.84962" lon="5.52265">
        <ele>1842</ele>
        <time>2013-02-09T10:15:16Z</time>
      </trkpt>
      <trkpt lat="44.8496" lon="5.52263">
        <ele>1843</ele>
        <time>2013-02-09T10:15:21Z</time>
      </trkpt>
      <trkpt lat="44.84958" lon="5.52261">
        <ele>1844</ele>
        <time>2013-02-09T10:15:26Z</time>
      </trkpt>
      <trkpt lat="44.84956" lon="5.5226">
        <ele>1845</ele>
        <time>2013-02-09T10:15:31Z</time>
      </trkpt>
      <trkpt lat="44.84955" lon="5.52258">
        <ele>1845</ele>
        <time>2013-02-09T10:15:36Z</time>
      </trkpt>
      <trkpt lat="44.84953" lon="5.52257">
        <ele>1846</ele>
        <time>2013-02-09T10:15:41Z</time>
      </trkpt>
      <trkpt lat="44.84951" lon="5.52256">
        <ele>1847</ele>
        <time>2013-02-09T10:15:46Z</time>
      </trkpt>
      <trkpt lat="44.84949" lon="5.52255">
        <ele>1847</ele>
        <time>2013-02-09T10:15:51Z</time>
      </trkpt>
      <trkpt lat="44.84947" lon="5.52254">
        <ele>1848</ele>
        <time>2013-02-09T10:15:56Z</time>
      </trkpt>
      <trkpt lat="44.84944" lon="5.52254">
        <ele>1848</ele>
        <time>2013-02-09T10:16:01Z</time>
      </trkpt>
      <trkpt lat="44.84942" lon="5.52256">
        <ele>1849</ele>
        <time>2013-02-09T10:16:06Z</time>
      </trkpt>
      <trkpt lat="44.8494" lon="5.52258">
        <ele>1850</ele>
        <time>2013-02-09T10:16:11Z</time>
      </trkpt>
      <trkpt lat="44.84939" lon="5.52258">
        <ele>1850</ele>
        <time>2013-02-09T10:16:16Z</time>
      </trkpt>
      <trkpt lat="44.84936" lon="5.52257">
        <ele>1851</ele>
        <time>2013-02-09T10:16:21Z</time>
      </trkpt>
      <trkpt lat="44.84934" lon="5.52255">
        <ele>1852</ele>
        <time>2013-02-09T10:16:26Z</time>
      </trkpt>
      <trkpt lat="44.84932" lon="5.52253">
        <ele>1852</ele>
        <time>2013-02-09T10:16:31Z</time>
      </trkpt>
      <trkpt lat="44.84931" lon="5.5225">
        <ele>1853</ele>
        <time>2013-02-09T10:16:36Z</time>
      </trkpt>
      <trkpt lat="44.8493" lon="5.52247">
        <ele>1853</ele>
        <time>2013-02-09T10:16:41Z</time>
      </trkpt>
      <trkpt lat="44.84929" lon="5.52242">
        <ele>1853</ele>
        <time>2013-02-09T10:16:46Z</time>
      </trkpt>
      <trkpt lat="44.84929" lon="5.52237">
        <ele>1853</ele>
        <time>2013-02-09T10:16:51Z</time>
      </trkpt>
      <trkpt lat="44.84929" lon="5.52233">
        <ele>1853</ele>
        <time>2013-02-09T10:16:56Z</time>
      </trkpt>
      <trkpt lat="44.84928" lon="5.5223">
        <ele>1854</ele>
        <time>2013-02-09T10:17:01Z</time>
      </trkpt>
      <trkpt lat="44.84927" lon="5.52227">
        <ele>1855</ele>
        <time>2013-02-09T10:17:06Z</time>
      </trkpt>
      <trkpt lat="44.84926" lon="5.52224">
        <ele>1855</ele>
        <time>2013-02-09T10:17:11Z</time>
      </trkpt>
      <trkpt lat="44.84925" lon="5.52221">
        <ele>1856</ele>
        <time>2013-02-09T10:17:16Z</time>
      </trkpt>
      <trkpt lat="44.84924" lon="5.52218">
        <ele>1856</ele>
        <time>2013-02-09T10:17:21Z</time>
      </trkpt>
      <trkpt lat="44.84923" lon="5.52217">
        <ele>1856</ele>
        <time>2013-02-09T10:17:26Z</time>
      </trkpt>
      <trkpt lat="44.84924" lon="5.52218">
        <ele>1856</ele>
        <time>2013-02-09T10:17:31Z</time>
      </trkpt>
      <trkpt lat="44.84922" lon="5.52216">
        <ele>1857</ele>
        <time>2013-02-09T10:17:36Z</time>
      </trkpt>
      <trkpt lat="44.84919" lon="5.52214">
        <ele>1857</ele>
        <time>2013-02-09T10:17:41Z</time>
      </trkpt>
      <trkpt lat="44.84917" lon="5.52212">
        <ele>1858</ele>
        <time>2013-02-09T10:17:46Z</time>
      </trkpt>
      <trkpt lat="44.84914" lon="5.52209">
        <ele>1858</ele>
        <time>2013-02-09T10:17:51Z</time>
      </trkpt>
      <trkpt lat="44.84913" lon="5.52208">
        <ele>1858</ele>
        <time>2013-02-09T10:17:56Z</time>
      </trkpt>
      <trkpt lat="44.84913" lon="5.52208">
        <ele>1858</ele>
        <time>2013-02-09T10:18:01Z</time>
      </trkpt>
      <trkpt lat="44.84909" lon="5.52206">
        <ele>1859</ele>
        <time>2013-02-09T10:18:06Z</time>
      </trkpt>
      <trkpt lat="44.84905" lon="5.52204">
        <ele>1859</ele>
        <time>2013-02-09T10:18:11Z</time>
      </trkpt>
      <trkpt lat="44.84902" lon="5.52202">
        <ele>1859</ele>
        <time>2013-02-09T10:18:16Z</time>
      </trkpt>
      <trkpt lat="44.84899" lon="5.522">
        <ele>1860</ele>
        <time>2013-02-09T10:18:21Z</time>
      </trkpt>
      <trkpt lat="44.84897" lon="5.52198">
        <ele>1860</ele>
        <time>2013-02-09T10:18:26Z</time>
      </trkpt>
      <trkpt lat="44.84894" lon="5.52194">
        <ele>1861</ele>
        <time>2013-02-09T10:18:31Z</time>
      </trkpt>
      <trkpt lat="44.8489" lon="5.52191">
        <ele>1861</ele>
        <time>2013-02-09T10:18:36Z</time>
      </trkpt>
      <trkpt lat="44.84887" lon="5.52187">
        <ele>1862</ele>
        <time>2013-02-09T10:18:41Z</time>
      </trkpt>
      <trkpt lat="44.84885" lon="5.52184">
        <ele>1863</ele>
        <time>2013-02-09T10:18:46Z</time>
      </trkpt>
      <trkpt lat="44.84882" lon="5.52181">
        <ele>1863</ele>
        <time>2013-02-09T10:18:51Z</time>
      </trkpt>
      <trkpt lat="44.8488" lon="5.52177">
        <ele>1864</ele>
        <time>2013-02-09T10:18:56Z</time>
      </trkpt>
      <trkpt lat="44.84877" lon="5.52174">
        <ele>1865</ele>
        <time>2013-02-09T10:19:01Z</time>
      </trkpt>
      <trkpt lat="44.84876" lon="5.52171">
        <ele>1865</ele>
        <time>2013-02-09T10:19:06Z</time>
      </trkpt>
      <trkpt lat="44.84873" lon="5.52168">
        <ele>1866</ele>
        <time>2013-02-09T10:19:11Z</time>
      </trkpt>
      <trkpt lat="44.8487" lon="5.52165">
        <ele>1867</ele>
        <time>2013-02-09T10:19:16Z</time>
      </trkpt>
      <trkpt lat="44.84868" lon="5.52162">
        <ele>1867</ele>
        <time>2013-02-09T10:19:21Z</time>
      </trkpt>
      <trkpt lat="44.84865" lon="5.52159">
        <ele>1868</ele>
        <time>2013-02-09T10:19:26Z</time>
      </trkpt>
      <trkpt lat="44.84863" lon="5.52158">
        <ele>1868</ele>
        <time>2013-02-09T10:19:31Z</time>
      </trkpt>
      <trkpt lat="44.84863" lon="5.52157">
        <ele>1868</ele>
        <time>2013-02-09T10:19:36Z</time>
      </trkpt>
      <trkpt lat="44.8486" lon="5.52154">
        <ele>1868</ele>
        <time>2013-02-09T10:19:41Z</time>
      </trkpt>
      <trkpt lat="44.84857" lon="5.52151">
        <ele>1868</ele>
        <time>2013-02-09T10:19:46Z</time>
      </trkpt>
      <trkpt lat="44.84855" lon="5.52148">
        <ele>1869</ele>
        <time>2013-02-09T10:19:51Z</time>
      </trkpt>
      <trkpt lat="44.84852" lon="5.52145">
        <ele>1869</ele>
        <time>2013-02-09T10:19:56Z</time>
      </trkpt>
      <trkpt lat="44.84848" lon="5.52141">
        <ele>1870</ele>
        <time>2013-02-09T10:20:01Z</time>
      </trkpt>
      <trkpt lat="44.84846" lon="5.52137">
        <ele>1870</ele>
        <time>2013-02-09T10:20:06Z</time>
      </trkpt>
      <trkpt lat="44.84844" lon="5.52133">
        <ele>1870</ele>
        <time>2013-02-09T10:20:11Z</time>
      </trkpt>
      <trkpt lat="44.84842" lon="5.5213">
        <ele>1871</ele>
        <time>2013-02-09T10:20:16Z</time>
      </trkpt>
      <trkpt lat="44.84839" lon="5.52126">
        <ele>1872</ele>
        <time>2013-02-09T10:20:21Z</time>
      </trkpt>
      <trkpt lat="44.84837" lon="5.52122">
        <ele>1872</ele>
        <time>2013-02-09T10:20:26Z</time>
      </trkpt>
      <trkpt lat="44.84835" lon="5.52119">
        <ele>1873</ele>
        <time>2013-02-09T10:20:31Z</time>
      </trkpt>
      <trkpt lat="44.84833" lon="5.52115">
        <ele>1873</ele>
        <time>2013-02-09T10:20:36Z</time>
      </trkpt>
      <trkpt lat="44.84831" lon="5.52111">
        <ele>1873</ele>
        <time>2013-02-09T10:20:41Z</time>
      </trkpt>
      <trkpt lat="44.84828" lon="5.52108">
        <ele>1874</ele>
        <time>2013-02-09T10:20:46Z</time>
      </trkpt>
      <trkpt lat="44.84827" lon="5.52106">
        <ele>1874</ele>
        <time>2013-02-09T10:20:51Z</time>
      </trkpt>
      <trkpt lat="44.84824" lon="5.52102">
        <ele>1875</ele>
        <time>2013-02-09T10:20:56Z</time>
      </trkpt>
      <trkpt lat="44.84821" lon="5.52098">
        <ele>1875</ele>
        <time>2013-02-09T10:21:01Z</time>
      </trkpt>
      <trkpt lat="44.84819" lon="5.52094">
        <ele>1876</ele>
        <time>2013-02-09T10:21:06Z</time>
      </trkpt>
      <trkpt lat="44.84816" lon="5.52091">
        <ele>1876</ele>
        <time>2013-02-09T10:21:11Z</time>
      </trkpt>
      <trkpt lat="44.84815" lon="5.52088">
        <ele>1877</ele>
        <time>2013-02-09T10:21:16Z</time>
      </trkpt>
      <trkpt lat="44.84812" lon="5.52085">
        <ele>1877</ele>
        <time>2013-02-09T10:21:21Z</time>
      </trkpt>
      <trkpt lat="44.8481" lon="5.52079">
        <ele>1878</ele>
        <time>2013-02-09T10:21:26Z</time>
      </trkpt>
      <trkpt lat="44.84806" lon="5.52075">
        <ele>1879</ele>
        <time>2013-02-09T10:21:31Z</time>
      </trkpt>
      <trkpt lat="44.84803" lon="5.52071">
        <ele>1879</ele>
        <time>2013-02-09T10:21:36Z</time>
      </trkpt>
      <trkpt lat="44.848" lon="5.52068">
        <ele>1880</ele>
        <time>2013-02-09T10:21:41Z</time>
      </trkpt>
      <trkpt lat="44.84797" lon="5.52065">
        <ele>1880</ele>
        <time>2013-02-09T10:21:46Z</time>
      </trkpt>
      <trkpt lat="44.84795" lon="5.52063">
        <ele>1881</ele>
        <time>2013-02-09T10:21:51Z</time>
      </trkpt>
      <trkpt lat="44.84793" lon="5.5206">
        <ele>1881</ele>
        <time>2013-02-09T10:21:56Z</time>
      </trkpt>
      <trkpt lat="44.8479" lon="5.52058">
        <ele>1881</ele>
        <time>2013-02-09T10:22:01Z</time>
      </trkpt>
      <trkpt lat="44.84787" lon="5.52054">
        <ele>1882</ele>
        <time>2013-02-09T10:22:06Z</time>
      </trkpt>
      <trkpt lat="44.84784" lon="5.52049">
        <ele>1882</ele>
        <time>2013-02-09T10:22:11Z</time>
      </trkpt>
      <trkpt lat="44.84779" lon="5.52044">
        <ele>1882</ele>
        <time>2013-02-09T10:22:16Z</time>
      </trkpt>
      <trkpt lat="44.84775" lon="5.52039">
        <ele>1882</ele>
        <time>2013-02-09T10:22:21Z</time>
      </trkpt>
      <trkpt lat="44.84771" lon="5.52035">
        <ele>1883</ele>
        <time>2013-02-09T10:22:26Z</time>
      </trkpt>
      <trkpt lat="44.84767" lon="5.52031">
        <ele>1883</ele>
        <time>2013-02-09T10:22:31Z</time>
      </trkpt>
      <trkpt lat="44.84763" lon="5.52027">
        <ele>1884</ele>
        <time>2013-02-09T10:22:36Z</time>
      </trkpt>
      <trkpt lat="44.8476" lon="5.52023">
        <ele>1885</ele>
        <time>2013-02-09T10:22:41Z</time>
      </trkpt>
      <trkpt lat="44.84757" lon="5.52019">
        <ele>1885</ele>
        <time>2013-02-09T10:22:46Z</time>
      </trkpt>
      <trkpt lat="44.84754" lon="5.52015">
        <ele>1886</ele>
        <time>2013-02-09T10:22:51Z</time>
      </trkpt>
      <trkpt lat="44.84751" lon="5.5201">
        <ele>1887</ele>
        <time>2013-02-09T10:22:56Z</time>
      </trkpt>
      <trkpt lat="44.84748" lon="5.52005">
        <ele>1887</ele>
        <time>2013-02-09T10:23:01Z</time>
      </trkpt>
      <trkpt lat="44.84745" lon="5.52">
        <ele>1887</ele>
        <time>2013-02-09T10:23:06Z</time>
      </trkpt>
      <trkpt lat="44.84742" lon="5.51996">
        <ele>1888</ele>
        <time>2013-02-09T10:23:11Z</time>
      </trkpt>
      <trkpt lat="44.84739" lon="5.51991">
        <ele>1889</ele>
        <time>2013-02-09T10:23:16Z</time>
      </trkpt>
      <trkpt lat="44.84737" lon="5.51986">
        <ele>1889</ele>
        <time>2013-02-09T10:23:21Z</time>
      </trkpt>
      <trkpt lat="44.84734" lon="5.51981">
        <ele>1890</ele>
        <time>2013-02-09T10:23:26Z</time>
      </trkpt>
      <trkpt lat="44.84732" lon="5.51977">
        <ele>1890</ele>
        <time>2013-02-09T10:23:31Z</time>
      </trkpt>
      <trkpt lat="44.84729" lon="5.51972">
        <ele>1891</ele>
        <time>2013-02-09T10:23:36Z</time>
      </trkpt>
      <trkpt lat="44.84726" lon="5.51969">
        <ele>1891</ele>
        <time>2013-02-09T10:23:41Z</time>
      </trkpt>
      <trkpt lat="44.84724" lon="5.51965">
        <ele>1892</ele>
        <time>2013-02-09T10:23:46Z</time>
      </trkpt>
      <trkpt lat="44.84721" lon="5.51961">
        <ele>1893</ele>
        <time>2013-02-09T10:23:51Z</time>
      </trkpt>
      <trkpt lat="44.84718" lon="5.51957">
        <ele>1893</ele>
        <time>2013-02-09T10:23:56Z</time>
      </trkpt>
      <trkpt lat="44.84716" lon="5.51953">
        <ele>1894</ele>
        <time>2013-02-09T10:24:01Z</time>
      </trkpt>
      <trkpt lat="44.84713" lon="5.51949">
        <ele>1894</ele>
        <time>2013-02-09T10:24:06Z</time>
      </trkpt>
      <trkpt lat="44.8471" lon="5.51945">
        <ele>1895</ele>
        <time>2013-02-09T10:24:11Z</time>
      </trkpt>
      <trkpt lat="44.84707" lon="5.51941">
        <ele>1895</ele>
        <time>2013-02-09T10:24:16Z</time>
      </trkpt>
      <trkpt lat="44.84704" lon="5.51937">
        <ele>1896</ele>
        <time>2013-02-09T10:24:21Z</time>
      </trkpt>
      <trkpt lat="44.847" lon="5.51933">
        <ele>1896</ele>
        <time>2013-02-09T10:24:26Z</time>
      </trkpt>
      <trkpt lat="44.84697" lon="5.51929">
        <ele>1897</ele>
        <time>2013-02-09T10:24:31Z</time>
      </trkpt>
      <trkpt lat="44.84694" lon="5.51925">
        <ele>1897</ele>
        <time>2013-02-09T10:24:36Z</time>
      </trkpt>
      <trkpt lat="44.8469" lon="5.51921">
        <ele>1898</ele>
        <time>2013-02-09T10:24:41Z</time>
      </trkpt>
      <trkpt lat="44.84687" lon="5.51917">
        <ele>1898</ele>
        <time>2013-02-09T10:24:46Z</time>
      </trkpt>
      <trkpt lat="44.84684" lon="5.51912">
        <ele>1898</ele>
        <time>2013-02-09T10:24:51Z</time>
      </trkpt>
      <trkpt lat="44.84681" lon="5.51908">
        <ele>1898</ele>
        <time>2013-02-09T10:24:56Z</time>
      </trkpt>
      <trkpt lat="44.84678" lon="5.51904">
        <ele>1899</ele>
        <time>2013-02-09T10:25:01Z</time>
      </trkpt>
      <trkpt lat="44.84674" lon="5.519">
        <ele>1899</ele>
        <time>2013-02-09T10:25:06Z</time>
      </trkpt>
      <trkpt lat="44.84671" lon="5.51895">
        <ele>1900</ele>
        <time>2013-02-09T10:25:11Z</time>
      </trkpt>
      <trkpt lat="44.84667" lon="5.51891">
        <ele>1900</ele>
        <time>2013-02-09T10:25:16Z</time>
      </trkpt>
      <trkpt lat="44.84664" lon="5.51886">
        <ele>1900</ele>
        <time>2013-02-09T10:25:21Z</time>
      </trkpt>
      <trkpt lat="44.84661" lon="5.51882">
        <ele>1901</ele>
        <time>2013-02-09T10:25:26Z</time>
      </trkpt>
      <trkpt lat="44.84658" lon="5.51877">
        <ele>1901</ele>
        <time>2013-02-09T10:25:31Z</time>
      </trkpt>
      <trkpt lat="44.84655" lon="5.51873">
        <ele>1902</ele>
        <time>2013-02-09T10:25:36Z</time>
      </trkpt>
      <trkpt lat="44.84652" lon="5.51869">
        <ele>1902</ele>
        <time>2013-02-09T10:25:41Z</time>
      </trkpt>
      <trkpt lat="44.84649" lon="5.51864">
        <ele>1903</ele>
        <time>2013-02-09T10:25:46Z</time>
      </trkpt>
      <trkpt lat="44.84647" lon="5.51859">
        <ele>1904</ele>
        <time>2013-02-09T10:25:51Z</time>
      </trkpt>
      <trkpt lat="44.84645" lon="5.51854">
        <ele>1904</ele>
        <time>2013-02-09T10:25:56Z</time>
      </trkpt>
      <trkpt lat="44.84642" lon="5.51849">
        <ele>1905</ele>
        <time>2013-02-09T10:26:01Z</time>
      </trkpt>
      <trkpt lat="44.84638" lon="5.51845">
        <ele>1905</ele>
        <time>2013-02-09T10:26:06Z</time>
      </trkpt>
      <trkpt lat="44.84636" lon="5.5184">
        <ele>1906</ele>
        <time>2013-02-09T10:26:11Z</time>
      </trkpt>
      <trkpt lat="44.84633" lon="5.51836">
        <ele>1906</ele>
        <time>2013-02-09T10:26:16Z</time>
      </trkpt>
      <trkpt lat="44.8463" lon="5.51832">
        <ele>1907</ele>
        <time>2013-02-09T10:26:21Z</time>
      </trkpt>
      <trkpt lat="44.84626" lon="5.51828">
        <ele>1908</ele>
        <time>2013-02-09T10:26:26Z</time>
      </trkpt>
      <trkpt lat="44.84624" lon="5.51824">
        <ele>1908</ele>
        <time>2013-02-09T10:26:31Z</time>
      </trkpt>
      <trkpt lat="44.84621" lon="5.5182">
        <ele>1908</ele>
        <time>2013-02-09T10:26:36Z</time>
      </trkpt>
      <trkpt lat="44.84618" lon="5.51816">
        <ele>1909</ele>
        <time>2013-02-09T10:26:41Z</time>
      </trkpt>
      <trkpt lat="44.84615" lon="5.51811">
        <ele>1909</ele>
        <time>2013-02-09T10:26:46Z</time>
      </trkpt>
      <trkpt lat="44.84612" lon="5.51807">
        <ele>1910</ele>
        <time>2013-02-09T10:26:51Z</time>
      </trkpt>
      <trkpt lat="44.84609" lon="5.51802">
        <ele>1910</ele>
        <time>2013-02-09T10:26:56Z</time>
      </trkpt>
      <trkpt lat="44.84606" lon="5.51798">
        <ele>1911</ele>
        <time>2013-02-09T10:27:01Z</time>
      </trkpt>
      <trkpt lat="44.84604" lon="5.51793">
        <ele>1911</ele>
        <time>2013-02-09T10:27:06Z</time>
      </trkpt>
      <trkpt lat="44.84601" lon="5.51789">
        <ele>1912</ele>
        <time>2013-02-09T10:27:11Z</time>
      </trkpt>
      <trkpt lat="44.84598" lon="5.51783">
        <ele>1912</ele>
        <time>2013-02-09T10:27:16Z</time>
      </trkpt>
      <trkpt lat="44.84597" lon="5.51782">
        <ele>1912</ele>
        <time>2013-02-09T10:27:21Z</time>
      </trkpt>
      <trkpt lat="44.84597" lon="5.51782">
        <ele>1912</ele>
        <time>2013-02-09T10:27:26Z</time>
      </trkpt>
      <trkpt lat="44.84597" lon="5.51782">
        <ele>1912</ele>
        <time>2013-02-09T10:27:31Z</time>
      </trkpt>
      <trkpt lat="44.84597" lon="5.51782">
        <ele>1912</ele>
        <time>2013-02-09T10:27:36Z</time>
      </trkpt>
      <trkpt lat="44.84597" lon="5.51782">
        <ele>1911</ele>
        <time>2013-02-09T10:27:41Z</time>
      </trkpt>
      <trkpt lat="44.84597" lon="5.51782">
        <ele>1911</ele>
        <time>2013-02-09T10:27:46Z</time>
      </trkpt>
      <trkpt lat="44.84597" lon="5.51783">
        <ele>1911</ele>
        <time>2013-02-09T10:27:51Z</time>
      </trkpt>
      <trkpt lat="44.84595" lon="5.5178">
        <ele>1911</ele>
        <time>2013-02-09T10:35:06Z</time>
      </trkpt>
      <trkpt lat="44.84592" lon="5.51778">
        <ele>1911</ele>
        <time>2013-02-09T10:35:11Z</time>
      </trkpt>
      <trkpt lat="44.84589" lon="5.51776">
        <ele>1911</ele>
        <time>2013-02-09T10:35:16Z</time>
      </trkpt>
      <trkpt lat="44.84586" lon="5.51774">
        <ele>1911</ele>
        <time>2013-02-09T10:35:21Z</time>
      </trkpt>
      <trkpt lat="44.84584" lon="5.51772">
        <ele>1911</ele>
        <time>2013-02-09T10:35:26Z</time>
      </trkpt>
      <trkpt lat="44.8458" lon="5.5177">
        <ele>1911</ele>
        <time>2013-02-09T10:35:31Z</time>
      </trkpt>
      <trkpt lat="44.84577" lon="5.51768">
        <ele>1912</ele>
        <time>2013-02-09T10:35:36Z</time>
      </trkpt>
      <trkpt lat="44.84573" lon="5.51767">
        <ele>1912</ele>
        <time>2013-02-09T10:35:41Z</time>
      </trkpt>
      <trkpt lat="44.8457" lon="5.51765">
        <ele>1912</ele>
        <time>2013-02-09T10:35:46Z</time>
      </trkpt>
      <trkpt lat="44.84567" lon="5.51764">
        <ele>1912</ele>
        <time>2013-02-09T10:35:51Z</time>
      </trkpt>
      <trkpt lat="44.84563" lon="5.51763">
        <ele>1913</ele>
        <time>2013-02-09T10:35:56Z</time>
      </trkpt>
      <trkpt lat="44.84559" lon="5.51762">
        <ele>1914</ele>
        <time>2013-02-09T10:36:01Z</time>
      </trkpt>
      <trkpt lat="44.84556" lon="5.51761">
        <ele>1914</ele>
        <time>2013-02-09T10:36:06Z</time>
      </trkpt>
      <trkpt lat="44.84552" lon="5.5176">
        <ele>1915</ele>
        <time>2013-02-09T10:36:11Z</time>
      </trkpt>
      <trkpt lat="44.84548" lon="5.51759">
        <ele>1915</ele>
        <time>2013-02-09T10:36:16Z</time>
      </trkpt>
      <trkpt lat="44.84546" lon="5.51758">
        <ele>1915</ele>
        <time>2013-02-09T10:36:21Z</time>
      </trkpt>
      <trkpt lat="44.84543" lon="5.51758">
        <ele>1916</ele>
        <time>2013-02-09T10:36:26Z</time>
      </trkpt>
      <trkpt lat="44.8454" lon="5.51758">
        <ele>1916</ele>
        <time>2013-02-09T10:36:31Z</time>
      </trkpt>
      <trkpt lat="44.84537" lon="5.51757">
        <ele>1917</ele>
        <time>2013-02-09T10:36:36Z</time>
      </trkpt>
      <trkpt lat="44.84534" lon="5.51757">
        <ele>1917</ele>
        <time>2013-02-09T10:36:41Z</time>
      </trkpt>
      <trkpt lat="44.84531" lon="5.51757">
        <ele>1918</ele>
        <time>2013-02-09T10:36:46Z</time>
      </trkpt>
      <trkpt lat="44.84529" lon="5.51757">
        <ele>1918</ele>
        <time>2013-02-09T10:36:51Z</time>
      </trkpt>
      <trkpt lat="44.84529" lon="5.51757">
        <ele>1918</ele>
        <time>2013-02-09T10:36:56Z</time>
      </trkpt>
      <trkpt lat="44.84529" lon="5.51757">
        <ele>1918</ele>
        <time>2013-02-09T10:37:01Z</time>
      </trkpt>
      <trkpt lat="44.84526" lon="5.51757">
        <ele>1918</ele>
        <time>2013-02-09T10:37:06Z</time>
      </trkpt>
      <trkpt lat="44.84522" lon="5.51756">
        <ele>1919</ele>
        <time>2013-02-09T10:37:11Z</time>
      </trkpt>
      <trkpt lat="44.84519" lon="5.51756">
        <ele>1919</ele>
        <time>2013-02-09T10:37:16Z</time>
      </trkpt>
      <trkpt lat="44.84515" lon="5.51756">
        <ele>1920</ele>
        <time>2013-02-09T10:37:21Z</time>
      </trkpt>
      <trkpt lat="44.84512" lon="5.51757">
        <ele>1921</ele>
        <time>2013-02-09T10:37:26Z</time>
      </trkpt>
      <trkpt lat="44.84509" lon="5.51757">
        <ele>1921</ele>
        <time>2013-02-09T10:37:31Z</time>
      </trkpt>
      <trkpt lat="44.84506" lon="5.51758">
        <ele>1922</ele>
        <time>2013-02-09T10:37:36Z</time>
      </trkpt>
      <trkpt lat="44.84502" lon="5.51758">
        <ele>1922</ele>
        <time>2013-02-09T10:37:41Z</time>
      </trkpt>
      <trkpt lat="44.84499" lon="5.51758">
        <ele>1923</ele>
        <time>2013-02-09T10:37:46Z</time>
      </trkpt>
      <trkpt lat="44.84496" lon="5.51759">
        <ele>1923</ele>
        <time>2013-02-09T10:37:51Z</time>
      </trkpt>
      <trkpt lat="44.84493" lon="5.5176">
        <ele>1924</ele>
        <time>2013-02-09T10:37:56Z</time>
      </trkpt>
      <trkpt lat="44.8449" lon="5.51761">
        <ele>1924</ele>
        <time>2013-02-09T10:38:01Z</time>
      </trkpt>
      <trkpt lat="44.84487" lon="5.51762">
        <ele>1925</ele>
        <time>2013-02-09T10:38:06Z</time>
      </trkpt>
      <trkpt lat="44.84485" lon="5.51763">
        <ele>1926</ele>
        <time>2013-02-09T10:38:11Z</time>
      </trkpt>
      <trkpt lat="44.84482" lon="5.51764">
        <ele>1926</ele>
        <time>2013-02-09T10:38:16Z</time>
      </trkpt>
      <trkpt lat="44.8448" lon="5.51764">
        <ele>1927</ele>
        <time>2013-02-09T10:38:21Z</time>
      </trkpt>
      <trkpt lat="44.84477" lon="5.51764">
        <ele>1928</ele>
        <time>2013-02-09T10:38:26Z</time>
      </trkpt>
      <trkpt lat="44.84474" lon="5.51765">
        <ele>1928</ele>
        <time>2013-02-09T10:38:31Z</time>
      </trkpt>
      <trkpt lat="44.84472" lon="5.51766">
        <ele>1929</ele>
        <time>2013-02-09T10:38:36Z</time>
      </trkpt>
      <trkpt lat="44.8447" lon="5.51768">
        <ele>1929</ele>
        <time>2013-02-09T10:38:41Z</time>
      </trkpt>
      <trkpt lat="44.84467" lon="5.51769">
        <ele>1930</ele>
        <time>2013-02-09T10:38:46Z</time>
      </trkpt>
      <trkpt lat="44.84465" lon="5.5177">
        <ele>1931</ele>
        <time>2013-02-09T10:38:51Z</time>
      </trkpt>
      <trkpt lat="44.84462" lon="5.51771">
        <ele>1931</ele>
        <time>2013-02-09T10:38:56Z</time>
      </trkpt>
      <trkpt lat="44.8446" lon="5.51772">
        <ele>1932</ele>
        <time>2013-02-09T10:39:01Z</time>
      </trkpt>
      <trkpt lat="44.84457" lon="5.51773">
        <ele>1932</ele>
        <time>2013-02-09T10:39:06Z</time>
      </trkpt>
      <trkpt lat="44.84455" lon="5.51774">
        <ele>1933</ele>
        <time>2013-02-09T10:39:11Z</time>
      </trkpt>
      <trkpt lat="44.84451" lon="5.51776">
        <ele>1934</ele>
        <time>2013-02-09T10:39:16Z</time>
      </trkpt>
      <trkpt lat="44.84448" lon="5.51777">
        <ele>1934</ele>
        <time>2013-02-09T10:39:21Z</time>
      </trkpt>
      <trkpt lat="44.84446" lon="5.51778">
        <ele>1935</ele>
        <time>2013-02-09T10:39:26Z</time>
      </trkpt>
      <trkpt lat="44.84443" lon="5.5178">
        <ele>1935</ele>
        <time>2013-02-09T10:39:31Z</time>
      </trkpt>
      <trkpt lat="44.8444" lon="5.51781">
        <ele>1935</ele>
        <time>2013-02-09T10:39:36Z</time>
      </trkpt>
      <trkpt lat="44.84437" lon="5.51782">
        <ele>1936</ele>
        <time>2013-02-09T10:39:41Z</time>
      </trkpt>
      <trkpt lat="44.84434" lon="5.51784">
        <ele>1937</ele>
        <time>2013-02-09T10:39:46Z</time>
      </trkpt>
      <trkpt lat="44.84432" lon="5.51786">
        <ele>1937</ele>
        <time>2013-02-09T10:39:51Z</time>
      </trkpt>
      <trkpt lat="44.84431" lon="5.51787">
        <ele>1937</ele>
        <time>2013-02-09T10:39:56Z</time>
      </trkpt>
      <trkpt lat="44.84431" lon="5.51787">
        <ele>1937</ele>
        <time>2013-02-09T10:40:01Z</time>
      </trkpt>
      <trkpt lat="44.84431" lon="5.51787">
        <ele>1937</ele>
        <time>2013-02-09T10:40:06Z</time>
      </trkpt>
      <trkpt lat="44.84431" lon="5.51787">
        <ele>1937</ele>
        <time>2013-02-09T10:40:11Z</time>
      </trkpt>
      <trkpt lat="44.84431" lon="5.51787">
        <ele>1937</ele>
        <time>2013-02-09T10:40:16Z</time>
      </trkpt>
      <trkpt lat="44.84432" lon="5.51787">
        <ele>1937</ele>
        <time>2013-02-09T10:40:21Z</time>
      </trkpt>
      <trkpt lat="44.84432" lon="5.51788">
        <ele>1936</ele>
        <time>2013-02-09T10:40:26Z</time>
      </trkpt>
      <trkpt lat="44.84432" lon="5.51788">
        <ele>1936</ele>
        <time>2013-02-09T10:40:31Z</time>
      </trkpt>
      <trkpt lat="44.84432" lon="5.51787">
        <ele>1936</ele>
        <time>2013-02-09T10:40:36Z</time>
      </trkpt>
      <trkpt lat="44.84432" lon="5.51787">
        <ele>1936</ele>
        <time>2013-02-09T10:40:41Z</time>
      </trkpt>
      <trkpt lat="44.84432" lon="5.51788">
        <ele>1936</ele>
        <time>2013-02-09T10:40:46Z</time>
      </trkpt>
      <trkpt lat="44.84432" lon="5.51787">
        <ele>1936</ele>
        <time>2013-02-09T10:40:51Z</time>
      </trkpt>
      <trkpt lat="44.84432" lon="5.51787">
        <ele>1936</ele>
        <time>2013-02-09T10:40:56Z</time>
      </trkpt>
      <trkpt lat="44.84432" lon="5.51787">
        <ele>1936</ele>
        <time>2013-02-09T10:41:01Z</time>
      </trkpt>
      <trkpt lat="44.84432" lon="5.51787">
        <ele>1936</ele>
        <time>2013-02-09T10:41:06Z</time>
      </trkpt>
      <trkpt lat="44.84432" lon="5.51787">
        <ele>1936</ele>
        <time>2013-02-09T10:41:11Z</time>
      </trkpt>
      <trkpt lat="44.84432" lon="5.51787">
        <ele>1936</ele>
        <time>2013-02-09T10:41:16Z</time>
      </trkpt>
      <trkpt lat="44.8443" lon="5.51788">
        <ele>1936</ele>
        <time>2013-02-09T10:41:21Z</time>
      </trkpt>
      <trkpt lat="44.84427" lon="5.51791">
        <ele>1937</ele>
        <time>2013-02-09T10:41:26Z</time>
      </trkpt>
      <trkpt lat="44.84423" lon="5.51794">
        <ele>1938</ele>
        <time>2013-02-09T10:41:31Z</time>
      </trkpt>
      <trkpt lat="44.84419" lon="5.51798">
        <ele>1939</ele>
        <time>2013-02-09T10:41:36Z</time>
      </trkpt>
      <trkpt lat="44.84415" lon="5.51802">
        <ele>1939</ele>
        <time>2013-02-09T10:41:41Z</time>
      </trkpt>
      <trkpt lat="44.84411" lon="5.51806">
        <ele>1940</ele>
        <time>2013-02-09T10:41:46Z</time>
      </trkpt>
      <trkpt lat="44.84407" lon="5.51811">
        <ele>1940</ele>
        <time>2013-02-09T10:41:51Z</time>
      </trkpt>
      <trkpt lat="44.84404" lon="5.51815">
        <ele>1941</ele>
        <time>2013-02-09T10:41:56Z</time>
      </trkpt>
      <trkpt lat="44.84399" lon="5.51818">
        <ele>1941</ele>
        <time>2013-02-09T10:42:01Z</time>
      </trkpt>
      <trkpt lat="44.84395" lon="5.51821">
        <ele>1941</ele>
        <time>2013-02-09T10:42:06Z</time>
      </trkpt>
      <trkpt lat="44.84391" lon="5.51825">
        <ele>1942</ele>
        <time>2013-02-09T10:42:11Z</time>
      </trkpt>
      <trkpt lat="44.84387" lon="5.51828">
        <ele>1942</ele>
        <time>2013-02-09T10:42:16Z</time>
      </trkpt>
      <trkpt lat="44.84384" lon="5.51833">
        <ele>1942</ele>
        <time>2013-02-09T10:42:21Z</time>
      </trkpt>
      <trkpt lat="44.8438" lon="5.51837">
        <ele>1942</ele>
        <time>2013-02-09T10:42:26Z</time>
      </trkpt>
      <trkpt lat="44.84375" lon="5.51842">
        <ele>1942</ele>
        <time>2013-02-09T10:42:31Z</time>
      </trkpt>
      <trkpt lat="44.84372" lon="5.51847">
        <ele>1942</ele>
        <time>2013-02-09T10:42:36Z</time>
      </trkpt>
      <trkpt lat="44.84369" lon="5.51852">
        <ele>1942</ele>
        <time>2013-02-09T10:42:41Z</time>
      </trkpt>
      <trkpt lat="44.84368" lon="5.51853">
        <ele>1942</ele>
        <time>2013-02-09T10:42:46Z</time>
      </trkpt>
      <trkpt lat="44.84368" lon="5.51853">
        <ele>1942</ele>
        <time>2013-02-09T10:42:51Z</time>
      </trkpt>
      <trkpt lat="44.84368" lon="5.51853">
        <ele>1942</ele>
        <time>2013-02-09T10:42:56Z</time>
      </trkpt>
      <trkpt lat="44.84368" lon="5.51853">
        <ele>1942</ele>
        <time>2013-02-09T10:43:01Z</time>
      </trkpt>
      <trkpt lat="44.84367" lon="5.51854">
        <ele>1940</ele>
        <time>2013-02-09T10:47:56Z</time>
      </trkpt>
      <trkpt lat="44.84365" lon="5.51858">
        <ele>1941</ele>
        <time>2013-02-09T10:48:01Z</time>
      </trkpt>
      <trkpt lat="44.84363" lon="5.51861">
        <ele>1941</ele>
        <time>2013-02-09T10:48:06Z</time>
      </trkpt>
      <trkpt lat="44.84362" lon="5.51862">
        <ele>1942</ele>
        <time>2013-02-09T10:48:11Z</time>
      </trkpt>
      <trkpt lat="44.84361" lon="5.51863">
        <ele>1942</ele>
        <time>2013-02-09T10:48:16Z</time>
      </trkpt>
      <trkpt lat="44.84359" lon="5.51865">
        <ele>1943</ele>
        <time>2013-02-09T10:48:21Z</time>
      </trkpt>
      <trkpt lat="44.84358" lon="5.51867">
        <ele>1944</ele>
        <time>2013-02-09T10:48:26Z</time>
      </trkpt>
      <trkpt lat="44.84355" lon="5.51868">
        <ele>1944</ele>
        <time>2013-02-09T10:48:31Z</time>
      </trkpt>
      <trkpt lat="44.84354" lon="5.51869">
        <ele>1945</ele>
        <time>2013-02-09T10:48:36Z</time>
      </trkpt>
      <trkpt lat="44.84351" lon="5.5187">
        <ele>1946</ele>
        <time>2013-02-09T10:48:41Z</time>
      </trkpt>
      <trkpt lat="44.8435" lon="5.51871">
        <ele>1947</ele>
        <time>2013-02-09T10:48:46Z</time>
      </trkpt>
      <trkpt lat="44.84348" lon="5.51873">
        <ele>1948</ele>
        <time>2013-02-09T10:48:51Z</time>
      </trkpt>
      <trkpt lat="44.84347" lon="5.51875">
        <ele>1948</ele>
        <time>2013-02-09T10:48:56Z</time>
      </trkpt>
      <trkpt lat="44.84345" lon="5.51876">
        <ele>1949</ele>
        <time>2013-02-09T10:49:01Z</time>
      </trkpt>
      <trkpt lat="44.84344" lon="5.51878">
        <ele>1950</ele>
        <time>2013-02-09T10:49:06Z</time>
      </trkpt>
      <trkpt lat="44.84342" lon="5.5188">
        <ele>1951</ele>
        <time>2013-02-09T10:49:11Z</time>
      </trkpt>
      <trkpt lat="44.8434" lon="5.51881">
        <ele>1951</ele>
        <time>2013-02-09T10:49:16Z</time>
      </trkpt>
      <trkpt lat="44.84338" lon="5.51882">
        <ele>1952</ele>
        <time>2013-02-09T10:49:21Z</time>
      </trkpt>
      <trkpt lat="44.84337" lon="5.51884">
        <ele>1952</ele>
        <time>2013-02-09T10:49:26Z</time>
      </trkpt>
      <trkpt lat="44.84337" lon="5.51887">
        <ele>1953</ele>
        <time>2013-02-09T10:49:31Z</time>
      </trkpt>
      <trkpt lat="44.84335" lon="5.51891">
        <ele>1953</ele>
        <time>2013-02-09T10:49:36Z</time>
      </trkpt>
      <trkpt lat="44.84334" lon="5.51894">
        <ele>1954</ele>
        <time>2013-02-09T10:49:41Z</time>
      </trkpt>
      <trkpt lat="44.84332" lon="5.51897">
        <ele>1954</ele>
        <time>2013-02-09T10:49:46Z</time>
      </trkpt>
      <trkpt lat="44.8433" lon="5.51901">
        <ele>1955</ele>
        <time>2013-02-09T10:49:51Z</time>
      </trkpt>
      <trkpt lat="44.8433" lon="5.51905">
        <ele>1955</ele>
        <time>2013-02-09T10:49:56Z</time>
      </trkpt>
      <trkpt lat="44.8433" lon="5.5191">
        <ele>1955</ele>
        <time>2013-02-09T10:50:01Z</time>
      </trkpt>
      <trkpt lat="44.8433" lon="5.51915">
        <ele>1956</ele>
        <time>2013-02-09T10:50:06Z</time>
      </trkpt>
      <trkpt lat="44.84331" lon="5.51922">
        <ele>1955</ele>
        <time>2013-02-09T10:50:11Z</time>
      </trkpt>
      <trkpt lat="44.84332" lon="5.51929">
        <ele>1955</ele>
        <time>2013-02-09T10:50:16Z</time>
      </trkpt>
      <trkpt lat="44.84333" lon="5.51936">
        <ele>1955</ele>
        <time>2013-02-09T10:50:21Z</time>
      </trkpt>
      <trkpt lat="44.84334" lon="5.51939">
        <ele>1955</ele>
        <time>2013-02-09T10:50:26Z</time>
      </trkpt>
      <trkpt lat="44.84335" lon="5.51944">
        <ele>1955</ele>
        <time>2013-02-09T10:50:31Z</time>
      </trkpt>
      <trkpt lat="44.84336" lon="5.5195">
        <ele>1955</ele>
        <time>2013-02-09T10:50:36Z</time>
      </trkpt>
      <trkpt lat="44.84336" lon="5.51958">
        <ele>1954</ele>
        <time>2013-02-09T10:50:41Z</time>
      </trkpt>
      <trkpt lat="44.84335" lon="5.51966">
        <ele>1953</ele>
        <time>2013-02-09T10:50:46Z</time>
      </trkpt>
      <trkpt lat="44.84333" lon="5.51974">
        <ele>1953</ele>
        <time>2013-02-09T10:50:51Z</time>
      </trkpt>
      <trkpt lat="44.84333" lon="5.51981">
        <ele>1953</ele>
        <time>2013-02-09T10:50:56Z</time>
      </trkpt>
      <trkpt lat="44.84335" lon="5.51984">
        <ele>1953</ele>
        <time>2013-02-09T10:51:01Z</time>
      </trkpt>
      <trkpt lat="44.84338" lon="5.51989">
        <ele>1952</ele>
        <time>2013-02-09T10:51:06Z</time>
      </trkpt>
      <trkpt lat="44.84338" lon="5.51989">
        <ele>1952</ele>
        <time>2013-02-09T10:51:11Z</time>
      </trkpt>
      <trkpt lat="44.84338" lon="5.51989">
        <ele>1949</ele>
        <time>2013-02-09T10:55:01Z</time>
      </trkpt>
      <trkpt lat="44.84338" lon="5.51989">
        <ele>1950</ele>
        <time>2013-02-09T10:55:06Z</time>
      </trkpt>
      <trkpt lat="44.8434" lon="5.5199">
        <ele>1950</ele>
        <time>2013-02-09T10:55:11Z</time>
      </trkpt>
      <trkpt lat="44.84345" lon="5.51992">
        <ele>1951</ele>
        <time>2013-02-09T10:55:16Z</time>
      </trkpt>
      <trkpt lat="44.8435" lon="5.51994">
        <ele>1952</ele>
        <time>2013-02-09T10:55:21Z</time>
      </trkpt>
      <trkpt lat="44.84355" lon="5.51997">
        <ele>1954</ele>
        <time>2013-02-09T10:55:26Z</time>
      </trkpt>
      <trkpt lat="44.84358" lon="5.52001">
        <ele>1955</ele>
        <time>2013-02-09T10:55:31Z</time>
      </trkpt>
      <trkpt lat="44.84361" lon="5.52005">
        <ele>1956</ele>
        <time>2013-02-09T10:55:36Z</time>
      </trkpt>
      <trkpt lat="44.84363" lon="5.52009">
        <ele>1958</ele>
        <time>2013-02-09T10:55:41Z</time>
      </trkpt>
      <trkpt lat="44.84364" lon="5.52014">
        <ele>1959</ele>
        <time>2013-02-09T10:55:46Z</time>
      </trkpt>
      <trkpt lat="44.84366" lon="5.52018">
        <ele>1960</ele>
        <time>2013-02-09T10:55:51Z</time>
      </trkpt>
      <trkpt lat="44.84368" lon="5.52022">
        <ele>1961</ele>
        <time>2013-02-09T10:55:56Z</time>
      </trkpt>
      <trkpt lat="44.84371" lon="5.52027">
        <ele>1962</ele>
        <time>2013-02-09T10:56:01Z</time>
      </trkpt>
      <trkpt lat="44.84374" lon="5.52031">
        <ele>1963</ele>
        <time>2013-02-09T10:56:06Z</time>
      </trkpt>
      <trkpt lat="44.84376" lon="5.52036">
        <ele>1964</ele>
        <time>2013-02-09T10:56:11Z</time>
      </trkpt>
      <trkpt lat="44.84379" lon="5.5204">
        <ele>1965</ele>
        <time>2013-02-09T10:56:16Z</time>
      </trkpt>
      <trkpt lat="44.8438" lon="5.52043">
        <ele>1965</ele>
        <time>2013-02-09T10:56:21Z</time>
      </trkpt>
      <trkpt lat="44.8438" lon="5.52043">
        <ele>1965</ele>
        <time>2013-02-09T10:56:26Z</time>
      </trkpt>
      <trkpt lat="44.8438" lon="5.52044">
        <ele>1965</ele>
        <time>2013-02-09T10:56:31Z</time>
      </trkpt>
      <trkpt lat="44.8438" lon="5.52044">
        <ele>1965</ele>
        <time>2013-02-09T10:56:36Z</time>
      </trkpt>
      <trkpt lat="44.84382" lon="5.52047">
        <ele>1965</ele>
        <time>2013-02-09T10:56:41Z</time>
      </trkpt>
      <trkpt lat="44.84386" lon="5.52051">
        <ele>1965</ele>
        <time>2013-02-09T10:56:46Z</time>
      </trkpt>
      <trkpt lat="44.84388" lon="5.52057">
        <ele>1964</ele>
        <time>2013-02-09T10:56:51Z</time>
      </trkpt>
      <trkpt lat="44.84391" lon="5.52064">
        <ele>1963</ele>
        <time>2013-02-09T10:56:56Z</time>
      </trkpt>
      <trkpt lat="44.84392" lon="5.52071">
        <ele>1962</ele>
        <time>2013-02-09T10:57:01Z</time>
      </trkpt>
      <trkpt lat="44.84391" lon="5.52085">
        <ele>1960</ele>
        <time>2013-02-09T10:57:06Z</time>
      </trkpt>
      <trkpt lat="44.84381" lon="5.52095">
        <ele>1957</ele>
        <time>2013-02-09T10:57:11Z</time>
      </trkpt>
      <trkpt lat="44.84378" lon="5.52106">
        <ele>1954</ele>
        <time>2013-02-09T10:57:16Z</time>
      </trkpt>
      <trkpt lat="44.84382" lon="5.52122">
        <ele>1952</ele>
        <time>2013-02-09T10:57:21Z</time>
      </trkpt>
      <trkpt lat="44.84384" lon="5.52133">
        <ele>1951</ele>
        <time>2013-02-09T10:57:26Z</time>
      </trkpt>
      <trkpt lat="44.84386" lon="5.52143">
        <ele>1950</ele>
        <time>2013-02-09T10:57:31Z</time>
      </trkpt>
      <trkpt lat="44.84387" lon="5.52152">
        <ele>1950</ele>
        <time>2013-02-09T10:57:36Z</time>
      </trkpt>
      <trkpt lat="44.84389" lon="5.5216">
        <ele>1950</ele>
        <time>2013-02-09T10:57:41Z</time>
      </trkpt>
      <trkpt lat="44.8439" lon="5.52166">
        <ele>1950</ele>
        <time>2013-02-09T10:57:46Z</time>
      </trkpt>
      <trkpt lat="44.84391" lon="5.52173">
        <ele>1951</ele>
        <time>2013-02-09T10:57:51Z</time>
      </trkpt>
      <trkpt lat="44.84393" lon="5.52181">
        <ele>1951</ele>
        <time>2013-02-09T10:57:56Z</time>
      </trkpt>
      <trkpt lat="44.84395" lon="5.52189">
        <ele>1951</ele>
        <time>2013-02-09T10:58:01Z</time>
      </trkpt>
      <trkpt lat="44.84396" lon="5.52189">
        <ele>1951</ele>
        <time>2013-02-09T10:58:06Z</time>
      </trkpt>
      <trkpt lat="44.84397" lon="5.5219">
        <ele>1945</ele>
        <time>2013-02-09T11:14:36Z</time>
      </trkpt>
      <trkpt lat="44.84395" lon="5.5219">
        <ele>1944</ele>
        <time>2013-02-09T11:14:41Z</time>
      </trkpt>
      <trkpt lat="44.8439" lon="5.52202">
        <ele>1942</ele>
        <time>2013-02-09T11:14:46Z</time>
      </trkpt>
      <trkpt lat="44.84378" lon="5.52205">
        <ele>1940</ele>
        <time>2013-02-09T11:14:51Z</time>
      </trkpt>
      <trkpt lat="44.84363" lon="5.52217">
        <ele>1935</ele>
        <time>2013-02-09T11:14:56Z</time>
      </trkpt>
      <trkpt lat="44.8435" lon="5.52226">
        <ele>1930</ele>
        <time>2013-02-09T11:15:01Z</time>
      </trkpt>
      <trkpt lat="44.84337" lon="5.52235">
        <ele>1927</ele>
        <time>2013-02-09T11:15:06Z</time>
      </trkpt>
      <trkpt lat="44.84332" lon="5.5222">
        <ele>1923</ele>
        <time>2013-02-09T11:15:11Z</time>
      </trkpt>
      <trkpt lat="44.84314" lon="5.52231">
        <ele>1919</ele>
        <time>2013-02-09T11:15:16Z</time>
      </trkpt>
      <trkpt lat="44.84307" lon="5.52242">
        <ele>1918</ele>
        <time>2013-02-09T11:15:21Z</time>
      </trkpt>
      <trkpt lat="44.84306" lon="5.52243">
        <ele>1919</ele>
        <time>2013-02-09T11:15:26Z</time>
      </trkpt>
      <trkpt lat="44.84306" lon="5.52243">
        <ele>1919</ele>
        <time>2013-02-09T11:15:31Z</time>
      </trkpt>
      <trkpt lat="44.84306" lon="5.52243">
        <ele>1919</ele>
        <time>2013-02-09T11:15:36Z</time>
      </trkpt>
      <trkpt lat="44.84305" lon="5.52244">
        <ele>1919</ele>
        <time>2013-02-09T11:15:41Z</time>
      </trkpt>
      <trkpt lat="44.84299" lon="5.52248">
        <ele>1918</ele>
        <time>2013-02-09T11:15:46Z</time>
      </trkpt>
      <trkpt lat="44.84287" lon="5.52262">
        <ele>1914</ele>
        <time>2013-02-09T11:15:51Z</time>
      </trkpt>
      <trkpt lat="44.84272" lon="5.52275">
        <ele>1911</ele>
        <time>2013-02-09T11:15:56Z</time>
      </trkpt>
      <trkpt lat="44.84265" lon="5.52279">
        <ele>1910</ele>
        <time>2013-02-09T11:16:01Z</time>
      </trkpt>
      <trkpt lat="44.84261" lon="5.52281">
        <ele>1910</ele>
        <time>2013-02-09T11:16:06Z</time>
      </trkpt>
      <trkpt lat="44.84259" lon="5.52282">
        <ele>1909</ele>
        <time>2013-02-09T11:16:11Z</time>
      </trkpt>
      <trkpt lat="44.84258" lon="5.52282">
        <ele>1909</ele>
        <time>2013-02-09T11:16:16Z</time>
      </trkpt>
      <trkpt lat="44.84259" lon="5.52282">
        <ele>1910</ele>
        <time>2013-02-09T11:16:21Z</time>
      </trkpt>
      <trkpt lat="44.84258" lon="5.52282">
        <ele>1912</ele>
        <time>2013-02-09T11:16:26Z</time>
      </trkpt>
      <trkpt lat="44.84257" lon="5.52283">
        <ele>1913</ele>
        <time>2013-02-09T11:16:31Z</time>
      </trkpt>
      <trkpt lat="44.84254" lon="5.52285">
        <ele>1913</ele>
        <time>2013-02-09T11:16:36Z</time>
      </trkpt>
      <trkpt lat="44.84245" lon="5.52295">
        <ele>1910</ele>
        <time>2013-02-09T11:16:41Z</time>
      </trkpt>
      <trkpt lat="44.84234" lon="5.52308">
        <ele>1906</ele>
        <time>2013-02-09T11:16:46Z</time>
      </trkpt>
      <trkpt lat="44.84213" lon="5.52312">
        <ele>1899</ele>
        <time>2013-02-09T11:16:51Z</time>
      </trkpt>
      <trkpt lat="44.84193" lon="5.52314">
        <ele>1892</ele>
        <time>2013-02-09T11:16:56Z</time>
      </trkpt>
      <trkpt lat="44.84178" lon="5.52312">
        <ele>1888</ele>
        <time>2013-02-09T11:17:01Z</time>
      </trkpt>
      <trkpt lat="44.84165" lon="5.52311">
        <ele>1884</ele>
        <time>2013-02-09T11:17:06Z</time>
      </trkpt>
      <trkpt lat="44.84156" lon="5.52308">
        <ele>1881</ele>
        <time>2013-02-09T11:17:11Z</time>
      </trkpt>
      <trkpt lat="44.84155" lon="5.52307">
        <ele>1879</ele>
        <time>2013-02-09T11:17:16Z</time>
      </trkpt>
      <trkpt lat="44.84155" lon="5.52306">
        <ele>1878</ele>
        <time>2013-02-09T11:17:21Z</time>
      </trkpt>
      <trkpt lat="44.84155" lon="5.52305">
        <ele>1878</ele>
        <time>2013-02-09T11:17:26Z</time>
      </trkpt>
      <trkpt lat="44.84153" lon="5.52305">
        <ele>1879</ele>
        <time>2013-02-09T11:17:31Z</time>
      </trkpt>
      <trkpt lat="44.8415" lon="5.52306">
        <ele>1880</ele>
        <time>2013-02-09T11:17:36Z</time>
      </trkpt>
      <trkpt lat="44.84147" lon="5.52308">
        <ele>1881</ele>
        <time>2013-02-09T11:17:41Z</time>
      </trkpt>
      <trkpt lat="44.84145" lon="5.52309">
        <ele>1880</ele>
        <time>2013-02-09T11:17:46Z</time>
      </trkpt>
      <trkpt lat="44.84144" lon="5.52311">
        <ele>1882</ele>
        <time>2013-02-09T11:17:51Z</time>
      </trkpt>
      <trkpt lat="44.84142" lon="5.52313">
        <ele>1883</ele>
        <time>2013-02-09T11:17:56Z</time>
      </trkpt>
      <trkpt lat="44.84141" lon="5.52314">
        <ele>1886</ele>
        <time>2013-02-09T11:18:01Z</time>
      </trkpt>
      <trkpt lat="44.8414" lon="5.52315">
        <ele>1884</ele>
        <time>2013-02-09T11:18:06Z</time>
      </trkpt>
      <trkpt lat="44.84137" lon="5.5232">
        <ele>1884</ele>
        <time>2013-02-09T11:18:11Z</time>
      </trkpt>
      <trkpt lat="44.84134" lon="5.52324">
        <ele>1887</ele>
        <time>2013-02-09T11:18:16Z</time>
      </trkpt>
      <trkpt lat="44.84134" lon="5.52324">
        <ele>1888</ele>
        <time>2013-02-09T11:18:21Z</time>
      </trkpt>
      <trkpt lat="44.84134" lon="5.52325">
        <ele>1889</ele>
        <time>2013-02-09T11:18:26Z</time>
      </trkpt>
      <trkpt lat="44.84133" lon="5.52328">
        <ele>1888</ele>
        <time>2013-02-09T11:18:31Z</time>
      </trkpt>
      <trkpt lat="44.84132" lon="5.52329">
        <ele>1887</ele>
        <time>2013-02-09T11:18:36Z</time>
      </trkpt>
      <trkpt lat="44.84131" lon="5.52331">
        <ele>1887</ele>
        <time>2013-02-09T11:18:41Z</time>
      </trkpt>
      <trkpt lat="44.84129" lon="5.52332">
        <ele>1889</ele>
        <time>2013-02-09T11:18:46Z</time>
      </trkpt>
      <trkpt lat="44.84128" lon="5.52333">
        <ele>1890</ele>
        <time>2013-02-09T11:18:51Z</time>
      </trkpt>
      <trkpt lat="44.84128" lon="5.52334">
        <ele>1891</ele>
        <time>2013-02-09T11:18:56Z</time>
      </trkpt>
      <trkpt lat="44.84126" lon="5.52336">
        <ele>1892</ele>
        <time>2013-02-09T11:19:01Z</time>
      </trkpt>
      <trkpt lat="44.84121" lon="5.52339">
        <ele>1893</ele>
        <time>2013-02-09T11:19:06Z</time>
      </trkpt>
      <trkpt lat="44.84119" lon="5.52344">
        <ele>1894</ele>
        <time>2013-02-09T11:19:11Z</time>
      </trkpt>
      <trkpt lat="44.84118" lon="5.52355">
        <ele>1895</ele>
        <time>2013-02-09T11:19:16Z</time>
      </trkpt>
      <trkpt lat="44.84116" lon="5.52365">
        <ele>1895</ele>
        <time>2013-02-09T11:19:21Z</time>
      </trkpt>
      <trkpt lat="44.84116" lon="5.5237">
        <ele>1896</ele>
        <time>2013-02-09T11:19:26Z</time>
      </trkpt>
      <trkpt lat="44.84116" lon="5.5237">
        <ele>1896</ele>
        <time>2013-02-09T11:19:31Z</time>
      </trkpt>
      <trkpt lat="44.84116" lon="5.5237">
        <ele>1896</ele>
        <time>2013-02-09T11:19:36Z</time>
      </trkpt>
      <trkpt lat="44.84114" lon="5.5237">
        <ele>1892</ele>
        <time>2013-02-09T11:22:01Z</time>
      </trkpt>
      <trkpt lat="44.84116" lon="5.52374">
        <ele>1892</ele>
        <time>2013-02-09T11:22:06Z</time>
      </trkpt>
      <trkpt lat="44.84118" lon="5.52375">
        <ele>1891</ele>
        <time>2013-02-09T11:22:11Z</time>
      </trkpt>
      <trkpt lat="44.84117" lon="5.52375">
        <ele>1891</ele>
        <time>2013-02-09T11:22:16Z</time>
      </trkpt>
      <trkpt lat="44.84118" lon="5.52375">
        <ele>1892</ele>
        <time>2013-02-09T11:22:21Z</time>
      </trkpt>
      <trkpt lat="44.84123" lon="5.52379">
        <ele>1893</ele>
        <time>2013-02-09T11:22:26Z</time>
      </trkpt>
      <trkpt lat="44.84128" lon="5.52382">
        <ele>1893</ele>
        <time>2013-02-09T11:22:31Z</time>
      </trkpt>
      <trkpt lat="44.84135" lon="5.52386">
        <ele>1893</ele>
        <time>2013-02-09T11:22:36Z</time>
      </trkpt>
      <trkpt lat="44.8414" lon="5.5239">
        <ele>1893</ele>
        <time>2013-02-09T11:22:41Z</time>
      </trkpt>
      <trkpt lat="44.84143" lon="5.52394">
        <ele>1893</ele>
        <time>2013-02-09T11:22:46Z</time>
      </trkpt>
      <trkpt lat="44.84147" lon="5.52397">
        <ele>1893</ele>
        <time>2013-02-09T11:22:51Z</time>
      </trkpt>
      <trkpt lat="44.84152" lon="5.52402">
        <ele>1892</ele>
        <time>2013-02-09T11:22:56Z</time>
      </trkpt>
      <trkpt lat="44.84155" lon="5.52406">
        <ele>1892</ele>
        <time>2013-02-09T11:23:01Z</time>
      </trkpt>
      <trkpt lat="44.84157" lon="5.5241">
        <ele>1892</ele>
        <time>2013-02-09T11:23:06Z</time>
      </trkpt>
      <trkpt lat="44.8416" lon="5.52414">
        <ele>1891</ele>
        <time>2013-02-09T11:23:11Z</time>
      </trkpt>
      <trkpt lat="44.84163" lon="5.52418">
        <ele>1890</ele>
        <time>2013-02-09T11:23:16Z</time>
      </trkpt>
      <trkpt lat="44.84165" lon="5.52424">
        <ele>1890</ele>
        <time>2013-02-09T11:23:21Z</time>
      </trkpt>
      <trkpt lat="44.84169" lon="5.52432">
        <ele>1889</ele>
        <time>2013-02-09T11:23:26Z</time>
      </trkpt>
      <trkpt lat="44.84177" lon="5.52447">
        <ele>1887</ele>
        <time>2013-02-09T11:23:31Z</time>
      </trkpt>
      <trkpt lat="44.8419" lon="5.5245">
        <ele>1883</ele>
        <time>2013-02-09T11:23:36Z</time>
      </trkpt>
      <trkpt lat="44.84198" lon="5.52448">
        <ele>1880</ele>
        <time>2013-02-09T11:23:41Z</time>
      </trkpt>
      <trkpt lat="44.84198" lon="5.52447">
        <ele>1879</ele>
        <time>2013-02-09T11:23:46Z</time>
      </trkpt>
      <trkpt lat="44.84198" lon="5.52447">
        <ele>1878</ele>
        <time>2013-02-09T11:23:51Z</time>
      </trkpt>
      <trkpt lat="44.84198" lon="5.52447">
        <ele>1877</ele>
        <time>2013-02-09T11:23:56Z</time>
      </trkpt>
      <trkpt lat="44.8421" lon="5.52455">
        <ele>1874</ele>
        <time>2013-02-09T11:24:01Z</time>
      </trkpt>
      <trkpt lat="44.84209" lon="5.52465">
        <ele>1870</ele>
        <time>2013-02-09T11:24:06Z</time>
      </trkpt>
      <trkpt lat="44.84211" lon="5.52477">
        <ele>1863</ele>
        <time>2013-02-09T11:24:11Z</time>
      </trkpt>
      <trkpt lat="44.84213" lon="5.52477">
        <ele>1859</ele>
        <time>2013-02-09T11:24:16Z</time>
      </trkpt>
      <trkpt lat="44.84213" lon="5.52477">
        <ele>1856</ele>
        <time>2013-02-09T11:24:21Z</time>
      </trkpt>
      <trkpt lat="44.84213" lon="5.52477">
        <ele>1857</ele>
        <time>2013-02-09T11:24:26Z</time>
      </trkpt>
      <trkpt lat="44.84213" lon="5.52477">
        <ele>1858</ele>
        <time>2013-02-09T11:24:31Z</time>
      </trkpt>
      <trkpt lat="44.84213" lon="5.52477">
        <ele>1859</ele>
        <time>2013-02-09T11:24:36Z</time>
      </trkpt>
      <trkpt lat="44.84213" lon="5.52478">
        <ele>1859</ele>
        <time>2013-02-09T11:24:41Z</time>
      </trkpt>
      <trkpt lat="44.84211" lon="5.52489">
        <ele>1857</ele>
        <time>2013-02-09T11:24:46Z</time>
      </trkpt>
      <trkpt lat="44.84219" lon="5.52506">
        <ele>1854</ele>
        <time>2013-02-09T11:24:51Z</time>
      </trkpt>
      <trkpt lat="44.84213" lon="5.52528">
        <ele>1843</ele>
        <time>2013-02-09T11:24:56Z</time>
      </trkpt>
      <trkpt lat="44.8421" lon="5.52556">
        <ele>1828</ele>
        <time>2013-02-09T11:25:01Z</time>
      </trkpt>
      <trkpt lat="44.842" lon="5.52588">
        <ele>1817</ele>
        <time>2013-02-09T11:25:06Z</time>
      </trkpt>
      <trkpt lat="44.84195" lon="5.52612">
        <ele>1813</ele>
        <time>2013-02-09T11:25:11Z</time>
      </trkpt>
      <trkpt lat="44.84196" lon="5.52618">
        <ele>1816</ele>
        <time>2013-02-09T11:25:16Z</time>
      </trkpt>
      <trkpt lat="44.84197" lon="5.52621">
        <ele>1817</ele>
        <time>2013-02-09T11:25:21Z</time>
      </trkpt>
      <trkpt lat="44.84197" lon="5.52626">
        <ele>1816</ele>
        <time>2013-02-09T11:25:26Z</time>
      </trkpt>
      <trkpt lat="44.84195" lon="5.52632">
        <ele>1816</ele>
        <time>2013-02-09T11:25:31Z</time>
      </trkpt>
      <trkpt lat="44.84196" lon="5.52641">
        <ele>1817</ele>
        <time>2013-02-09T11:25:36Z</time>
      </trkpt>
      <trkpt lat="44.84204" lon="5.52658">
        <ele>1817</ele>
        <time>2013-02-09T11:25:41Z</time>
      </trkpt>
      <trkpt lat="44.84208" lon="5.52668">
        <ele>1814</ele>
        <time>2013-02-09T11:25:46Z</time>
      </trkpt>
      <trkpt lat="44.84216" lon="5.52693">
        <ele>1812</ele>
        <time>2013-02-09T11:25:51Z</time>
      </trkpt>
      <trkpt lat="44.84227" lon="5.52723">
        <ele>1810</ele>
        <time>2013-02-09T11:25:56Z</time>
      </trkpt>
      <trkpt lat="44.84234" lon="5.52746">
        <ele>1808</ele>
        <time>2013-02-09T11:26:01Z</time>
      </trkpt>
      <trkpt lat="44.84239" lon="5.52768">
        <ele>1806</ele>
        <time>2013-02-09T11:26:06Z</time>
      </trkpt>
      <trkpt lat="44.84237" lon="5.52775">
        <ele>1798</ele>
        <time>2013-02-09T11:26:11Z</time>
      </trkpt>
      <trkpt lat="44.84237" lon="5.52776">
        <ele>1798</ele>
        <time>2013-02-09T11:26:16Z</time>
      </trkpt>
      <trkpt lat="44.84237" lon="5.52779">
        <ele>1804</ele>
        <time>2013-02-09T11:28:31Z</time>
      </trkpt>
      <trkpt lat="44.84235" lon="5.5278">
        <ele>1800</ele>
        <time>2013-02-09T11:28:36Z</time>
      </trkpt>
      <trkpt lat="44.84234" lon="5.52783">
        <ele>1797</ele>
        <time>2013-02-09T11:28:41Z</time>
      </trkpt>
      <trkpt lat="44.84236" lon="5.52795">
        <ele>1794</ele>
        <time>2013-02-09T11:28:46Z</time>
      </trkpt>
      <trkpt lat="44.8424" lon="5.52826">
        <ele>1790</ele>
        <time>2013-02-09T11:28:51Z</time>
      </trkpt>
      <trkpt lat="44.84241" lon="5.52854">
        <ele>1784</ele>
        <time>2013-02-09T11:28:56Z</time>
      </trkpt>
      <trkpt lat="44.84244" lon="5.52883">
        <ele>1778</ele>
        <time>2013-02-09T11:29:01Z</time>
      </trkpt>
      <trkpt lat="44.84249" lon="5.52914">
        <ele>1775</ele>
        <time>2013-02-09T11:29:06Z</time>
      </trkpt>
      <trkpt lat="44.84255" lon="5.52941">
        <ele>1767</ele>
        <time>2013-02-09T11:29:11Z</time>
      </trkpt>
      <trkpt lat="44.84266" lon="5.52964">
        <ele>1758</ele>
        <time>2013-02-09T11:29:16Z</time>
      </trkpt>
      <trkpt lat="44.84278" lon="5.52984">
        <ele>1747</ele>
        <time>2013-02-09T11:29:21Z</time>
      </trkpt>
      <trkpt lat="44.84284" lon="5.53009">
        <ele>1734</ele>
        <time>2013-02-09T11:29:26Z</time>
      </trkpt>
      <trkpt lat="44.84284" lon="5.53036">
        <ele>1720</ele>
        <time>2013-02-09T11:29:31Z</time>
      </trkpt>
      <trkpt lat="44.84287" lon="5.53069">
        <ele>1710</ele>
        <time>2013-02-09T11:29:36Z</time>
      </trkpt>
      <trkpt lat="44.84294" lon="5.53101">
        <ele>1703</ele>
        <time>2013-02-09T11:29:41Z</time>
      </trkpt>
      <trkpt lat="44.84293" lon="5.53136">
        <ele>1699</ele>
        <time>2013-02-09T11:29:46Z</time>
      </trkpt>
      <trkpt lat="44.84289" lon="5.53165">
        <ele>1696</ele>
        <time>2013-02-09T11:29:51Z</time>
      </trkpt>
      <trkpt lat="44.84286" lon="5.53197">
        <ele>1690</ele>
        <time>2013-02-09T11:29:56Z</time>
      </trkpt>
      <trkpt lat="44.84285" lon="5.53228">
        <ele>1680</ele>
        <time>2013-02-09T11:30:01Z</time>
      </trkpt>
      <trkpt lat="44.84289" lon="5.5326">
        <ele>1666</ele>
        <time>2013-02-09T11:30:06Z</time>
      </trkpt>
      <trkpt lat="44.84291" lon="5.53294">
        <ele>1653</ele>
        <time>2013-02-09T11:30:11Z</time>
      </trkpt>
      <trkpt lat="44.84286" lon="5.53327">
        <ele>1642</ele>
        <time>2013-02-09T11:30:16Z</time>
      </trkpt>
      <trkpt lat="44.8429" lon="5.53346">
        <ele>1633</ele>
        <time>2013-02-09T11:30:21Z</time>
      </trkpt>
      <trkpt lat="44.84295" lon="5.53343">
        <ele>1639</ele>
        <time>2013-02-09T11:34:21Z</time>
      </trkpt>
      <trkpt lat="44.84297" lon="5.53354">
        <ele>1638</ele>
        <time>2013-02-09T11:34:26Z</time>
      </trkpt>
      <trkpt lat="44.84309" lon="5.53376">
        <ele>1636</ele>
        <time>2013-02-09T11:34:31Z</time>
      </trkpt>
      <trkpt lat="44.84315" lon="5.53406">
        <ele>1630</ele>
        <time>2013-02-09T11:34:36Z</time>
      </trkpt>
      <trkpt lat="44.84325" lon="5.53442">
        <ele>1621</ele>
        <time>2013-02-09T11:34:41Z</time>
      </trkpt>
      <trkpt lat="44.84334" lon="5.53475">
        <ele>1614</ele>
        <time>2013-02-09T11:34:46Z</time>
      </trkpt>
      <trkpt lat="44.84338" lon="5.53506">
        <ele>1604</ele>
        <time>2013-02-09T11:34:51Z</time>
      </trkpt>
      <trkpt lat="44.84353" lon="5.53514">
        <ele>1595</ele>
        <time>2013-02-09T11:34:56Z</time>
      </trkpt>
      <trkpt lat="44.84357" lon="5.53515">
        <ele>1592</ele>
        <time>2013-02-09T11:35:01Z</time>
      </trkpt>
      <trkpt lat="44.84366" lon="5.53527">
        <ele>1589</ele>
        <time>2013-02-09T11:35:06Z</time>
      </trkpt>
      <trkpt lat="44.84368" lon="5.53538">
        <ele>1586</ele>
        <time>2013-02-09T11:35:11Z</time>
      </trkpt>
      <trkpt lat="44.84367" lon="5.53561">
        <ele>1582</ele>
        <time>2013-02-09T11:35:16Z</time>
      </trkpt>
      <trkpt lat="44.8438" lon="5.53586">
        <ele>1577</ele>
        <time>2013-02-09T11:35:21Z</time>
      </trkpt>
      <trkpt lat="44.8438" lon="5.53609">
        <ele>1570</ele>
        <time>2013-02-09T11:35:26Z</time>
      </trkpt>
      <trkpt lat="44.84374" lon="5.53621">
        <ele>1565</ele>
        <time>2013-02-09T11:35:31Z</time>
      </trkpt>
      <trkpt lat="44.84369" lon="5.53649">
        <ele>1558</ele>
        <time>2013-02-09T11:35:36Z</time>
      </trkpt>
      <trkpt lat="44.84367" lon="5.5365">
        <ele>1557</ele>
        <time>2013-02-09T11:35:41Z</time>
      </trkpt>
      <trkpt lat="44.84368" lon="5.53649">
        <ele>1557</ele>
        <time>2013-02-09T11:35:46Z</time>
      </trkpt>
      <trkpt lat="44.84368" lon="5.53648">
        <ele>1557</ele>
        <time>2013-02-09T11:35:51Z</time>
      </trkpt>
      <trkpt lat="44.84368" lon="5.53648">
        <ele>1557</ele>
        <time>2013-02-09T11:35:56Z</time>
      </trkpt>
      <trkpt lat="44.84368" lon="5.53647">
        <ele>1557</ele>
        <time>2013-02-09T11:36:01Z</time>
      </trkpt>
      <trkpt lat="44.84368" lon="5.53647">
        <ele>1556</ele>
        <time>2013-02-09T11:36:06Z</time>
      </trkpt>
      <trkpt lat="44.84368" lon="5.53647">
        <ele>1556</ele>
        <time>2013-02-09T11:36:11Z</time>
      </trkpt>
      <trkpt lat="44.84368" lon="5.53646">
        <ele>1555</ele>
        <time>2013-02-09T11:36:16Z</time>
      </trkpt>
      <trkpt lat="44.84368" lon="5.53647">
        <ele>1554</ele>
        <time>2013-02-09T11:36:21Z</time>
      </trkpt>
      <trkpt lat="44.84368" lon="5.53647">
        <ele>1554</ele>
        <time>2013-02-09T11:36:26Z</time>
      </trkpt>
      <trkpt lat="44.84367" lon="5.53649">
        <ele>1553</ele>
        <time>2013-02-09T11:36:31Z</time>
      </trkpt>
      <trkpt lat="44.84364" lon="5.53656">
        <ele>1550</ele>
        <time>2013-02-09T11:36:36Z</time>
      </trkpt>
      <trkpt lat="44.84351" lon="5.53657">
        <ele>1544</ele>
        <time>2013-02-09T11:36:41Z</time>
      </trkpt>
      <trkpt lat="44.84331" lon="5.53656">
        <ele>1542</ele>
        <time>2013-02-09T11:36:46Z</time>
      </trkpt>
      <trkpt lat="44.84324" lon="5.53678">
        <ele>1536</ele>
        <time>2013-02-09T11:36:51Z</time>
      </trkpt>
      <trkpt lat="44.84335" lon="5.53716">
        <ele>1531</ele>
        <time>2013-02-09T11:36:56Z</time>
      </trkpt>
      <trkpt lat="44.84342" lon="5.53753">
        <ele>1523</ele>
        <time>2013-02-09T11:37:01Z</time>
      </trkpt>
      <trkpt lat="44.84356" lon="5.53772">
        <ele>1515</ele>
        <time>2013-02-09T11:37:06Z</time>
      </trkpt>
      <trkpt lat="44.84352" lon="5.53795">
        <ele>1509</ele>
        <time>2013-02-09T11:37:11Z</time>
      </trkpt>
      <trkpt lat="44.84351" lon="5.53822">
        <ele>1499</ele>
        <time>2013-02-09T11:37:16Z</time>
      </trkpt>
      <trkpt lat="44.84344" lon="5.53846">
        <ele>1491</ele>
        <time>2013-02-09T11:37:21Z</time>
      </trkpt>
      <trkpt lat="44.84352" lon="5.53878">
        <ele>1485</ele>
        <time>2013-02-09T11:37:26Z</time>
      </trkpt>
      <trkpt lat="44.84348" lon="5.53906">
        <ele>1477</ele>
        <time>2013-02-09T11:37:31Z</time>
      </trkpt>
      <trkpt lat="44.84343" lon="5.53937">
        <ele>1475</ele>
        <time>2013-02-09T11:37:36Z</time>
      </trkpt>
      <trkpt lat="44.84341" lon="5.53953">
        <ele>1472</ele>
        <time>2013-02-09T11:37:41Z</time>
      </trkpt>
      <trkpt lat="44.84343" lon="5.53953">
        <ele>1472</ele>
        <time>2013-02-09T11:37:46Z</time>
      </trkpt>
      <trkpt lat="44.84345" lon="5.53955">
        <ele>1474</ele>
        <time>2013-02-09T11:37:51Z</time>
      </trkpt>
      <trkpt lat="44.84344" lon="5.53954">
        <ele>1472</ele>
        <time>2013-02-09T11:37:56Z</time>
      </trkpt>
      <trkpt lat="44.84346" lon="5.53951">
        <ele>1469</ele>
        <time>2013-02-09T11:38:01Z</time>
      </trkpt>
      <trkpt lat="44.84346" lon="5.53952">
        <ele>1470</ele>
        <time>2013-02-09T11:38:06Z</time>
      </trkpt>
      <trkpt lat="44.84346" lon="5.53954">
        <ele>1469</ele>
        <time>2013-02-09T11:38:11Z</time>
      </trkpt>
      <trkpt lat="44.84346" lon="5.53958">
        <ele>1472</ele>
        <time>2013-02-09T11:38:16Z</time>
      </trkpt>
      <trkpt lat="44.84348" lon="5.53958">
        <ele>1471</ele>
        <time>2013-02-09T11:38:21Z</time>
      </trkpt>
      <trkpt lat="44.84345" lon="5.53961">
        <ele>1471</ele>
        <time>2013-02-09T11:38:26Z</time>
      </trkpt>
      <trkpt lat="44.84346" lon="5.53964">
        <ele>1477</ele>
        <time>2013-02-09T11:38:31Z</time>
      </trkpt>
      <trkpt lat="44.84346" lon="5.53965">
        <ele>1477</ele>
        <time>2013-02-09T11:38:36Z</time>
      </trkpt>
      <trkpt lat="44.84347" lon="5.53964">
        <ele>1477</ele>
        <time>2013-02-09T11:38:41Z</time>
      </trkpt>
      <trkpt lat="44.84347" lon="5.53964">
        <ele>1476</ele>
        <time>2013-02-09T11:38:46Z</time>
      </trkpt>
      <trkpt lat="44.84346" lon="5.53963">
        <ele>1475</ele>
        <time>2013-02-09T11:38:51Z</time>
      </trkpt>
      <trkpt lat="44.84347" lon="5.53963">
        <ele>1476</ele>
        <time>2013-02-09T11:38:56Z</time>
      </trkpt>
      <trkpt lat="44.84352" lon="5.53959">
        <ele>1477</ele>
        <time>2013-02-09T11:39:01Z</time>
      </trkpt>
      <trkpt lat="44.84358" lon="5.53961">
        <ele>1480</ele>
        <time>2013-02-09T11:40:51Z</time>
      </trkpt>
      <trkpt lat="44.84361" lon="5.53964">
        <ele>1479</ele>
        <time>2013-02-09T11:40:56Z</time>
      </trkpt>
      <trkpt lat="44.84366" lon="5.53969">
        <ele>1477</ele>
        <time>2013-02-09T11:41:01Z</time>
      </trkpt>
      <trkpt lat="44.84372" lon="5.53972">
        <ele>1478</ele>
        <time>2013-02-09T11:41:06Z</time>
      </trkpt>
      <trkpt lat="44.84374" lon="5.53974">
        <ele>1477</ele>
        <time>2013-02-09T11:41:11Z</time>
      </trkpt>
      <trkpt lat="44.84378" lon="5.53995">
        <ele>1478</ele>
        <time>2013-02-09T11:41:16Z</time>
      </trkpt>
      <trkpt lat="44.84387" lon="5.54029">
        <ele>1481</ele>
        <time>2013-02-09T11:41:21Z</time>
      </trkpt>
      <trkpt lat="44.84394" lon="5.54058">
        <ele>1479</ele>
        <time>2013-02-09T11:41:26Z</time>
      </trkpt>
      <trkpt lat="44.84391" lon="5.5408">
        <ele>1472</ele>
        <time>2013-02-09T11:41:31Z</time>
      </trkpt>
      <trkpt lat="44.84393" lon="5.54091">
        <ele>1468</ele>
        <time>2013-02-09T11:41:36Z</time>
      </trkpt>
      <trkpt lat="44.84394" lon="5.54096">
        <ele>1471</ele>
        <time>2013-02-09T11:41:41Z</time>
      </trkpt>
      <trkpt lat="44.84395" lon="5.54111">
        <ele>1471</ele>
        <time>2013-02-09T11:41:46Z</time>
      </trkpt>
      <trkpt lat="44.84397" lon="5.54127">
        <ele>1468</ele>
        <time>2013-02-09T11:41:51Z</time>
      </trkpt>
      <trkpt lat="44.84404" lon="5.54139">
        <ele>1465</ele>
        <time>2013-02-09T11:41:56Z</time>
      </trkpt>
      <trkpt lat="44.84414" lon="5.54162">
        <ele>1458</ele>
        <time>2013-02-09T11:42:01Z</time>
      </trkpt>
      <trkpt lat="44.84431" lon="5.5417">
        <ele>1450</ele>
        <time>2013-02-09T11:42:06Z</time>
      </trkpt>
      <trkpt lat="44.84454" lon="5.54183">
        <ele>1445</ele>
        <time>2013-02-09T11:42:11Z</time>
      </trkpt>
      <trkpt lat="44.84479" lon="5.54187">
        <ele>1438</ele>
        <time>2013-02-09T11:42:16Z</time>
      </trkpt>
      <trkpt lat="44.84492" lon="5.54188">
        <ele>1435</ele>
        <time>2013-02-09T11:42:21Z</time>
      </trkpt>
      <trkpt lat="44.84493" lon="5.54189">
        <ele>1432</ele>
        <time>2013-02-09T11:42:26Z</time>
      </trkpt>
      <trkpt lat="44.84495" lon="5.54191">
        <ele>1431</ele>
        <time>2013-02-09T11:42:31Z</time>
      </trkpt>
      <trkpt lat="44.84496" lon="5.54192">
        <ele>1431</ele>
        <time>2013-02-09T11:42:36Z</time>
      </trkpt>
      <trkpt lat="44.84497" lon="5.54194">
        <ele>1435</ele>
        <time>2013-02-09T11:42:41Z</time>
      </trkpt>
      <trkpt lat="44.84498" lon="5.54194">
        <ele>1437</ele>
        <time>2013-02-09T11:42:46Z</time>
      </trkpt>
      <trkpt lat="44.84505" lon="5.54193">
        <ele>1444</ele>
        <time>2013-02-09T11:42:51Z</time>
      </trkpt>
      <trkpt lat="44.84507" lon="5.54192">
        <ele>1440</ele>
        <time>2013-02-09T11:43:16Z</time>
      </trkpt>
      <trkpt lat="44.84506" lon="5.54195">
        <ele>1438</ele>
        <time>2013-02-09T11:43:21Z</time>
      </trkpt>
      <trkpt lat="44.84507" lon="5.54199">
        <ele>1437</ele>
        <time>2013-02-09T11:43:26Z</time>
      </trkpt>
      <trkpt lat="44.84507" lon="5.54202">
        <ele>1435</ele>
        <time>2013-02-09T11:43:31Z</time>
      </trkpt>
      <trkpt lat="44.84504" lon="5.54208">
        <ele>1433</ele>
        <time>2013-02-09T11:43:36Z</time>
      </trkpt>
      <trkpt lat="44.84508" lon="5.54214">
        <ele>1433</ele>
        <time>2013-02-09T11:43:41Z</time>
      </trkpt>
      <trkpt lat="44.84509" lon="5.54218">
        <ele>1433</ele>
        <time>2013-02-09T11:43:46Z</time>
      </trkpt>
      <trkpt lat="44.84509" lon="5.54223">
        <ele>1432</ele>
        <time>2013-02-09T11:43:51Z</time>
      </trkpt>
      <trkpt lat="44.8451" lon="5.54229">
        <ele>1432</ele>
        <time>2013-02-09T11:43:56Z</time>
      </trkpt>
      <trkpt lat="44.84512" lon="5.54233">
        <ele>1430</ele>
        <time>2013-02-09T11:44:01Z</time>
      </trkpt>
      <trkpt lat="44.84517" lon="5.54238">
        <ele>1426</ele>
        <time>2013-02-09T11:44:06Z</time>
      </trkpt>
      <trkpt lat="44.84515" lon="5.5424">
        <ele>1423</ele>
        <time>2013-02-09T11:44:11Z</time>
      </trkpt>
      <trkpt lat="44.8452" lon="5.5424">
        <ele>1423</ele>
        <time>2013-02-09T11:44:16Z</time>
      </trkpt>
      <trkpt lat="44.84521" lon="5.54241">
        <ele>1420</ele>
        <time>2013-02-09T11:44:21Z</time>
      </trkpt>
      <trkpt lat="44.84526" lon="5.54243">
        <ele>1419</ele>
        <time>2013-02-09T11:44:26Z</time>
      </trkpt>
      <trkpt lat="44.84536" lon="5.54254">
        <ele>1419</ele>
        <time>2013-02-09T11:44:31Z</time>
      </trkpt>
      <trkpt lat="44.84548" lon="5.5425">
        <ele>1401</ele>
        <time>2013-02-09T11:45:56Z</time>
      </trkpt>
      <trkpt lat="44.84558" lon="5.54251">
        <ele>1402</ele>
        <time>2013-02-09T11:46:01Z</time>
      </trkpt>
      <trkpt lat="44.84578" lon="5.54251">
        <ele>1401</ele>
        <time>2013-02-09T11:46:06Z</time>
      </trkpt>
      <trkpt lat="44.84609" lon="5.54256">
        <ele>1399</ele>
        <time>2013-02-09T11:46:11Z</time>
      </trkpt>
      <trkpt lat="44.84636" lon="5.54257">
        <ele>1401</ele>
        <time>2013-02-09T11:46:16Z</time>
      </trkpt>
      <trkpt lat="44.84659" lon="5.54264">
        <ele>1392</ele>
        <time>2013-02-09T11:46:21Z</time>
      </trkpt>
      <trkpt lat="44.84679" lon="5.54262">
        <ele>1384</ele>
        <time>2013-02-09T11:46:26Z</time>
      </trkpt>
      <trkpt lat="44.84681" lon="5.54258">
        <ele>1380</ele>
        <time>2013-02-09T11:46:31Z</time>
      </trkpt>
      <trkpt lat="44.84681" lon="5.54255">
        <ele>1377</ele>
        <time>2013-02-09T11:50:21Z</time>
      </trkpt>
      <trkpt lat="44.84685" lon="5.54254">
        <ele>1376</ele>
        <time>2013-02-09T11:50:26Z</time>
      </trkpt>
      <trkpt lat="44.84695" lon="5.54241">
        <ele>1370</ele>
        <time>2013-02-09T11:50:31Z</time>
      </trkpt>
      <trkpt lat="44.84713" lon="5.54224">
        <ele>1364</ele>
        <time>2013-02-09T11:50:36Z</time>
      </trkpt>
      <trkpt lat="44.84739" lon="5.54224">
        <ele>1356</ele>
        <time>2013-02-09T11:50:41Z</time>
      </trkpt>
      <trkpt lat="44.8477" lon="5.54238">
        <ele>1349</ele>
        <time>2013-02-09T11:50:46Z</time>
      </trkpt>
      <trkpt lat="44.84794" lon="5.54258">
        <ele>1341</ele>
        <time>2013-02-09T11:50:51Z</time>
      </trkpt>
      <trkpt lat="44.84811" lon="5.54284">
        <ele>1337</ele>
        <time>2013-02-09T11:50:56Z</time>
      </trkpt>
      <trkpt lat="44.84824" lon="5.54307">
        <ele>1334</ele>
        <time>2013-02-09T11:51:01Z</time>
      </trkpt>
      <trkpt lat="44.84842" lon="5.54328">
        <ele>1329</ele>
        <time>2013-02-09T11:51:06Z</time>
      </trkpt>
      <trkpt lat="44.84862" lon="5.54348">
        <ele>1323</ele>
        <time>2013-02-09T11:51:11Z</time>
      </trkpt>
      <trkpt lat="44.84882" lon="5.54369">
        <ele>1318</ele>
        <time>2013-02-09T11:51:16Z</time>
      </trkpt>
      <trkpt lat="44.849" lon="5.5439">
        <ele>1313</ele>
        <time>2013-02-09T11:51:21Z</time>
      </trkpt>
      <trkpt lat="44.84918" lon="5.54413">
        <ele>1307</ele>
        <time>2013-02-09T11:51:26Z</time>
      </trkpt>
      <trkpt lat="44.84943" lon="5.54431">
        <ele>1301</ele>
        <time>2013-02-09T11:51:31Z</time>
      </trkpt>
      <trkpt lat="44.84961" lon="5.54454">
        <ele>1296</ele>
        <time>2013-02-09T11:51:36Z</time>
      </trkpt>
      <trkpt lat="44.84977" lon="5.54484">
        <ele>1291</ele>
        <time>2013-02-09T11:51:41Z</time>
      </trkpt>
      <trkpt lat="44.84994" lon="5.54517">
        <ele>1287</ele>
        <time>2013-02-09T11:51:46Z</time>
      </trkpt>
      <trkpt lat="44.85002" lon="5.54541">
        <ele>1283</ele>
        <time>2013-02-09T11:51:51Z</time>
      </trkpt>
      <trkpt lat="44.85016" lon="5.54562">
        <ele>1281</ele>
        <time>2013-02-09T11:51:56Z</time>
      </trkpt>
      <trkpt lat="44.85036" lon="5.54567">
        <ele>1279</ele>
        <time>2013-02-09T11:52:01Z</time>
      </trkpt>
      <trkpt lat="44.85058" lon="5.5457">
        <ele>1279</ele>
        <time>2013-02-09T11:52:06Z</time>
      </trkpt>
      <trkpt lat="44.85072" lon="5.5457">
        <ele>1276</ele>
        <time>2013-02-09T11:53:21Z</time>
      </trkpt>
      <trkpt lat="44.85072" lon="5.54571">
        <ele>1276</ele>
        <time>2013-02-09T11:53:26Z</time>
      </trkpt>
      <trkpt lat="44.85073" lon="5.54571">
        <ele>1277</ele>
        <time>2013-02-09T11:53:31Z</time>
      </trkpt>
      <trkpt lat="44.85083" lon="5.54571">
        <ele>1289</ele>
        <time>2013-02-09T12:13:41Z</time>
      </trkpt>
      <trkpt lat="44.85086" lon="5.54571">
        <ele>1288</ele>
        <time>2013-02-09T12:13:46Z</time>
      </trkpt>
      <trkpt lat="44.85089" lon="5.54572">
        <ele>1285</ele>
        <time>2013-02-09T12:13:51Z</time>
      </trkpt>
      <trkpt lat="44.85095" lon="5.54573">
        <ele>1282</ele>
        <time>2013-02-09T12:13:56Z</time>
      </trkpt>
      <trkpt lat="44.85102" lon="5.54575">
        <ele>1281</ele>
        <time>2013-02-09T12:14:01Z</time>
      </trkpt>
      <trkpt lat="44.85108" lon="5.54576">
        <ele>1282</ele>
        <time>2013-02-09T12:14:06Z</time>
      </trkpt>
      <trkpt lat="44.85111" lon="5.54578">
        <ele>1281</ele>
        <time>2013-02-09T12:14:11Z</time>
      </trkpt>
      <trkpt lat="44.85116" lon="5.5458">
        <ele>1280</ele>
        <time>2013-02-09T12:14:16Z</time>
      </trkpt>
      <trkpt lat="44.85124" lon="5.54585">
        <ele>1279</ele>
        <time>2013-02-09T12:14:21Z</time>
      </trkpt>
      <trkpt lat="44.85133" lon="5.54589">
        <ele>1278</ele>
        <time>2013-02-09T12:14:26Z</time>
      </trkpt>
      <trkpt lat="44.85141" lon="5.54593">
        <ele>1278</ele>
        <time>2013-02-09T12:14:31Z</time>
      </trkpt>
      <trkpt lat="44.85154" lon="5.54597">
        <ele>1276</ele>
        <time>2013-02-09T12:14:36Z</time>
      </trkpt>
      <trkpt lat="44.85168" lon="5.54601">
        <ele>1275</ele>
        <time>2013-02-09T12:14:41Z</time>
      </trkpt>
      <trkpt lat="44.85184" lon="5.54601">
        <ele>1273</ele>
        <time>2013-02-09T12:14:46Z</time>
      </trkpt>
      <trkpt lat="44.85205" lon="5.54599">
        <ele>1271</ele>
        <time>2013-02-09T12:14:51Z</time>
      </trkpt>
      <trkpt lat="44.85228" lon="5.546">
        <ele>1269</ele>
        <time>2013-02-09T12:14:56Z</time>
      </trkpt>
      <trkpt lat="44.85251" lon="5.54603">
        <ele>1266</ele>
        <time>2013-02-09T12:15:01Z</time>
      </trkpt>
      <trkpt lat="44.85268" lon="5.54606">
        <ele>1263</ele>
        <time>2013-02-09T12:15:06Z</time>
      </trkpt>
      <trkpt lat="44.85284" lon="5.5461">
        <ele>1260</ele>
        <time>2013-02-09T12:15:11Z</time>
      </trkpt>
      <trkpt lat="44.85304" lon="5.54618">
        <ele>1257</ele>
        <time>2013-02-09T12:15:16Z</time>
      </trkpt>
      <trkpt lat="44.85325" lon="5.54629">
        <ele>1254</ele>
        <time>2013-02-09T12:15:21Z</time>
      </trkpt>
      <trkpt lat="44.8535" lon="5.54638">
        <ele>1251</ele>
        <time>2013-02-09T12:15:26Z</time>
      </trkpt>
      <trkpt lat="44.85371" lon="5.54645">
        <ele>1248</ele>
        <time>2013-02-09T12:15:31Z</time>
      </trkpt>
      <trkpt lat="44.85387" lon="5.54658">
        <ele>1248</ele>
        <time>2013-02-09T12:15:36Z</time>
      </trkpt>
      <trkpt lat="44.85401" lon="5.54673">
        <ele>1247</ele>
        <time>2013-02-09T12:15:41Z</time>
      </trkpt>
      <trkpt lat="44.85419" lon="5.54694">
        <ele>1244</ele>
        <time>2013-02-09T12:15:46Z</time>
      </trkpt>
      <trkpt lat="44.85441" lon="5.54719">
        <ele>1241</ele>
        <time>2013-02-09T12:15:51Z</time>
      </trkpt>
      <trkpt lat="44.85468" lon="5.54742">
        <ele>1238</ele>
        <time>2013-02-09T12:15:56Z</time>
      </trkpt>
      <trkpt lat="44.85489" lon="5.5476">
        <ele>1233</ele>
        <time>2013-02-09T12:16:01Z</time>
      </trkpt>
      <trkpt lat="44.85507" lon="5.54777">
        <ele>1230</ele>
        <time>2013-02-09T12:16:06Z</time>
      </trkpt>
      <trkpt lat="44.85529" lon="5.54799">
        <ele>1225</ele>
        <time>2013-02-09T12:16:11Z</time>
      </trkpt>
      <trkpt lat="44.85544" lon="5.54813">
        <ele>1224</ele>
        <time>2013-02-09T12:16:16Z</time>
      </trkpt>
      <trkpt lat="44.85556" lon="5.54825">
        <ele>1222</ele>
        <time>2013-02-09T12:16:21Z</time>
      </trkpt>
      <trkpt lat="44.85573" lon="5.54842">
        <ele>1219</ele>
        <time>2013-02-09T12:16:26Z</time>
      </trkpt>
      <trkpt lat="44.85594" lon="5.54861">
        <ele>1216</ele>
        <time>2013-02-09T12:16:31Z</time>
      </trkpt>
      <trkpt lat="44.8561" lon="5.54885">
        <ele>1212</ele>
        <time>2013-02-09T12:16:36Z</time>
      </trkpt>
      <trkpt lat="44.85612" lon="5.54908">
        <ele>1211</ele>
        <time>2013-02-09T12:16:41Z</time>
      </trkpt>
      <trkpt lat="44.85612" lon="5.54928">
        <ele>1210</ele>
        <time>2013-02-09T12:16:46Z</time>
      </trkpt>
      <trkpt lat="44.85611" lon="5.54948">
        <ele>1209</ele>
        <time>2013-02-09T12:16:51Z</time>
      </trkpt>
      <trkpt lat="44.8561" lon="5.54967">
        <ele>1211</ele>
        <time>2013-02-09T12:16:56Z</time>
      </trkpt>
      <trkpt lat="44.85611" lon="5.54981">
        <ele>1211</ele>
        <time>2013-02-09T12:17:01Z</time>
      </trkpt>
      <trkpt lat="44.85611" lon="5.5499">
        <ele>1211</ele>
        <time>2013-02-09T12:17:06Z</time>
      </trkpt>
      <trkpt lat="44.85611" lon="5.54999">
        <ele>1210</ele>
        <time>2013-02-09T12:17:11Z</time>
      </trkpt>
      <trkpt lat="44.85611" lon="5.55005">
        <ele>1209</ele>
        <time>2013-02-09T12:17:16Z</time>
      </trkpt>
      <trkpt lat="44.85611" lon="5.5502">
        <ele>1209</ele>
        <time>2013-02-09T12:17:21Z</time>
      </trkpt>
      <trkpt lat="44.85611" lon="5.55046">
        <ele>1206</ele>
        <time>2013-02-09T12:17:26Z</time>
      </trkpt>
      <trkpt lat="44.85612" lon="5.55078">
        <ele>1205</ele>
        <time>2013-02-09T12:17:31Z</time>
      </trkpt>
      <trkpt lat="44.85613" lon="5.55111">
        <ele>1202</ele>
        <time>2013-02-09T12:17:36Z</time>
      </trkpt>
      <trkpt lat="44.85615" lon="5.55143">
        <ele>1200</ele>
        <time>2013-02-09T12:17:41Z</time>
      </trkpt>
      <trkpt lat="44.85613" lon="5.55176">
        <ele>1201</ele>
        <time>2013-02-09T12:17:46Z</time>
      </trkpt>
      <trkpt lat="44.85612" lon="5.55213">
        <ele>1197</ele>
        <time>2013-02-09T12:17:51Z</time>
      </trkpt>
      <trkpt lat="44.85621" lon="5.55251">
        <ele>1191</ele>
        <time>2013-02-09T12:17:56Z</time>
      </trkpt>
      <trkpt lat="44.85629" lon="5.55275">
        <ele>1188</ele>
        <time>2013-02-09T12:18:01Z</time>
      </trkpt>
      <trkpt lat="44.85636" lon="5.55289">
        <ele>1186</ele>
        <time>2013-02-09T12:18:06Z</time>
      </trkpt>
      <trkpt lat="44.85653" lon="5.55313">
        <ele>1184</ele>
        <time>2013-02-09T12:18:11Z</time>
      </trkpt>
      <trkpt lat="44.85668" lon="5.55339">
        <ele>1180</ele>
        <time>2013-02-09T12:18:16Z</time>
      </trkpt>
      <trkpt lat="44.85676" lon="5.5535">
        <ele>1177</ele>
        <time>2013-02-09T12:18:21Z</time>
      </trkpt>
      <trkpt lat="44.85685" lon="5.55366">
        <ele>1175</ele>
        <time>2013-02-09T12:18:26Z</time>
      </trkpt>
      <trkpt lat="44.85702" lon="5.55392">
        <ele>1169</ele>
        <time>2013-02-09T12:18:31Z</time>
      </trkpt>
      <trkpt lat="44.85719" lon="5.55421">
        <ele>1163</ele>
        <time>2013-02-09T12:18:36Z</time>
      </trkpt>
      <trkpt lat="44.85731" lon="5.55448">
        <ele>1159</ele>
        <time>2013-02-09T12:18:41Z</time>
      </trkpt>
      <trkpt lat="44.85741" lon="5.55466">
        <ele>1156</ele>
        <time>2013-02-09T12:18:46Z</time>
      </trkpt>
      <trkpt lat="44.85746" lon="5.55507">
        <ele>1153</ele>
        <time>2013-02-09T12:18:51Z</time>
      </trkpt>
      <trkpt lat="44.85746" lon="5.55556">
        <ele>1151</ele>
        <time>2013-02-09T12:18:56Z</time>
      </trkpt>
      <trkpt lat="44.85756" lon="5.55594">
        <ele>1148</ele>
        <time>2013-02-09T12:19:01Z</time>
      </trkpt>
      <trkpt lat="44.8576" lon="5.55617">
        <ele>1143</ele>
        <time>2013-02-09T12:19:06Z</time>
      </trkpt>
      <trkpt lat="44.85767" lon="5.55647">
        <ele>1138</ele>
        <time>2013-02-09T12:19:11Z</time>
      </trkpt>
      <trkpt lat="44.85785" lon="5.55691">
        <ele>1136</ele>
        <time>2013-02-09T12:19:16Z</time>
      </trkpt>
      <trkpt lat="44.85793" lon="5.55729">
        <ele>1131</ele>
        <time>2013-02-09T12:19:21Z</time>
      </trkpt>
      <trkpt lat="44.85801" lon="5.5575">
        <ele>1128</ele>
        <time>2013-02-09T12:19:26Z</time>
      </trkpt>
      <trkpt lat="44.85823" lon="5.55761">
        <ele>1126</ele>
        <time>2013-02-09T12:19:31Z</time>
      </trkpt>
      <trkpt lat="44.85846" lon="5.55753">
        <ele>1124</ele>
        <time>2013-02-09T12:19:36Z</time>
      </trkpt>
      <trkpt lat="44.85857" lon="5.55732">
        <ele>1121</ele>
        <time>2013-02-09T12:19:41Z</time>
      </trkpt>
      <trkpt lat="44.85867" lon="5.55704">
        <ele>1119</ele>
        <time>2013-02-09T12:19:46Z</time>
      </trkpt>
      <trkpt lat="44.8589" lon="5.55677">
        <ele>1118</ele>
        <time>2013-02-09T12:19:51Z</time>
      </trkpt>
      <trkpt lat="44.85913" lon="5.55675">
        <ele>1117</ele>
        <time>2013-02-09T12:19:56Z</time>
      </trkpt>
      <trkpt lat="44.85915" lon="5.55707">
        <ele>1115</ele>
        <time>2013-02-09T12:20:01Z</time>
      </trkpt>
      <trkpt lat="44.85913" lon="5.55736">
        <ele>1112</ele>
        <time>2013-02-09T12:20:06Z</time>
      </trkpt>
      <trkpt lat="44.85919" lon="5.55761">
        <ele>1109</ele>
        <time>2013-02-09T12:20:11Z</time>
      </trkpt>
      <trkpt lat="44.85925" lon="5.55793">
        <ele>1106</ele>
        <time>2013-02-09T12:20:16Z</time>
      </trkpt>
      <trkpt lat="44.85935" lon="5.5582">
        <ele>1103</ele>
        <time>2013-02-09T12:20:21Z</time>
      </trkpt>
      <trkpt lat="44.85949" lon="5.55839">
        <ele>1101</ele>
        <time>2013-02-09T12:20:26Z</time>
      </trkpt>
      <trkpt lat="44.85955" lon="5.55843">
        <ele>1101</ele>
        <time>2013-02-09T12:20:31Z</time>
      </trkpt>
      <trkpt lat="44.85956" lon="5.55848">
        <ele>1101</ele>
        <time>2013-02-09T12:20:36Z</time>
      </trkpt>
      <trkpt lat="44.85954" lon="5.55855">
        <ele>1101</ele>
        <time>2013-02-09T12:20:41Z</time>
      </trkpt>
      <trkpt lat="44.85957" lon="5.55856">
        <ele>1103</ele>
        <time>2013-02-09T12:20:46Z</time>
      </trkpt>
      <trkpt lat="44.85959" lon="5.55856">
        <ele>1104</ele>
        <time>2013-02-09T12:20:51Z</time>
      </trkpt>
      <trkpt lat="44.8596" lon="5.55854">
        <ele>1105</ele>
        <time>2013-02-09T12:20:56Z</time>
      </trkpt>
      <trkpt lat="44.85959" lon="5.55854">
        <ele>1105</ele>
        <time>2013-02-09T12:21:01Z</time>
      </trkpt>
      <trkpt lat="44.85959" lon="5.55855">
        <ele>1105</ele>
        <time>2013-02-09T12:21:06Z</time>
      </trkpt>
      <trkpt lat="44.85957" lon="5.55854">
        <ele>1107</ele>
        <time>2013-02-09T12:21:11Z</time>
      </trkpt>
      <trkpt lat="44.85955" lon="5.55855">
        <ele>1108</ele>
        <time>2013-02-09T12:21:16Z</time>
      </trkpt>
      <trkpt lat="44.85953" lon="5.55856">
        <ele>1108</ele>
        <time>2013-02-09T12:21:21Z</time>
      </trkpt>
      <trkpt lat="44.85952" lon="5.55863">
        <ele>1107</ele>
        <time>2013-02-09T12:21:26Z</time>
      </trkpt>
    </trkseg>
  </trk>
</gpx>